     2              OBSERVATION DATA    GPS                 RINEX VERSION / TYPE
teqc 2000Jul20 Karen Wendt 20020723 19:54:44UTC             PGM / RUN BY / DATE
                                                            COMMENT
L2: 1 -> 1; 150 -> 5; 250 -> 9                              COMMENT
L2: 1 -> 1; 150 -> 5; 250 -> 9                              COMMENT
L2: 1 -> 1; 150 -> 5; 250 -> 9                              COMMENT
L2: 1 -> 1; 150 -> 5; 250 -> 9                              COMMENT
L2: 1 -> 1; 150 -> 5; 250 -> 9                              COMMENT
L2: 1 -> 1; 150 -> 5; 250 -> 9                              COMMENT
L2: 1 -> 1; 150 -> 5; 250 -> 9                              COMMENT
L2: 1 -> 1; 150 -> 5; 250 -> 9                              COMMENT
L2: 1 -> 1; 150 -> 5; 250 -> 9                              COMMENT
L2: 1 -> 1; 150 -> 5; 250 -> 9                              COMMENT
L2: 1 -> 1; 150 -> 5; 250 -> 9                              COMMENT
L2: 1 -> 1; 150 -> 5; 250 -> 9                              COMMENT
L2: 1 -> 1; 150 -> 5; 250 -> 9                              COMMENT
L2: 1 -> 1; 150 -> 5; 250 -> 9                              COMMENT
Original Marker Name: ovro OVRO_BP_Aries_3_1977_NGS         COMMENT
Campaign Name: Post-Hector                                  COMMENT
4-Character Station Name: OVRO                              COMMENT
6-Character Antenna Code: DMRCHT                            COMMENT
Vertical Measurement Point: BCR                             COMMENT
Vertical Offset to Rinex Ref. Point: 0.0348                 COMMENT
Radial Measurement Point: ECF                               COMMENT
Radial Offset to Rinex Ref. Point: 0.1897                   COMMENT
Antenna Height from Field Measurement: 1.1970 m             COMMENT
Additional Antenna Identification Info.:                    COMMENT
Turborogue and Ashtech Choke Ring                           COMMENT
Original XYZ: -2409625.4523 -4478290.4730 3838645.8673      COMMENT
New XYZ position is based on association with SCEC monument COMMENT
E1F7W3N1+0011. Position of that monument is believed to be  COMMENT
valid to within 1 m horizontally; vertical accuracy         COMMENT
should be no worse than 3-times this value.                 COMMENT
                                                            COMMENT
Revised Rinex header created by UCSD GPS archive for        COMMENT
GSAC on 11-Jul-2003 (2003:192) 17:06:18 GMT                 COMMENT
For assistance contact dagnew@ucsd.edu                      COMMENT
or anderson@python.ucsd.edu                                 COMMENT
                                                            COMMENT
BP ARIES 3 1977                                             MARKER NAME
JLS US GEOLOGICAL SURVEY                                    OBSERVER / AGENCY
LP03188 ASHTECH Z-XII3 CD00                                 REC # / TYPE / VERS
CR519993702 DORNE-MARGOL. TYPE T                            ANT # / TYPE
 -2409643.5831 -4478268.4309  3838638.5529                  APPROX POSITION XYZ
        1.1471        0.0000        0.0000                  ANTENNA: DELTA H/E/N
     1     1     0                                          WAVELENGTH FACT L1/2
     5    C1    L1    L2    P1    P2                        # / TYPES OF OBSERV
    30                                                      INTERVAL
  2002     7    13    15    18   30.000000                  TIME OF FIRST OBS
  2002     7    13    23    59    0.000000                  TIME OF LAST OBS
                                                            END OF HEADER
 02  7 13 15 18 30.0000000  0  9G26G23G15G 6G30G29G18G10G17
  22616099.384     -423679.02349   -303570.17146  22616099.720    22616108.111
  21012875.863     -211855.95349   -151053.55048  21012875.329
  21012881.649     -401062.05449   -269936.25843
  20468087.536     -259954.54649   -185932.90848  20468087.148    20468093.106
  23860453.748      -21471.82349    -13632.65245  23860453.132    23860462.093
  22982876.691     -367489.63149   -260753.46446  22982877.075    22982884.567
  22509377.048     -501753.23549   -359841.78746  22509376.343    22509382.815
  23404879.654      -38383.04349    -27155.99545  23404878.320    23404887.055
  21338422.493     -367664.56249   -263195.76247  21338421.928    21338428.737
 02  7 13 15 18 59.9990000  0 10G26G22G23G15G 6G30G29G18G10G17
  22284059.973     -593136.47549   -435614.92746  22284060.636
  22284068.823     -456402.05049   -318627.21544  23498381.437    20697198.552
                   -295331.52349   -216099.47048  20697198.038    20697204.387
                   -566966.64449     -1031.52143
  20148670.474     -363082.25049   -266292.19248  20148670.226    20148676.168
  23559244.132      -28908.21949    -19427.38645  23559245.793    23559254.370
  22655431.061     -512806.97049   -373987.73346  22655431.591    22655439.203
  22171250.932     -703196.27749   -516810.36246  22171250.623    22171257.046
  23102642.674      -51226.27549    -37163.78846  23102642.054    23102650.610
  21010628.603     -514811.77249   -377855.89747  21010628.275    21010635.123
 02  7 13 15 19 30.0000000  0 10G26G22G23G15G 6G30G29G18G10G17
  22389886.297    -1612437.42249  -1229875.37646  22389886.545    22389894.740
  23607539.501    -1458152.89949  -1099212.31145  23607538.471    23607547.037
  20819382.560    -1228668.73549   -943375.24148  20819382.302    20819388.738
  21588676.445    -1582990.38849   -792737.90946  21588675.921    21588682.987
  20267116.291    -1316065.49749  -1008876.56448  20267116.047    20267122.033
  23695824.230     -886597.52249   -687756.82445  23695825.721    23695834.127
  22765850.148    -1507970.51449  -1149439.83446  22765850.690    22765858.352
  22270958.523    -1754651.16149  -1336125.83446  22270957.917    22270964.246
  23238216.604     -914200.91649   -709611.65146  23238215.858    23238224.389
  21120645.239    -1512091.09349  -1154956.67447  21120644.802    21120651.659
 02  7 13 15 20  0.0000000  0 10G26G22G23G15G 6G30G29G18G10G17
  22379060.531    -1669326.77149  -1274204.73446  22379060.759    22379068.999
  23600062.956    -1497445.44049  -1129829.86845  23600063.056    23600069.901
  20824910.430    -1199620.29949   -920740.12548  20824910.045    20824916.522
  21578421.348    -1636881.24549   -834730.78747  21578420.950    21578427.971
  20268907.249    -1306653.91549  -1001542.88948  20268907.038    20268913.049
  23715672.705     -782296.78949   -606483.63845  23715673.561    23715681.778
  22759617.049    -1540727.24049  -1174964.53746  22759617.275    22759624.936
  22253982.191    -1843862.65849  -1405641.24946  22253981.579    22253987.851
  23257081.969     -815063.15749   -632361.55045  23257081.197    23257089.736
  21113954.606    -1547251.17249  -1182354.12447  21113954.074    21113960.952
 02  7 13 15 20 30.0000000  0 10G26G22G23G15G 6G30G29G18G10G17
  22368327.112    -1725731.17449  -1318156.20146  22368327.279    22368335.586
  23592686.720    -1536207.60949  -1160034.17045  23592685.184    23592694.101
  20830525.083    -1170115.56049   -897749.44548  20830524.648    20830531.132
  21568205.085    -1690568.73349   -876565.18047  21568204.533    21568211.573
  20270787.260    -1296774.66449   -993844.78248  20270787.056    20270793.102
  23735532.166     -677935.17749   -525163.03945  23735532.932    23735541.245
  22753475.064    -1573004.11349  -1200115.32946  22753475.207    22753482.911
  22237065.768    -1932758.95949  -1474911.07446  22237065.240    22237071.425
  23275982.253     -715741.90949   -554968.47046  23275981.473    23275990.019
  21107300.080    -1582221.08149  -1209603.40447  21107299.531    21107306.396
 02  7 13 15 21  0.0000000  0 10G26G22G23G15G 6G30G29G18G10G17
  22357686.236    -1781649.59749  -1361729.00446  22357686.406    22357694.664
  23585411.139    -1574440.39149  -1189825.97445  23585410.070    23585418.568
  20836225.804    -1140158.07749   -874405.99248  20836225.371    20836231.872
  21558027.044    -1744054.59849   -918242.48847  21558026.509    21558033.585
  20272755.990    -1286429.03649   -985783.29948  20272755.793    20272761.858
  23755402.560     -573517.19949   -443798.54945  23755403.066    23755411.384
  22747424.363    -1604801.36549  -1224892.41246  22747424.456    22747432.108
  22220209.282    -2021340.32249  -1543935.49746  22220208.819    22220214.956
  23294916.562     -616241.68349   -477435.94146  23294915.815    23294924.378
  21100681.355    -1617002.68749  -1236705.95847  21100680.823    21100687.707
 02  7 13 15 21 30.0000000  0 10G26G22G23G15G 6G30G29G18G10G17
  22347138.666    -1837078.04749  -1404920.01046  22347138.758    22347146.890
  23578236.739    -1612141.66949  -1219203.63245  23578235.857    23578244.395
  20842012.659    -1109748.26149   -850710.08148  20842012.215    20842018.728
  21547887.761    -1797337.37449   -959761.56047  21547887.138    21547894.180
  20274813.830    -1275615.14249   -977356.94548  20274813.658    20274819.740
  23775283.256     -469044.59749   -362391.46445  23775283.604    23775291.898
  22741465.440    -1636115.91649  -1249293.35246  22741465.521    22741473.200
  22203413.389    -2109603.56849  -1612712.05446  22203412.947    22203419.038
  23313884.699     -516563.98349   -399765.12346  23313883.994    23313892.483
  21094098.637    -1651595.01049  -1263661.01347  21094098.140    21094105.033
 02  7 13 15 22  0.0000000  0 10G26G22G23G15G 6G30G29G18G10G17
  22336684.470    -1892015.46449  -1447728.31346  22336684.545    22336692.613
  23571163.553    -1649312.10949  -1248167.61145  23571162.574    23571171.194
  20847884.908    -1078889.64449   -826664.38748  20847884.470    20847891.044
  21537786.675    -1850419.05049  -1001123.87347  21537786.051    21537793.139
  20276960.616    -1264334.13949   -968566.53948  20276960.432    20276966.542
  23795173.343     -364522.25049   -280945.55445  23795173.624    23795181.948
  22735598.400    -1666947.97349  -1273318.25746  22735598.413    22735606.163
  22186677.933    -2197549.14249  -1681240.99346  22186677.513    22186683.612
  23332885.875     -416713.26649   -321959.42946  23332885.119    23332893.626
  21087551.638    -1685999.99849  -1290470.05147  21087551.092    21087558.018
 02  7 13 15 22 30.0000000  0 10G26G22G23G15G 6G30G29G18G10G17
  22326323.940    -1946460.11949  -1490152.70146  22326324.067    22326332.058
  23564191.265    -1685951.92249  -1276718.06545  23564190.180    23564198.847
  20853842.090    -1047584.84649   -802271.07548  20853841.616    20853848.213
  21527723.694    -1903300.50149  -1042330.19847  21527723.028    21527730.140
  20279196.184    -1252586.21749   -959412.34648  20279196.005    20279202.138
  23815072.054     -259953.88649   -199463.82145  23815072.378    23815080.873
  22729823.179    -1697296.81849  -1296966.68946  22729823.171    22729830.997
  22170003.001    -2285176.40249  -1749521.94946  22170002.567    22170008.753
  23351919.168     -316693.07749   -244021.71646  23351918.393    23351926.946
  21081039.978    -1720218.79649  -1317134.07747  21081039.450    21081046.431
 02  7 13 15 23  0.0000000  0 10G26G22G23G15G 6G30G29G18G10G17
  22316058.164    -2000406.92149  -1532189.15346  22316058.374    22316066.283
  23557320.693    -1722057.77449  -1304852.52145  23557319.636    23557328.090
  20859884.176    -1015833.36949   -777529.68948  20859883.773    20859890.344
  21517699.280    -1955979.43549  -1083378.71647  21517698.538    21517705.708
  20281521.135    -1240368.61149   -949892.17348  20281520.955    20281527.109
  23834979.473     -155340.31749   -117946.86845  23834979.766    23834988.346
  22724140.728    -1727158.53949  -1320235.51946  22724140.675    22724148.514
  22153389.408    -2372481.24849  -1817551.67446  22153388.978    22153395.256
  23370984.629     -216503.49249   -165951.99446  23370983.944    23370992.548
  21074564.201    -1754248.97249  -1343651.12147  21074563.723    21074570.725
 02  7 13 15 23 30.0000000  0 10G26G22G23G15G 6G30G29G18G10G17
  22305887.486    -2053855.01349  -1573837.00046  22305887.585    22305895.454
  23550551.546    -1757630.76449  -1332571.76745  23550550.493    23550558.790
  20866010.627     -983639.02149   -752443.22048  20866010.231    20866016.735
  21507712.948    -2008457.55649  -1124270.76547  21507712.251    21507719.427
  20283935.285    -1227682.41049   -940006.86048  20283935.114    20283941.231
  23854894.515      -50686.03149    -36398.25845  23854894.910    23854903.671
  22718550.962    -1756533.29049  -1343124.91646  22718550.905    22718558.623
  22136837.161    -2459463.77549  -1885330.25246  22136836.737    22136843.051
  23390081.658     -116149.08549    -87753.85946  23390080.884    23390089.487
  21068124.030    -1788092.71349  -1370022.88447  21068123.521    21068130.493
 02  7 13 15 24  0.0000000  0 11G26G22G23G15G 6G30G29G21G18G10G17
  22295811.680    -2106803.87149  -1615095.84146  22295811.780    22295819.628
  23543883.446    -1792672.44349  -1359876.97845  23543882.349    23543890.640
  20872220.655     -951005.86949   -727014.82048  20872220.192    20872226.671
  21497764.539    -2060737.00249  -1165007.99047  21497763.838    21497771.008
  20286438.285    -1214529.42149   -929757.81548  20286438.121    20286444.213
  23874816.567       54003.50149     45177.85745  23874816.668    23874825.601
  22713053.708    -1785421.89749  -1365635.48346  22713053.600    22713061.313
  24864072.030    -4204835.92349  -3231541.98645  24864071.432    24864080.969
  22120346.114    -2546124.93749  -1952858.41646  22120345.654    22120352.075
  23409209.008      -15634.90449     -9431.21746  23409208.252    23409216.837
  21061718.860    -1821752.43049  -1396251.22247  21061718.366    21061725.276
 02  7 13 15 24 30.0000000  0 11G26G22G23G15G 6G30G29G21G18G10G17
  22285831.708    -2159249.39649  -1655962.45446  22285831.780    22285839.603
  23537316.794    -1827180.20049  -1386766.16745  23537315.875    23537324.125
  20878514.088     -917934.05949   -701244.61848  20878513.606    20878520.083
  21487854.364    -2112816.15249  -1205589.15147  21487853.538    21487860.678
  20289030.508    -1200907.40349   -919143.30148  20289030.346    20289036.415
  23894744.941      158727.12749    126780.53845  23894745.191    23894754.125
  22707649.591    -1813820.86049  -1387764.51846  22707649.461    22707657.138
  24845823.849    -4300731.86049  -3306266.10145  24845823.204    24845832.647
  22103916.813    -2632461.16449  -2020133.38946  22103916.367    22103922.857
  23428366.593       85038.28649     69015.32846  23428365.840    23428374.418
  21055348.975    -1855226.51649  -1422334.93247  21055348.555    21055355.393
 02  7 13 15 25  0.0000000  0 11G26G22G23G15G 6G30G29G21G18G10G17
  22275948.554    -2211185.56549  -1696432.15646  22275948.652    22275956.508
  23530852.608    -1861150.10549  -1413236.20645  23530851.591    23530859.878
  20884891.183     -884422.20549   -675131.49148  20884890.671    20884897.252
  21477982.778    -2164691.70749  -1246011.64247  21477981.923    21477989.139
  20291712.659    -1186812.75449   -908160.45648  20291712.490    20291718.610
  23914679.861      263485.12949    208410.04145  23914680.141    23914689.190
  22702339.439    -1841725.78249  -1409508.55246  22702339.328    22702346.968
  24827599.457    -4396499.71549  -3380890.35745  24827599.071    24827608.810
  22087550.170    -2718467.82749  -2087151.52446  22087549.758    22087556.385
  23447554.467      185870.99349    147586.20246  23447553.746    23447562.393
  21049015.007    -1888512.00449  -1448271.64147  21049014.520    21049021.393
 02  7 13 15 25 30.0000000  0 11G26G22G23G15G 6G30G29G21G18G10G17
  22266162.699    -2262610.39349  -1736503.40446  22266162.767    22266170.787
  23524490.414    -1894582.08749  -1439287.11345  23524489.754    23524498.094
  20891351.528     -850472.63849   -648677.30948  20891351.029    20891357.698
  21468149.766    -2216364.04849  -1286275.77147  21468149.010    21468156.261
  20294484.711    -1172245.44549   -896809.34148  20294484.561    20294490.716
  23934620.777      368273.98449    290063.56245  23934620.977    23934629.958
  22697123.519    -1869135.39549  -1430866.65146  22697123.398    22697131.077
  24809400.043    -4492138.60849  -3455414.18045  24809399.660    24809409.738
  22071246.401    -2804144.05149  -2153912.19746  22071246.005    22071252.755
  23466772.240      286860.21049    226279.02246  23466771.442    23466780.081
  21042716.747    -1921609.56949  -1474061.96247  21042716.281    21042723.145
 02  7 13 15 26  0.0000000  0 11G26G22G23G15G 6G30G29G21G18G10G17
  22256474.526    -2313522.10049  -1776174.82446  22256474.623    22256482.662
  23518231.291    -1927476.13349  -1464918.85845  23518230.268    23518238.513
  20897894.800     -816087.87149   -621884.01048  20897894.259    20897900.934
  21458355.299    -2267834.32549  -1326382.46547  21458354.550    21458361.844
  20297346.682    -1157205.75749   -885090.11948  20297346.539    20297352.746
  23954566.664      473089.97049    371738.20745  23954566.998    23954576.002
  22692001.925    -1896049.09049  -1451838.30646  22692001.844    22692009.583
  24791225.193    -4587647.76949  -3529836.88445  24791224.892    24791235.143
  22055005.698    -2889488.87549  -2220414.63046  22055005.328    22055012.139
  23486019.119      388002.21649    305090.87745  23486018.228    23486026.858
  21036454.094    -1954520.15749  -1499706.58747  21036453.626    21036460.491
 02  7 13 15 26 30.0000000  0 11G26G22G23G15G 6G30G29G21G18G10G17
  22246884.435    -2363918.29249  -1815444.56546  22246884.552    22246892.676
  23512074.142    -1959831.88349  -1490131.14945  23512073.180    23512081.407
  20904520.356     -781270.15749   -594753.36148  20904519.882    20904526.615
  21448599.207    -2319102.80949  -1366331.92447  21448598.484    21448605.831
  20300298.626    -1141693.47349   -873002.64748  20300298.476    20300304.744
  23974517.272      577929.97449    453431.60445  23974517.546    23974526.671
  22686974.940    -1922465.93849  -1472422.83346  22686974.835    22686982.629
  24773075.384    -4683026.04849  -3604157.59245  24773075.096    24773085.432
  22038828.331    -2974501.30349  -2286658.07046  22038827.927    22038834.868
  23505294.321      489294.22249    384019.62945  23505293.494    23505302.118
  21030226.920    -1987244.22849  -1525205.89347  21030226.507    21030233.354
 02  7 13 15 27  0.0000000  0 11G26G22G23G15G 6G30G29G21G18G10G17
  22237393.161    -2413795.42049  -1854309.82046  22237393.243    22237401.360
  23506019.578    -1991647.63049  -1514922.65545  23506018.852    23506027.119
  20911228.161     -746020.40449   -567286.05648  20911227.728    20911234.531
  21438881.671    -2370168.72449  -1406123.54147  21438880.981    21438888.328
  20303340.730    -1125707.16149   -860545.81548  20303340.590    20303346.911
  23994472.071      682792.04249    535142.16445  23994472.392    23994481.525
  22682042.931    -1948383.25649  -1492618.10446  22682042.869    22682050.699
  24754951.091    -4778270.89549  -3678374.34745  24754950.724    24754961.096
  22022714.815    -3059178.42249  -2352640.22346  22022714.422    22022721.370
  23524597.791      590734.53149    463063.94845  23524597.000    23524605.626
  21024035.461    -2019780.84449  -1550559.11247  21024034.993    21024041.843
 02  7 13 15 27 30.0000000  0 11G26G22G23G15G 6G30G29G21G18G10G17
  22228000.833    -2463151.98749  -1892769.43946  22228000.936    22228009.093
  23500068.040    -2022923.64549  -1539293.57145  23500067.282    23500075.669
  20918017.792     -710341.34749   -539484.23348  20918017.308    20918024.112
  21429202.664    -2421032.46849  -1445757.64047  21429201.952    21429209.286
  20306473.015    -1109247.03749   -847719.76648  20306472.881    20306479.243
  24014430.360      787672.43449    616867.00945  24014430.705    24014439.931
  22677206.260    -1973800.52749  -1512423.73046  22677206.197    22677213.981
  24736852.101    -4873381.49649  -3752486.49545  24736851.804    24736862.089
  22006665.200    -3143519.71249  -2418360.69046  22006664.853    22006671.742
  23543928.942      692319.57949    542221.05445  23543928.118    23543936.834
  21017879.470    -2052131.05549  -1575767.08647  21017879.005    21017885.833
 02  7 13 15 28  0.0000000  0 11G26G22G23G15G 6G30G29G21G18G10G17
  22218708.086    -2511985.16549  -1930821.23446  22218708.238    22218716.424
  23494219.221    -2053659.21449  -1563243.38445  23494218.511    23494226.863
  20924888.707     -674234.89949   -511349.37148  20924888.191    20924894.944
  21419562.101    -2471694.04049  -1485234.20947  21419561.406    21419568.729
  20309695.497    -1092312.83949   -834524.30548  20309695.360    20309701.747
  24034391.715      892568.32849    698603.91145  24034391.996    24034401.131
  22672464.977    -1998716.22949  -1531838.52746  22672464.929    22672472.739
  24718778.794    -4968357.04749  -3826493.40145  24718778.416    24718788.992
  21990679.975    -3227523.64149  -2483818.26847  21990679.559    21990686.336
  23563286.935      794047.16749    621489.19745  23563286.256    23563295.053
  21011758.897    -2084294.92149  -1600829.84747  21011758.412    21011765.261
 02  7 13 15 28 30.0000000  0 11G26G22G23G15G 6G30G29G21G18G10G17
  22209515.503    -2560292.63249  -1968463.37746  22209515.612    22209523.821
  23488473.418    -2083853.70449  -1586771.59145  23488472.788    23488481.043
  20931840.463     -637702.97149   -482882.96448  20931840.019    20931846.747
  21409959.934    -2522153.50749  -1524553.27947  21409959.304    21409966.644
  20313008.297    -1074904.20649   -820959.17648  20313008.147    20313014.550
  24054355.273      997476.78449    780350.61845  24054355.565    24054364.720
  22667819.398    -2023129.04649  -1550861.46446  22667819.345    22667827.112
  24700731.511    -5063196.35949  -3900394.15045  24700731.061    24700741.617
  21974759.103    -3311188.83849  -2549011.88847  21974758.701    21974765.351
  23582671.708      895914.51049    700866.27245  23582671.006    23582679.946
  21005673.773    -2116272.57449  -1625747.50047  21005673.295    21005680.181
 02  7 13 15 29  0.0000000  0 11G26G22G23G15G 6G30G29G21G18G10G17
  22200423.458    -2608071.47749  -2005693.60146  22200423.596    22200431.820
  23482830.876    -2113506.15949  -1609877.42545  23482830.096    23482838.360
  20938872.940     -600747.13549   -454086.23848  20938872.530    20938879.297
  21400396.344    -2572410.57149  -1563714.62847  21400395.734    21400403.097
  20316411.602    -1057020.14049   -807023.57648  20316411.451    20316417.856
  24074320.733     1102395.28649    862105.15745  24074321.084    24074330.134
  22663269.829    -2047037.18549  -1569491.12846  22663269.735    22663277.582
  24682710.523    -5157896.84349  -3974186.72145  24682710.105    24682720.725
  21958903.051    -3394513.39349  -2613940.09547  21958902.638    21958909.156
  23602082.679      997919.56049    780350.63145  23602081.979    23602090.937
  20999624.130    -2148063.78349  -1650519.88547  20999623.643    20999630.545
 02  7 13 15 29 30.0000000  0 11G26G22G23G15G 6G30G29G21G18G10G17
  22191432.393    -2655319.45349  -2042510.16646  22191432.521    22191440.752
  23477291.288    -2142616.34349  -1632560.70545  23477290.590    23477298.970
  20945985.706     -563369.39849   -424960.76048  20945985.306    20945992.146
  21390871.263    -2622465.23049  -1602718.25047  21390870.688    21390878.053
  20319905.405    -1038660.47349   -792717.35748  20319905.242    20319911.603
  24094287.675     1207320.72849    943865.11345  24094287.861    24094296.955
  22658816.425    -2070439.43949  -1587726.60546  22658816.378    22658824.250
  24664716.097    -5252457.83449  -4047870.59445  24664715.742    24664726.472
  21943112.013    -3477495.97449  -2678601.83147  21943111.660    21943118.075
  23621519.404     1100059.61049    859940.19245  23621518.663    23621527.586
  20993609.914    -2179668.86649  -1675147.23247  20993609.447    20993616.325
 02  7 13 15 30  0.0000000  0 11G26G22G23G15G 6G30G29G21G18G10G17
  22182543.015    -2702033.70249  -2078910.83146  22182543.145    22182551.279
  23471855.282    -2171183.20749  -1654820.61445  23471854.453    23471862.985
  20953178.469     -525571.28449   -395507.71748  20953178.076    20953184.929
  21381384.736    -2672317.14349  -1641563.88247  21381384.246    21381391.597
  20323489.837    -1019824.55849   -778040.04748  20323489.681    20323496.015
  24114255.181     1312250.56649   1025628.46845  24114255.418    24114264.539
  22654459.645    -2093334.39749  -1605566.80746  22654459.594    22654467.452
  24646748.586    -5346877.62349  -4121444.44045  24646748.161    24646759.006
  21927386.462    -3560134.58649  -2742995.52547  21927386.126    21927392.469
  23640981.364     1202332.40849    939633.18945  23640980.570    23640989.598
  20987631.206    -2211087.49949  -1699629.31347  20987630.706    20987637.580
 02  7 13 15 30 30.0000000  0 11G26G22G23G15G 6G30G29G21G18G10G17
  22173755.737    -2748211.86649  -2114893.77746  22173755.808    22173763.821
  23466522.977    -2199206.22449  -1676656.75445  23466521.935    23466530.487
  20960450.963     -487354.76049   -365728.63748  20960450.502    20960457.324
  21371936.891    -2721966.17549  -1680251.44347  21371936.356    21371943.732
  20327164.962    -1000511.96749   -762991.29748  20327164.796    20327171.105
  24134223.054     1417182.01649   1107393.12745  24134223.335    24134232.444
  22650199.672    -2115720.37849  -1623010.40546  22650199.634    22650207.463
  24628808.268    -5441154.88549  -4194907.24045  24628807.791    24628818.521
  21911726.682    -3642427.79449  -2807120.06947  21911726.327    21911732.604
  23660467.856     1304735.31049   1019427.58045  23660467.269    23660476.336
  20981687.904    -2242319.86249  -1723966.24147  20981687.400    20981694.285
 02  7 13 15 31  0.0000000  0 11G26G22G23G15G 6G30G29G21G18G10G17
  22165070.749    -2793851.85449  -2150457.36646  22165070.821    22165078.818
  23461293.693    -2226685.24849  -1698069.00245  23461292.825    23461301.471
  20967802.519     -448722.19949   -335625.37748  20967802.082    20967808.875
  21362527.565    -2771412.72349  -1718781.24547  21362527.010    21362534.360
  20330930.766     -980722.74549   -747571.15848  20330930.600    20330936.891
  24154190.588     1522111.87149   1189156.48145  24154190.822    24154200.072
  22646036.771    -2137596.49749  -1640056.70346  22646036.695    22646044.555
  24610895.515    -5535288.68649  -4268258.27345  24610894.902    24610905.483
  21896132.850    -3724374.49149  -2870974.62047  21896132.443    21896138.665
  23679978.819     1407265.29449   1099320.97245  23679978.192    23679987.202
  20975779.996    -2273366.44149  -1748158.40947  20975779.490    20975786.354
 02  7 13 15 31 30.0000000  0 11G26G22G23G15G 6G30G29G21G18G10G17
  22156488.799    -2838950.60749  -2185599.23446  22156488.892    22156496.817
  23456168.326    -2253619.30749  -1719056.60545  23456167.493    23456176.038
  20975232.992     -409674.92149   -305198.96348  20975232.618    20975239.389
  21353156.953    -2820656.05149  -1757152.65047  21353156.347    21353163.674
  20334787.422     -960455.99949   -731778.94048  20334787.250    20334793.536
  24174157.391     1627037.91549   1270916.87745  24174157.479    24174166.898
  22641971.290    -2158960.97049  -1656704.33646  22641971.209    22641979.052
  24593010.073    -5629276.53749  -4341495.54745  24593009.564    24593020.156
  21880605.264    -3805972.59149  -2934557.54147  21880604.852    21880611.013
  23699513.691     1509920.85849   1179312.21145  23699513.019    23699522.060
  20969907.562    -2304226.54249  -1772205.26447  20969907.075    20969913.906
 02  7 13 15 32  0.0000000  0 11G26G22G23G15G 6G30G29G21G18G10G17
  22148009.925    -2883507.31749  -2220318.71246  22148010.001    22148017.902
  23451146.570    -2280009.37549  -1739620.31645  23451145.799    23451154.220
  20982741.777     -370216.41249   -274452.09748  20982741.400    20982748.166
  21343824.769    -2869697.70149  -1795366.89447  21343824.088    21343831.411
  20338734.737     -939712.82949   -715615.47548  20338734.567    20338740.866
  24194122.733     1731955.77349   1352670.91545  24194122.618    24194132.211
  22638003.136    -2179814.10649  -1672953.51846  22638003.026    22638010.791
  24575152.604    -5723118.62949  -4414619.25745  24575151.937    24575162.592
  21865144.012    -3887222.27649  -2997868.97747  21865143.596    21865149.716
  23719071.314     1612697.83949   1259398.07945  23719070.889    23719079.952
  20964070.287    -2334902.06749  -1796108.29247  20964069.796    20964076.594
 02  7 13 15 32 30.0000000  0 11G26G22G23G15G 6G30G29G21G18G10G17
  22139635.085    -2927517.35349  -2254612.22946  22139635.170    22139643.050
  23446228.777    -2305852.72349  -1759758.02145  23446228.044    23446236.487
  20990328.974     -330346.29749   -243384.50848  20990328.518    20990335.237
  21334531.279    -2918535.33849  -1833422.19347  21334530.612    21334537.871
  20342773.239     -918490.65449   -699078.75548  20342773.041    20342779.351
  24214086.376     1836864.92449   1434418.17545  24214086.466    24214095.886
  22634132.992    -2200152.42749  -1688801.54246  22634132.816    22634140.481
  24557323.497    -5816811.44449  -4487626.62745  24557322.929    24557333.434
  21849749.732    -3968119.88549  -3060906.06547  21849749.263    21849755.424
  23738652.199     1715596.07549   1339578.40445  23738651.783    23738660.923
  20958268.603    -2365390.45649  -1819865.49347  20958268.103    20958274.883
 02  7 13 15 33  0.0000000  0 11G26G22G23G15G 6G30G29G21G18G10G17
  22131364.599    -2970978.82449  -2288478.26346  22131364.705    22131372.596
  23441414.972    -2331149.42249  -1779469.75445  23441414.336    23441422.777
  20997993.906     -290067.12349   -211998.16648  20997993.461    20998000.143
  21325276.439    -2967169.51849  -1871318.95147  21325275.859    21325283.096
  20346902.850     -896789.75149   -682168.99148  20346902.652    20346908.949
  24234047.850     1941761.91849   1516155.95845  24234047.838    24234057.252
  22630360.943    -2219974.92249  -1704247.63146  22630360.757    22630368.391
  24539522.811    -5910354.59249  -4560517.38445  24539522.422    24539532.435
  21834422.522    -4048664.39249  -3123667.99747  21834422.124    21834428.374
  23758255.940     1818612.44049   1419850.79245  23758255.242    23758264.439
  20952502.339    -2395692.48649  -1843477.47647  20952501.835    20952508.598
 02  7 13 15 33 30.0000000  0 11G26G22G23G15G 6G30G29G21G18G10G17
  22123199.066    -3013888.97749  -2321914.69046  22123199.168    22123207.018
  23436705.474    -2355898.65549  -1798754.84945  23436704.707    23436713.253
  21005736.338     -249380.39749   -180294.24047  21005735.941    21005742.577
  21316060.452    -3015599.58449  -1909056.64447  21316059.929    21316067.126
  20351123.726     -874609.30649   -664885.54348  20351123.530    20351129.799
  24254006.406     2046644.49649   1597882.56745  24254006.510    24254015.936
  22626687.286    -2239280.19649  -1719290.67646  22626687.140    22626694.651
  24521751.064    -6003745.78149  -4633289.69045  24521750.865    24521760.644
  21819162.920    -4128853.87949  -3186153.27247  21819162.548    21819168.857
  23777881.643     1921744.87149   1500213.64645  23777880.826    23777890.141
  20946771.649    -2425807.78949  -1866943.95447  20946771.122    20946777.881
 02  7 13 15 34  0.0000000  0 11G26G22G23G15G 6G30G29G21G18G10G17
  22115138.596    -3056247.08249  -2354920.99646  22115138.688    22115146.545
  23432099.987    -2380101.56649  -1817614.29345  23432098.966    23432107.526
  21013555.705     -208289.71849   -148275.57347  21013555.258    21013561.944
  21306883.075    -3063826.97449  -1946636.41047  21306882.532    21306889.772
  20355435.559     -851950.72549   -647229.55148  20355435.375    20355441.649
  24273961.496     2151508.44949   1679594.56245  24273961.625    24273971.127
  22623112.122    -2258068.34849  -1733930.79246  22623111.945    22623119.437
  24504008.214    -6096984.91149  -4705943.56645  24504008.058    24504017.921
  21803970.867    -4208688.51049  -3248362.05947  21803970.475    21803976.816
  23797528.586     2024989.60549   1580663.97045  23797527.734    23797537.145
  20941076.161    -2455737.89949  -1890266.14947  20941075.625    20941082.416
 02  7 13 15 34 30.0000000  0 11G26G22G23G15G 6G30G29G21G18G10G17
  22107183.943    -3098049.23749  -2387494.06146  22107183.995    22107191.900
  23427598.352    -2403756.21749  -1836046.49045  23427597.711    23427606.242
  21021451.859     -166795.31749   -115942.30247  21021451.432    21021458.157
  21297744.582    -3111850.50149  -1984057.34647  21297743.979    21297751.252
  20359838.784     -828812.08449   -629199.48048  20359838.587    20359844.897
  24293912.815     2256352.33749   1761290.97945  24293912.894    24293922.281
  22619635.795    -2276336.83849  -1748165.96246  22619635.642    22619643.073
  24486294.858    -6190069.54749  -4778477.00445  24486294.721    24486304.569
  21788846.926    -4288165.34249  -3310292.04147  21788846.555    21788852.905
  23817196.646     2128345.71749   1661201.09745  23817195.798    23817205.318
  20935416.253    -2485481.30149  -1913442.84847  20935415.693    20935422.500
 02  7 13 15 35  0.0000000  0 11G26G22G23G15G 6G30G29G21G18G10G17
  22099335.564    -3139293.02449  -2419632.05046  22099335.618    22099343.504
  23423201.239    -2426862.07349  -1854051.07445  23423200.866    23423209.398
  21029424.494     -124899.06449    -83295.90347  21029424.053    21029430.805
  21288644.915    -3159669.38449  -2021318.79747  21288644.358    21288651.656
  20364333.406     -805192.92249   -610794.96748  20364333.205    20364339.549
  24313859.605     2361173.78349   1842969.88745  24313859.755    24313869.541
  22616258.623    -2294084.30949  -1761995.15146  22616258.420    22616265.847
  24468611.088    -6282997.78549  -4850888.59145  24468610.974    24468620.817
  21773791.419    -4367282.60649  -3371941.83947  21773791.048    21773797.408
  23836885.440     2231810.85649   1741823.18045  23836884.648    23836894.238
  20929791.889    -2515037.81149  -1936473.92447  20929791.337    20929798.125
 02  7 13 15 35 30.0000000  0 11G26G22G23G15G 6G30G29G21G18G10G17
  22091593.838    -3179976.39949  -2451333.35046  22091593.858    22091601.784
  23418908.966    -2449419.24449  -1871628.10745  23418908.457    23418916.953
  21037473.081      -82603.31649    -50338.19847  21037472.651    21037479.449
  21279584.179    -3207283.99849  -2058421.09447  21279583.580    21279590.912
  20368919.456     -781093.37649   -592016.14148  20368919.251    20368925.627
  24333801.677     2465969.58349   1924628.80745  24333801.810    24333811.662
  22612980.633    -2311309.98749  -1775417.74546  22612980.430    22612987.892
  24450957.074    -6375768.72249  -4923177.58145  24450956.985    24450967.072
  21758804.558    -4446039.56649  -3433310.87547  21758804.143    21758810.501
  23856594.405     2335382.26549   1822528.07845  23856593.734    23856603.354
  20924202.980    -2544407.84349  -1959359.68547  20924202.436    20924209.245
 02  7 13 15 36  0.0000000  0 11G26G22G23G15G 6G30G29G21G18G10G17
  22083958.878    -3220098.29449  -2482597.13246  22083958.943    22083966.832
  23414721.106    -2471428.09249  -1888777.88645  23414720.436    23414728.849
  21045597.245      -39910.89549    -17071.41247  21045596.786    21045603.631
  21270562.152    -3254695.11049  -2095364.82947  21270561.587    21270568.925
  20373596.763     -756514.17449   -572863.55148  20373596.552    20373602.952
  24353738.109     2570736.03149   2006264.86945  24353738.378    24353748.128
  22609801.972    -2328013.71349  -1788433.62846  22609801.850    22609809.309
  24433333.280    -6468382.20949  -4995343.87745  24433333.126    24433343.391
  21743886.315    -4524435.63649  -3494398.69947  21743885.891    21743892.236
  23876323.226     2439056.73249   1903313.26245  23876322.396    23876332.105
  20918649.378    -2573592.46549  -1982100.96547  20918648.811    20918655.626
 02  7 13 15 36 30.0000000  0 11G26G22G23G15G 6G30G29G21G18G10G17
  22076431.319    -3259655.86849  -2513421.18246  22076431.394    22076439.282
  23410637.494    -2492888.00449  -1905499.91945  23410636.843    23410645.140
  21053796.581        3176.66649     16503.28647  21053796.130    21053803.014
  21261579.001    -3301902.07549  -2132149.51847  21261578.415    21261585.741
  20378365.483     -731454.51049   -553336.57548  20378365.271    20378371.697
  24373668.826     2675470.94849   2087876.36045  24373668.950    24373678.738
  22606723.020    -2344193.76949  -1801041.44246  22606722.892    22606730.403
  24415739.644    -6560836.14949  -5067385.85345  24415739.396    24415749.850
  21729037.115    -4602468.86349  -3555203.78147  21729036.691    21729043.027
  23896071.299     2542832.39549   1984177.31445  23896070.424    23896080.074
  20913131.129    -2602591.04549  -2004697.28747  20913130.571    20913137.419
 02  7 13 15 37  0.0000000  0 11G26G22G23G15G 6G30G29G21G18G10G17
  22069011.668    -3298646.28349  -2543803.29746  22069011.721    22069019.600
  23406658.528    -2513798.12349  -1921793.55945  23406657.908    23406666.189
  21062070.918       46658.16049     50384.94247  21062070.462    21062077.338
  21252634.857    -3348904.20249  -2168774.57047  21252634.267    21252641.562
  20383225.818     -705913.65549   -533434.65048  20383225.596    20383232.007
  24393593.040     2780172.28749   2169461.69345  24393593.186    24393602.895
  22603744.011    -2359848.36749  -1813239.83146  22603743.884    22603751.482
  24398177.021    -6653128.45249  -5139301.90045  24398176.734    24398187.290
  21714257.445    -4680137.04949  -3615724.42547  21714256.982    21714263.278
  23915838.314     2646707.43849   2065118.79545  23915837.220    23915846.845
  20907648.480    -2631402.86449  -2027148.09847  20907647.886    20907654.750
 02  7 13 15 37 30.0000000  0 11G26G22G23G15G 6G30G29G21G18G10G17
  22061700.395    -3337067.58949  -2573741.96046  22061700.393    22061708.247
  23402784.171    -2534158.22449  -1937658.60245  23402783.470    23402791.878
  21070419.791       90531.16549     84571.67347  21070419.262    21070426.144
  21243729.672    -3395701.44149  -2205239.96447  21243729.052    21243736.361
  20388177.719     -679891.63449   -513157.77948  20388177.488    20388183.858
  24413510.265     2884837.09049   2251018.54845  24413510.348    24413520.042
  22600865.174    -2374976.74149  -1825028.16546  22600865.037    22600872.648
  24380645.135    -6745258.47649  -5211091.49045  24380644.831    24380655.293
  21699547.408    -4757439.20049  -3675959.85147  21699546.906    21699553.167
  23935623.580     2750679.27949   2146135.70745  23935622.403    23935632.082
  20902201.254    -2660028.15949  -2049453.54247  20902200.698    20902207.586
 02  7 13 15 38  0.0000000  0 11G26G22G23G15G 6G30G29G21G18G10G17
  22054497.791    -3374917.26549  -2603235.19946  22054497.829    22054505.672
  23399014.744    -2553967.77949  -1953094.65445  23399013.860    23399022.302
  21078842.804      134794.14149    119062.27547  21078842.261    21078849.155
  21234863.519    -3442293.50849  -2241545.49747  21234862.920    21234870.256
  20393221.326     -653387.72849   -492505.42448  20393221.107    20393227.410
  24433419.937     2989462.97749   2332545.08745  24433420.086    24433429.557
  22598086.789    -2389577.30849  -1836405.22346  22598086.630    22598094.281
  24363144.471    -6837224.42649  -5282753.22045  24363144.107    24363154.666
  21684907.257    -4834373.66249  -3735908.76347  21684906.751    21684912.996
  23955426.857     2854746.08249   2227226.64045  23955425.844    23955435.445
  20896789.607    -2688466.61849  -2071613.40447  20896789.044    20896795.935
 02  7 13 15 38 30.0000000  0 11G26G22G23G15G 6G30G29G21G18G10G17
  22047404.264    -3412193.87849  -2632281.89746  22047404.270    22047412.088
  23395349.666    -2573227.40349  -1968102.19245  23395348.856    23395357.335
  21087339.473      179444.28449    153854.56347  21087338.949    21087345.869
  21226036.374    -3488680.96549  -2277691.57247  21226035.701    21226043.020
  20398356.540     -626402.63749   -471478.12448  20398356.302    20398362.559
  24453321.963     3094046.53349   2414038.63645  24453321.986    24453331.285
  22595408.809    -2403649.98049  -1847370.94346  22595408.684    22595416.253
  24345674.921    -6929025.79349  -5354286.69145  24345674.581    24345685.363
  21670337.156    -4910939.77049  -3795570.64947  21670336.678    21670342.945
  23975247.562     2958904.59849   2308389.00445  23975246.642    23975256.283
  20891413.371    -2716719.03849  -2093628.30147  20891412.826    20891419.715
 02  7 13 15 39  0.0000000  0 11G26G22G23G15G 6G30G29G21G18G10G17
  22040420.282    -3448894.90349  -2660880.08746  22040420.344    22040428.094
  23391789.679    -2591936.31949  -1982680.59045  23391788.761    23391797.121
  21095909.601      224480.06949    188947.35047  21095908.996    21095915.940
  21217248.273    -3534863.01249  -2313677.56447  21217247.595    21217254.895
  20403583.362     -598935.76049   -450075.40348  20403583.143    20403589.394
  24473215.188     3198585.54349   2495497.45545  24473215.416    24473224.652
  22592831.634    -2417193.30349  -1857924.16746  22592831.488    22592839.049
  24328237.226    -7020660.10049  -5425689.98045  24328237.032    24328247.769
  21655837.521    -4987135.59349  -3854943.99647  21655837.086    21655843.396
  23995085.512     3063152.95949   2389621.37045  23995084.608    23995094.238
  20886072.674    -2744784.79549  -2115497.73747  20886072.113    20886079.042
 02  7 13 15 39 30.0000000  0 11G26G22G23G15G 6G30G29G21G18G10G17
  22033546.307    -3485018.24249  -2689028.13146  22033546.304    22033554.056
  23388334.281    -2610094.45749  -1996829.82545  23388333.434    23388341.735
  21104552.792      269899.36849    224338.97647  21104552.062    21104558.974
  21208499.302    -3580839.90349  -2349503.71747  21208498.532    21208505.802
  20408901.822     -570987.21049   -428297.35148  20408901.591    20408907.882
  24493099.456     3303077.26949   2576919.43845  24493099.530    24493108.989
  22590355.434    -2430206.33749  -1868064.19346  22590355.222    22590362.768
  24310832.014    -7112126.40349  -5496962.39245  24310831.561    24310842.331
  21641408.564    -5062959.91149  -3914027.85747  21641408.125    21641414.465
  24014940.141     3167488.87149   2470921.96245  24014939.363    24014948.845
  20880767.488    -2772663.95949  -2137221.78047  20880766.916    20880773.872
 02  7 13 15 40  0.0000000  0 11G26G22G23G15G 6G30G29G21G18G10G17
  22026782.438    -3520562.53849  -2716724.97646  22026782.446    22026790.232
  23384983.623    -2627702.27549  -2010550.22845  23384982.713    23384991.146
  21113268.350      315699.53049    260027.37847  21113267.599    21113274.494
  21199789.159    -3626611.77749  -2385170.13647  21199788.462    21199795.698
  20414311.872     -542557.33849   -406144.23848  20414311.626    20414317.962
  24512974.043     3407518.45349   2658302.04945  24512974.260    24512983.519
  22587980.113    -2442688.48949  -1877790.53946  22587979.937    22587987.430
  24293458.535    -7203423.88549  -5568103.23545  24293458.338    24293469.018
  21627050.426    -5138412.13449  -3972821.78347  21627050.005    21627056.325
  24034810.715     3271909.61949   2552288.68745  24034809.987    24034819.564
  20875497.720    -2800356.85649  -2158800.67947  20875497.164    20875504.122
 02  7 13 15 40 30.0000000  0 11G26G22G23G15G 6G30G29G21G18G10G17
  22020129.350    -3555524.55549  -2743968.09746  22020129.352    22020137.226
  23381737.601    -2644758.63549  -2023840.93045  23381736.991    23381745.532
  21122056.135      361879.73649    296011.92047  21122055.415    21122062.319
  21191118.342    -3672177.54249  -2420675.94247  21191117.604    21191124.827
  20419813.753     -513644.79549   -383615.01948  20419813.507    20419819.869
  24532838.922     3511907.56449   2739644.08145  24532839.009    24532848.131
  22585706.254    -2454637.97049  -1887101.81846  22585706.031    22585713.525
  24276118.042    -7294550.47149  -5639110.93245  24276117.533    24276128.138
  21612763.636    -5213489.71849  -4031323.76647  21612763.216    21612769.501
  24054697.124     3376413.84249   2633720.42745  24054696.540    24054706.320
  20870263.555    -2827862.82449  -2180233.92147  20870262.978    20870269.938
 02  7 13 15 41  0.0000000  0 11G26G22G23G15G 6G30G29G21G18G10G17
  22013587.043    -3589904.76349  -2770757.86246  22013587.031    22013594.859
  23378596.654    -2661265.68049  -2036703.59045  23378595.825    23378604.403
  21130915.448      408435.58149    332289.16547  21130914.722    21130921.628
  21182486.260    -3717539.41849  -2456022.84947  21182485.550    21182492.767
  20425407.081     -484251.84249   -360711.45048  20425406.855    20425413.217
  24552692.837     3616239.43549   2820941.48445  24552692.864    24552701.915
  22583533.521    -2466056.08449  -1895999.04346  22583533.305    22583540.738
  24258809.848    -7385507.03449  -5709986.12945  24258809.246    24258819.759
  21598547.932    -5288193.70949  -4089534.64547  21598547.517    21598553.738
  24074598.826     3480996.96949   2715213.67045  24074598.093    24074607.893
  20865064.559    -2855183.93349  -2201523.11347  20865063.977    20865070.927
 02  7 13 15 41 30.0000000  0 11G26G22G23G15G 6G30G29G21G18G10G17
  22007156.322    -3623698.69349  -2797090.77746  22007156.273    22007164.059
  23375560.402    -2677221.01249  -2049136.36945  23375559.577    23375568.239
  21139846.364      455367.44949    368859.41847  21139845.619    21139852.492
  21173893.531    -3762694.89949  -2491208.93747  21173892.779    21173899.991
  20431092.280     -454376.04649   -337431.64048  20431092.049    20431098.438
  24572535.820     3720513.87149   2902194.16245  24572535.917    24572544.864
  22581462.487    -2476939.70049  -1904479.77646  22581462.229    22581469.666
  24241534.444    -7476289.75149  -5780725.84945  24241533.845    24241544.255
  21584404.040    -5362520.53349  -4147451.62747  21584403.608    21584409.757
  24094515.608     3585659.07449   2796768.45145  24094514.794    24094524.549
  20859901.206    -2882317.78149  -2222666.40547  20859900.641    20859907.606
 02  7 13 15 42  0.0000000  0 11G26G22G23G15G 6G30G29G21G18G10G17
  22000837.420    -3656904.69849  -2822965.57546  22000837.397    22000845.157
  23372629.283    -2692624.78749  -2061139.35245  23372628.396    23372637.025
  21148848.401      502673.09849    405720.93047  21148847.647    21148854.501
  21165339.940    -3807643.80449  -2526234.06047  21165339.280    21165346.469
  20436869.270     -424017.74249   -313775.85547  20436869.030    20436875.455
  24592367.123     3824727.98249   2983399.82145  24592367.418    24592376.306
  22579493.178    -2487288.24749  -1912543.57946  22579492.982    22579500.453
  24224292.254    -7566897.50349  -5851329.24745  24224291.811    24224302.148
  21570332.107    -5436469.16049  -4205073.91247  21570331.640    21570337.730
  24114447.110     3690397.81749   2878382.92945  24114445.976    24114455.788
  20854773.476    -2909264.57249  -2243663.93247  20854772.881    20854779.856
 02  7 13 15 42 30.0000000  0 11G26G22G23G15G 6G30G29G21G18G10G17
  21994630.519    -3689522.17149  -2848381.78046  21994630.554    21994638.286
  23369802.935    -2707478.33349  -2072713.60145  23369801.962    23369810.565
  21157920.849      550348.96849    442870.92547  21157920.117    21157926.966
  21156825.469    -3852387.74149  -2561099.45447  21156824.775    21156831.996
  20442737.850     -393178.39349   -289745.22347  20442737.607    20442744.052
  24612186.342     3928877.76949   3064555.34745  24612186.518    24612195.689
  22577625.629    -2497101.93749  -1920190.60846  22577625.455    22577632.964
  24207083.512    -7657330.67549  -5921796.60645  24207083.015    24207093.220
  21556332.080    -5510039.88249  -4262401.73247  21556331.612    21556337.643
  24134392.493     3795209.23249   2960054.05345  24134391.248    24134400.831
  20849681.087    -2936025.59549  -2264516.69247  20849680.506    20849687.443
 02  7 13 15 43  0.0000000  0 11G26G22G23G15G 6G30G29G21G18G10G17
  21988536.571    -3721546.13749  -2873335.50946  21988536.633    21988544.321
  23367081.625    -2721778.71449  -2083856.79645  23367080.717    23367089.411
  21167063.882      598396.13149    480310.23547  21167063.207    21167070.064
  21148350.673    -3896923.28749  -2595802.48347  21148350.002    21148357.199
  20448698.506     -361854.94549   -265337.37447  20448698.261    20448704.719
  24631993.285     4032963.66349   3145661.12645  24631993.565    24632002.492
  22575860.692    -2506376.99349  -1927417.93346  22575860.487    22575868.009
  24189908.709    -7747584.88149  -5992124.51345  24189908.225    24189918.354
  21542404.899    -5583228.00049  -4319431.41247  21542404.414    21542410.449
  24154351.519     3900094.23149   3041782.52045  24154350.261    24154359.820
  20844624.636    -2962597.75549  -2285222.28747  20844624.057    20844630.940
 02  7 13 15 43 30.0000000  0 11G26G22G23G15G 6G30G29G21G18G10G17
  21982555.612    -3752976.69149  -2897826.85246  21982555.673    21982563.278
  23364464.953    -2735527.80149  -2094570.42345  23364464.358    23364473.087
  21176276.864      646810.60049    518035.76347  21176276.239    21176283.088
  21139915.221    -3941252.16749  -2630344.45047  21139914.512    21139921.715
  20454750.973     -330049.21749   -240553.73247  20454750.731    20454757.193
  24651787.188     4136981.25449   3226713.64645  24651787.622    24651796.504
  22574197.928    -2515114.75649  -1934226.57846  22574197.748    22574205.264
  24172767.942    -7837660.75849  -6062313.47545  24172767.591    24172777.470
  21528550.309    -5656034.36449  -4376163.62147  21528549.805    21528555.875
  24174323.661     4005048.61749   3123565.03245  24174322.564    24174332.184
  20839603.722    -2988982.76649  -2305782.05847  20839603.173    20839610.036
 02  7 13 15 44  0.0000000  0 11G26G22G23G15G 6G30G29G21G18G10G17
  21976687.955    -3783811.56749  -2921854.01046  21976688.005    21976695.544
  23361953.749    -2748725.26549  -2104854.22245  23361953.066    23361961.711
  21185559.413      695590.76049    556046.24847  21185558.823    21185565.661
  21131519.194    -3985373.85449  -2664724.97447  21131518.444    21131525.645
  20460895.303     -297760.89349   -215394.03747  20460895.057    20460901.519
  24671567.734     4240928.10549   3307711.05445  24671568.029    24671577.043
  22572637.708    -2523313.85549  -1940615.49146  22572637.558    22572645.035
  24155661.443    -7927556.56749  -6132362.07545  24155661.034    24155670.752
  21514768.617    -5728457.53049  -4432597.23947  21514768.136    21514774.212
  24194308.687     4110070.83749   3205400.46445  24194307.669    24194317.347
  20834618.517    -3015180.46349  -2326195.88147  20834617.964    20834624.825
 02  7 13 15 44 30.0000000  0 11G26G22G23G15G 6G30G29G21G18G10G17
  21970933.914    -3814049.46549  -2945415.99946  21970933.949    21970941.490
  23359547.306    -2761371.90249  -2114708.77345  23359546.572    23359555.099
  21194911.013      744733.81549    594339.50647  21194910.449    21194917.326
  21123162.345    -4029288.96249  -2698944.52947  21123161.640    21123168.872
  20467131.337     -264990.64249   -189858.80447  20467131.090    20467137.528
  24691333.903     4344800.98749   3388650.83745  24691334.076    24691343.675
  22571180.049    -2530974.30849  -1946584.69046  22571179.857    22571187.296
  24138589.218    -8017271.73749  -6202269.95145  24138588.803    24138598.665
  21501060.022    -5800496.75849  -4488731.68647  21501059.516    21501065.641
  24214306.096     4215157.77549   3287286.27945  24214305.275    24214314.997
  20829668.893    -3041191.28349  -2346464.08547  20829668.321    20829675.189
 02  7 13 15 45  0.0000000  0 11G26G22G23G15G 6G30G29G21G18G10G17
  21965293.812    -3843688.36949  -2968511.23646  21965293.883    21965301.428
  23357245.606    -2773467.22149  -2124133.73445  23357245.006    23357253.452
  21204331.396      794238.04349    632914.19347  21204330.837    21204337.717
  21114844.998    -4072997.01749  -2733002.73947  21114844.327    21114851.517
  20473459.142     -231738.05949   -163947.73347  20473458.889    20473465.320
  24711085.827     4448597.68949   3469531.25345  24711086.001    24711095.681
  22569825.110    -2538094.87249  -1952133.18146  22569824.925    22569832.329
  24121551.557    -8106804.65849  -6272035.81545  24121551.148    24121561.026
  21487424.718    -5872150.67549  -4544565.88747  21487424.216    21487430.364
  24234315.522     4320307.65849   3369221.15945  24234314.593    24234324.396
  20824754.860    -3067014.72149  -2366586.26047  20824754.322    20824761.185
 02  7 13 15 45 30.0000000  0 11G26G22G23G15G 6G30G29G21G18G10G17
  21959768.146    -3872726.02949  -2991137.98646  21959768.159    21959775.724
  23355049.057    -2785011.06549  -2133128.98245  23355048.317    23355056.675
  21213820.198      844101.68349    671768.94847  21213819.638    21213826.500
  21106567.199    -4116497.25649  -2766899.01747  21106566.528    21106573.702
  20479878.767     -198002.94449   -137660.66947  20479878.525    20479884.939
  24730822.772     4552316.11349   3550350.67345  24730822.947    24730832.807
  22568573.090    -2544674.52549  -1957260.18146  22568572.892    22568580.229
  24104549.069    -8196153.36349  -6341658.15145  24104548.608    24104558.581
  21473863.047    -5943417.51049  -4600098.46047  21473862.564    21473868.725
  24254336.688     4425518.72949   3451203.72245  24254335.693    24254345.461
  20819876.596    -3092650.28049  -2386562.03547  20819876.050    20819882.914
 02  7 13 15 46  0.0000000  0 11G26G22G23G15G 6G30G29G21G18G10G17
  21954356.971    -3901161.99249  -3013295.86846  21954356.935    21954364.526
  23352957.060    -2796004.86849  -2141695.60545  23352956.305    23352964.769
  21223376.720      894321.48049    710901.22747  21223376.192    21223383.056
  21098328.680    -4159790.91049  -2800634.33347  21098328.002    21098335.163
  20486389.959     -163786.76849   -110998.75847  20486389.697    20486396.120
  24750544.020     4655952.25149   3631105.98445  24750544.325    24750554.296
  22567423.865    -2550713.89249  -1961966.19246  22567423.628    22567430.992
  24087581.442    -8285318.37849  -6411137.32945  24087581.065    24087591.089
  21460375.132    -6014297.41549  -4655329.53947  21460374.612    21460380.749
  24274368.683     4530787.47849   3533231.21545  24274367.705    24274377.575
  20815033.851    -3118099.16349  -2406392.34447  20815033.312    20815040.176
 02  7 13 15 46 30.0000000  0 11G26G22G23G15G 6G30G29G21G18G10G17
  21949060.962    -3928992.49349  -3034981.96046  21949060.981    21949068.512
  23350969.813    -2806446.85449  -2149832.24445  23350969.230    23350977.809
  21233000.958      944897.33449    750310.95247  21233000.500    21233007.389
  21090129.950    -4202875.59249  -2834206.81947  21090129.297    21090136.463
  20492993.090     -129087.46149    -83960.37047  20492992.826    20492999.230
  24770249.677     4759505.56449   3711796.75445  24770249.812    24770260.015
  22566377.965    -2556210.17049  -1966249.00846  22566377.702    22566385.127
  24070649.527    -8374296.10249  -6480470.55945  24070649.117    24070659.251
  21446961.393    -6084787.12649  -4710256.56347  21446960.858    21446966.968
  24294411.493     4636113.91349   3615303.65645  24294410.709    24294420.628
  20810227.094    -3143359.29249  -2426075.56747  20810226.530    20810233.392
 02  7 13 15 47  0.0000000  0 11G26G22G23G15G 6G30G29G21G18G10G17
  21943880.360    -3956216.62749  -3056195.55746  21943880.418    21943887.917
  23349088.054    -2816337.88649  -2157539.57045  23349087.103    23349095.650
  21242692.428      995826.34749    789995.86447  21242691.980    21242698.874
  21081970.899    -4245752.00349  -2867617.02747  21081970.166    21081977.369
  20499687.934      -93906.05549    -56546.33747  20499687.642    20499694.082
  24789939.001     4862972.71049   3792420.34945  24789939.182    24789949.318
  22565435.371    -2561163.55449  -1970108.79446  22565435.114    22565442.557
  24053753.300    -8463086.30749  -6549657.66745  24053752.873    24053762.962
  21433621.846    -6154886.66349  -4764879.56347  21433621.363    21433627.457
  24314464.864     4741494.77349   3697418.51545  24314464.097    24314474.070
  20805456.037    -3168431.44449  -2445612.32147  20805455.493    20805462.337
 02  7 13 15 47 30.0000000  0 12G26G22G23G15G 6G30G29G21G18G10G17G 2
  21938814.456    -3982838.05249  -3076939.50046  21938814.485    21938822.022
  23347309.564    -2825683.57249  -2164821.94945  23347308.794    23347317.139
  21252449.735     1047101.06449    829950.15747  21252449.275    21252456.197
  21073850.445    -4288425.14349  -2900868.82647  21073849.767    21073856.943
  20506473.416      -58248.14049    -28760.99347  20506473.154    20506479.606
  24809610.516     4966345.95549   3872970.79945  24809610.554    24809620.735
  22564595.207    -2565579.04249  -1973549.44046  22564594.966    22564602.324
  24036892.162    -8551693.24949  -6618701.96245  24036891.586    24036901.686
  21420355.833    -6224599.93549  -4819201.58447  21420355.367    21420361.490
  24334527.290     4846922.58149   3779569.94745  24334526.428    24334536.357
  20800719.843    -3193320.68749  -2465006.54547  20800719.272    20800726.136
  25241525.811    -2055244.21249  -1248376.53545  25241524.895    25241534.228
 02  7 13 15 48  0.0000000  0 12G26G22G23G15G 6G30G29G21G18G10G17G 2
  21933864.468    -4008850.11049  -3097208.63046  21933864.541    21933872.062
  23345635.949    -2834479.00349  -2171675.54845  23345634.964    23345643.475
  21262273.464     1098724.60049    870176.25447  21262272.945    21262279.864
  21065769.715    -4330889.86249  -2933958.21047  21065769.012    21065776.201
  20513350.542      -22108.67749      -600.41347  20513350.283    20513356.745
  24829264.251     5069627.57449   3953449.86145  24829264.368    24829274.668
  22563858.425    -2569450.66849  -1976566.29046  22563858.196    22563865.575
  24020066.938    -8640110.15449  -6687598.18345  24020066.444    24020076.383
  21407164.528    -6293920.83349  -4873217.84547  21407164.049    21407170.138
  24354599.219     4952400.50449   3861760.41445  24354598.332    24354608.241
  20796019.320    -3218022.06149  -2484254.37247  20796018.746    20796025.613
  25231524.218    -2107804.22149  -1289332.42445  25231523.171    25231532.581
 02  7 13 15 48 30.0000000  0 11G26G22G23G15G 6G29G21G18G10G17G 2
  21929031.662    -4034246.99049  -3116998.36946  21929031.677    21929039.202
  23344067.731    -2842720.32749  -2178097.39845  23344066.808    23344075.232
  21272163.934     1150699.04049    910675.78147  21272163.378    21272170.299
  21057729.471    -4373141.66549  -2966881.69047  21057728.778    21057735.972
  20520320.140       14516.45049     27938.60047  20520319.878    20520326.358
  22563226.117    -2572773.72549  -1979155.70746  22563225.874    22563233.304
  24003278.830    -8728331.80549  -6756342.25845  24003278.256    24003288.243
  21394048.932    -6362844.02649  -4926924.21147  21394048.428    21394054.489
  24374681.161     5057930.48449   3943991.45345  24374680.070    24374689.953
  20791355.410    -3242531.14749  -2503352.37547  20791354.855    20791361.710
  25221596.982    -2159970.87549  -1329981.80545  25221595.743    25221605.596
 02  7 13 15 49  0.0000000  0 11G26G22G23G15G 6G29G21G18G10G17G 2
  21924315.340    -4059031.43249  -3136310.88946  21924315.352    21924322.868
  23342604.278    -2850412.21149  -2184091.10545  23342603.222    23342611.560
  21282119.894     1203017.75349    951443.57347  21282119.305    21282126.270
  21049728.924    -4415184.96349  -2999642.69347  21049728.207    21049735.405
  20527381.218       51622.49349     56852.35547  20527380.940    20527387.451
  22562697.433    -2575552.04349  -1981320.64046  22562697.190    22562704.621
  23986527.194    -8816361.61749  -6824936.83845  23986526.793    23986536.635
  21381008.319    -6431372.68249  -4980323.14647  21381007.806    21381013.907
  24394771.688     5163505.95349   4026257.95345  24394770.532    24394780.366
  20786727.282    -3266852.37149  -2522304.00047  20786726.689    20786733.577
  25211744.432    -2211747.34149  -1370327.15344  25211742.863    25211752.594
 02  7 13 15 49 30.0000000  0 11G26G22G23G15G 6G29G21G18G10G17G 2
  21919716.048    -4083200.99149  -3155144.28746  21919716.056    21919723.580
  23341245.042    -2857554.07049  -2189656.21345  23341244.273    23341252.600
  21292141.141     1255679.57749    992478.72547  21292140.548    21292147.515
  21041768.251    -4457018.57249  -3032240.29247  21041767.567    21041774.740
  20534533.968       89210.16249     86141.40947  20534533.698    20534540.222
  22562272.586    -2577784.35949  -1983060.12146  22562272.384    22562279.847
  23969812.382    -8904197.50549  -6893380.32145  23969811.985    23969821.869
  21368043.246    -6499504.83549  -5033413.11847  21368042.702    21368048.801
  24414870.368     5269125.69049   4108558.96345  24414869.358    24414879.341
  20782135.136    -3290984.39849  -2541108.20547  20782134.567    20782141.427
  25201966.500    -2263131.35149  -1410366.69744  25201964.913    25201974.247
 02  7 13 15 50  0.0000000  0 11G26G22G23G15G 6G29G21G18G10G17G 2
  21915233.919    -4106754.82749  -3173497.89946  21915233.889    21915241.415
  23339990.483    -2864146.95749  -2194793.55345  23339989.541    23339998.047
  21302227.152     1308681.64249   1033778.99947  21302226.535    21302233.518
  21033847.415    -4498642.99349  -3064674.89747  21033846.701    21033853.872
  20541778.173      127278.45449    115804.97347  20541777.893    20541784.422
  22561951.763    -2579470.57149  -1984374.06246  22561951.556    22561959.045
  23953134.618    -8991839.45049  -6961672.70845  23953134.181    23953143.974
  21355153.604    -6567240.27549  -5086193.96447  21355153.075    21355159.160
  24434977.030     5374787.01149   4190892.34445  24434975.988    24434986.212
  20777578.928    -3314927.88049  -2559765.48147  20777578.292    20777585.198
  25192263.397    -2314122.29949  -1450099.92544  25192261.899    25192271.229
 02  7 13 15 50 30.0000000  0 11G26G22G23G15G 6G29G21G18G10G17G 2
  21910868.917    -4129693.05649  -3191371.82246  21910868.871    21910876.384
  23338840.048    -2870192.79749  -2199504.61645  23338839.098    23338847.598
  21312377.248     1362020.30949   1075341.55247  21312376.589    21312383.575
  21025966.129    -4540059.50249  -3096947.51347  21025965.437    21025972.563
  20549113.500      165825.65049    145841.70447  20549113.225    20549119.748
  22561734.604    -2580611.90349  -1985263.42046  22561734.436    22561741.866
  23936493.962    -9079287.20649  -7029813.76445  23936493.450    23936503.106
  21342339.423    -6634579.40049  -5138665.99447  21342338.876    21342344.957
  24455090.872     5480486.06049   4273255.11045  24455090.013    24455100.239
  20773058.161    -3338684.28149  -2578276.96847  20773057.611    20773064.536
  25182634.930    -2364720.46749  -1489527.10744  25182633.665    25182642.766
 02  7 13 15 51  0.0000000  0 11G26G22G23G15G 6G29G21G18G10G17G 2
  21906621.826    -4152011.80949  -3208763.03246  21906621.781    21906629.271
  23337793.877    -2875689.42349  -2203787.74545  23337793.162    23337801.659
  21322591.313     1415695.67449   1117166.46647  21322590.718    21322597.719
  21018124.820    -4581265.79649  -3129056.31547  21018124.135    21018131.288
  20556540.395      204853.82949    176253.22847  20556540.123    20556546.656
  22561621.634    -2581205.81349  -1985726.21246  22561621.444    22561628.895
  23919890.936    -9166537.57749  -7097801.00845  23919890.234    23919899.890
  21329601.214    -6701518.96149  -5190826.66947  21329600.685    21329606.775
  24475212.260     5586223.24949   4355647.65545  24475211.303    24475221.483
  20768573.505    -3362251.32249  -2596640.89447  20768572.986    20768579.926
  25173081.704    -2414922.18749  -1528645.35544  25173080.718    25173090.198
 02  7 13 15 51 30.0000000  0 11G26G22G23G15G 6G29G21G18G10G17G 2
  21902492.819    -4173710.03549  -3225670.71046  21902492.750    21902500.242
  23336852.274    -2880637.98449  -2207643.79245  23336851.464    23336860.095
  21332869.050     1469705.36049   1159251.89047  21332868.462    21332875.448
  21010323.549    -4622261.95449  -3161001.38147  21010322.846    21010330.020
  20564058.639      244362.27049    207038.98247  20564058.369    20564064.914
  22561612.866    -2581251.97049  -1985762.18846  22561612.671    22561620.135
  23903325.453    -9253589.80849  -7165633.85345  23903324.873    23903334.439
  21316939.123    -6768058.36449  -5242675.53347  21316938.661    21316944.777
  24495340.518     5691996.08849   4438067.88945  24495339.360    24495349.525
  20764124.874    -3385629.02549  -2614857.30847  20764124.366    20764131.309
  25163603.587    -2464726.60549  -1567454.00744  25163603.292    25163612.641
 02  7 13 15 52  0.0000000  0 11G26G22G23G15G 6G29G21G18G10G17G 2
  21898482.150    -4194785.92649  -3242093.44346  21898482.097    21898489.643
  23336014.897    -2885038.34449  -2211072.68145  23336014.133    23336022.810
  21343210.075     1524047.42749   1201596.31347  21343209.493    21343216.485
  21002562.372    -4663047.33049  -3192782.19047  21002561.659    21002568.848
  20571668.282      284350.90649    238198.92447  20571668.010    20571674.580
  22561708.409    -2580749.88149  -1985370.95346  22561708.215    22561715.724
  23886797.921    -9340442.45449  -7233311.17545  23886797.444    23886806.969
  21304353.471    -6834196.18149  -5294211.46347  21304353.033    21304359.183
  24515475.042     5797802.71448   4520514.53645  24515473.921    24515483.982
  20759712.392    -3408817.16249  -2632926.02247  20759711.830    20759718.797
  25154201.682    -2514132.35849  -1605952.04544  25154201.510    25154211.305
 02  7 13 15 52 30.0000000  0 11G26G22G23G15G 6G29G21G18G10G17G 2
  21894590.089    -4215238.80749  -3258030.73746  21894590.061    21894597.593
  23335281.944    -2888891.61249  -2214075.25545  23335280.911    23335289.647
  21353613.801     1578719.21049   1244197.65047  21353613.221    21353620.234
  20994841.299    -4703622.44649  -3224399.18747  20994840.514    20994847.684
  20579369.135      324818.87149    269732.35447  20579368.859    20579375.451
  22561908.309    -2579699.63249  -1984552.60546  22561908.096    22561915.612
  23870308.621    -9427094.86949  -7300832.49345  23870308.030    23870317.706
  21291844.445    -6899932.03449  -5345434.20047  21291843.963    21291850.086
  24535615.379     5903640.69958   4602985.62044                  24535620.043
  20755335.932    -3431816.04249  -2650847.27147  20755335.330    20755342.309
  25144876.364    -2563138.74949  -1644138.88744  25144876.135    25144885.839
 02  7 13 15 53  0.0000000  0 11G26G22G23G15G 6G29G21G18G10G17G 2
  21890816.855    -4235067.34149  -3273481.52046  21890816.813    21890824.376
  23334652.649    -2892198.36849  -2216651.98345  23334651.747    23334660.474
  21364079.921     1633718.70649   1287054.34947  21364079.346    21364086.360
  20987160.145    -4743986.89949  -3255852.03447  20987159.422    20987166.598
  20587161.101      365765.65949    301638.90047  20587160.815    20587167.426
  22562212.512    -2578100.95349  -1983306.89646  22562212.335    22562219.818
  23853857.630    -9513545.69949  -7368196.72045  23853856.939    23853866.631
  21279411.950    -6965264.98049  -5396342.96147  21279411.480    21279417.612
                   6009508.13958   4685479.71043
  20750995.415    -3454625.61949  -2668620.98547  20750994.815    20751001.797
  25135626.874    -2611744.63149  -1682013.63544  25135626.728    25135636.196
 02  7 13 15 53 30.0000000  0 10G26G22G23G15G 6G29G21G18G17G 2
  21887162.987    -4254268.19049  -3288443.20746  21887163.002    21887170.581
  23334127.749    -2894957.17549  -2218801.75045  23334126.810    23334135.504
  21374608.344     1689045.64649   1330166.18947  21374607.777    21374614.787
  20979519.534    -4784138.69849  -3287139.15247  20979518.801    20979525.956
  20595044.478      407192.99149    333919.87947  20595044.207    20595050.830
  22562621.592    -2575951.43349  -1981631.96346  22562621.402    22562628.907
  23837445.376    -9599791.86049  -7435401.46845  23837444.751    23837454.612
  21267056.792    -7030191.97449  -5446935.41347  21267056.293    21267062.419
  20746691.392    -3477243.54149  -2686245.34247  20746690.815    20746697.789
  25126454.123    -2659946.67049  -1719573.67544  25126454.038    25126463.806
 02  7 13 15 54  0.0000000  0 10G26G22G23G15G 6G29G21G18G17G 2
  21883628.461    -4272842.14649  -3302916.42346  21883628.459    21883636.030
  23333706.532    -2897170.57849  -2220526.53845  23333705.721    23333714.368
  21385198.248     1744695.74149   1373529.83347  21385197.686    21385204.700
  20971919.001    -4824079.64249  -3318261.99147  20971918.273    20971925.461
  20603018.837      449098.36149    366573.34347  20603018.557    20603025.207
  22563135.049    -2573253.02549  -1979529.34446  22563134.857    22563142.391
  23821071.663    -9685834.79749  -7502447.86545  23821071.206    23821081.066
  21254778.584    -7094714.33549  -5497212.58447  21254778.103    21254784.184
  20742423.475    -3499671.95249  -2703722.05647  20742422.859    20742429.821
  25117358.241    -2707745.76949  -1756819.73044  25117358.014    25117368.027
 02  7 13 15 54 30.0000000  0 10G26G22G23G15G 6G29G21G18G17G 2
  21880213.423    -4290788.12249  -3316900.30046  21880213.414    21880221.003
  23333389.162    -2898839.02549  -2221826.67545  23333388.252    23333396.877
  21395849.264     1800666.90849   1417143.65547  21395848.682    21395855.695
  20964358.675    -4863809.44649  -3349220.29847  20964357.937    20964365.154
  20611084.080      491481.33949    399598.96147  20611083.794    20611090.477
  22563753.025    -2570005.35149  -1976998.71446  22563752.859    22563760.396
  23804737.137    -9771673.18049  -7569334.89845  23804736.604    23804746.504
  21242577.557    -7158831.03849  -5547173.65547  21242577.070    21242583.132
  20738191.619    -3521910.58349  -2721050.87847  20738190.979    20738197.966
  25108339.532    -2755140.76449  -1793750.90244  25108339.218    25108349.145
 02  7 13 15 55  0.0000000  0 10G26G22G23G15G 6G29G21G18G17G 2
  21876918.152    -4308104.90849  -3330393.89046  21876918.165    21876925.730
  23333175.072    -2899963.57749  -2222703.00645  23333174.250    23333182.986
  21406560.794     1856956.51449   1461005.62447  21406560.267    21406567.340
  20956838.423    -4903328.34649  -3380014.29647  20956837.753    20956844.981
  20619240.077      534341.31649    432996.28147  20619239.807    20619246.524
  22564475.530    -2566208.59349  -1974040.21946  22564475.359    22564482.965
  23788441.638    -9857306.05049  -7636061.75945  23788441.165    23788450.994
  21230453.831    -7222541.32349  -5596818.01847  21230453.363    21230459.481
  20733995.766    -3543959.77649  -2738232.08347  20733995.164    20734002.190
  25099398.242    -2802131.15149  -1830366.82945  25099397.408    25099406.956
 02  7 13 15 55 30.0000000  0 10G26G22G23G15G 6G29G21G18G17G 2
  21873742.820    -4324791.12949  -3343396.12446  21873742.843    21873750.406
  23333064.900    -2900544.53649  -2223155.73445  23333063.706    23333072.489
  21417332.634     1913562.86149   1505114.41147  21417332.099    21417339.231
  20949358.514    -4942635.84249  -3410643.54047  20949357.791    20949365.041
  20627486.817      577678.03049    466765.09447  20627486.558    20627493.320
  22565302.611    -2561862.12049  -1970653.37646  22565302.406    22565310.111
  23772185.469    -9942732.28949  -7702627.62045  23772184.949    23772194.753
  21218407.679    -7285844.33949  -5646145.03447  21218407.202    21218413.349
  20729836.071    -3565818.96849  -2755265.23447  20729835.484    20729842.527
  25090533.176    -2848715.52149  -1866666.37745  25090532.606    25090542.209
 02  7 13 15 56  0.0000000  0 10G26G22G23G15G 6G29G21G18G17G 2
  21870687.878    -4340844.93149  -3355905.57346  21870687.888    21870695.494
  23333057.557    -2900581.72149  -2223184.76745  23333056.731    23333065.520
  21428164.544     1970484.57849   1549468.94247  21428163.991    21428171.134
  20941918.941    -4981730.88649  -3441107.23647  20941918.252    20941925.534
  20635824.314      621491.74849    500905.60947  20635824.046    20635830.872
  22566234.459    -2556965.12249  -1966837.55246  22566234.261    22566241.992
  23755969.204   -10027949.99249  -7769030.97745  23755968.655    23755978.354
  21206439.383    -7348738.28149  -5695153.28047  21206438.888    21206445.047
  20725712.689    -3587487.30649  -2772149.67947  20725712.128    20725719.194
  25081745.772    -2894891.66349  -1902647.77045  25081745.619    25081755.127
 02  7 13 15 56 30.0000000  0 10G26G22G23G15G 6G29G21G18G17G 2
  21867753.442    -4356265.34149  -3367921.47146  21867753.479    21867761.080
  23333154.004    -2900075.94649  -2222790.69645  23333152.945    23333161.721
  21439055.972     2027719.25649   1594067.33847  21439055.431    21439062.592
  20934519.904    -5020613.31549  -3471405.24747  20934519.174    20934526.504
  20644252.476      665781.87949    535417.34847  20644252.232    20644259.095
  22567271.113    -2551517.47849  -1962592.64646  22567270.944    22567278.652
  23739792.649   -10112958.59349  -7835271.42545  23739792.084    23739801.710
  21194549.030    -7411222.37549  -5743842.16647  21194548.529    21194554.738
  20721625.652    -3608964.74149  -2788885.35847  20721625.117    20721632.215
  25073036.840    -2940658.70349  -1938310.41345  25073036.379    25073046.384
 02  7 13 15 57  0.0000000  0 10G26G22G23G15G 6G29G21G18G17G 2
  21864939.825    -4371051.37449  -3379443.05046  21864939.827    21864947.391
  23333353.154    -2899028.11749  -2221974.26945  23333352.436    23333361.113
  21450006.575     2085264.52349   1638907.75247  21450006.010    21450013.168
  20927161.270    -5059283.00849  -3501537.49247  20927160.588    20927167.942
  20652771.149      710547.67449    570299.72947  20652770.894    20652777.794
  22568412.485    -2545519.23549  -1957918.71946  22568412.344    22568420.080
  23723656.055   -10197756.87049  -7901347.96245  23723655.565    23723665.101
  21182736.761    -7473296.08849  -5792211.28147  21182736.287    21182742.495
  20717575.000    -3630251.26249  -2805472.27447  20717574.452    20717581.573
  25064405.434    -2986015.76749  -1973653.58145  25064405.054    25064415.376
 02  7 13 15 57 30.0000000  0 10G26G22G23G15G 6G29G21G18G17G 2
  21862247.111    -4385201.51849  -3390469.13746  21862247.131    21862254.727
  23333655.965    -2897438.59049  -2220735.72845  23333655.016    23333663.713
  21461015.938     2143118.77149   1683988.93247  21461015.378    21461022.530
  20919843.329    -5097739.36449  -3531503.48547  20919842.614    20919849.955
  20661380.322      755789.00649    605552.65947  20661380.064    20661387.000
  22569658.839    -2538969.89249  -1952815.36546  22569658.650    22569666.439
  23707559.729   -10282343.53549  -7967259.61045  23707559.208    23707568.761
  21171002.926    -7534957.92349  -5840259.45247  21171002.450    21171008.625
  20713560.841    -3651346.19249  -2821909.90047  20713560.241    20713567.379
  25055852.447    -3030961.51349  -2008676.25245  25055852.165    25055862.675
 02  7 13 15 58  0.0000000  0 10G26G22G23G15G 6G29G21G18G17G 2
  21859675.482    -4398715.41749  -3400999.45046  21859675.542    21859683.139
  23334061.424    -2895308.77149  -2219076.16845  23334060.356    23334069.065
  21472083.506     2201279.03049   1729308.56947  21472082.946    21472090.139
  20912565.865    -5135983.00249  -3561303.72647  20912565.142    20912572.447
  20670079.761      801504.59149    641175.14547  20670079.492    20670086.452
  22571009.935    -2531870.06449  -1947283.05046  22571009.735    22571017.520
  23691503.740   -10366718.06449  -8033005.96545  23691503.243    23691512.808
  21159347.454    -7596207.89649  -5887986.68347  21159346.939    21159353.115
  20709582.925    -3672250.14349  -2838198.71247  20709582.344    20709589.478
  25047378.302    -3075495.43449  -2043378.04645  25047377.761    25047387.972
 02  7 13 15 58 30.0000000  0 10G26G22G23G15G 6G29G21G18G17G 2
  21857225.343    -4411591.02949  -3411032.41146  21857225.408    21857232.965
  23334569.340    -2892638.32549  -2216995.35745  23334568.555    23334577.255
  21483209.071     2259744.00849   1774865.63847  21483208.494    21483215.701
  20905329.083    -5174012.71749  -3590937.28247  20905328.342    20905335.657
  20678869.560      847694.87249    677167.50847  20678869.307    20678876.260
  22572465.987    -2524218.65949  -1941320.96546  22572465.797    22572473.553
  23675488.398   -10450878.55149  -8098585.53545  23675487.942    23675497.542
  21147770.662    -7657044.22849  -5935391.61047  21147770.154    21147776.366
  20705641.684    -3692961.94449  -2854337.79847  20705641.043    20705648.175
  25038982.460    -3119615.75549  -2077757.54745  25038981.894    25038991.773
 02  7 13 15 59  0.0000000  0 10G26G22G23G15G 6G29G21G18G17G 2
  21854896.743    -4423827.96649  -3420567.69746  21854896.800    21854904.376
  23335180.344    -2889428.55149  -2214494.28745  23335179.301    23335188.139
  21494392.147     2318511.26049   1820658.25347  21494391.552    21494398.813
  20898132.937    -5211828.70949  -3620404.29347  20898132.194    20898139.531
  20687749.435      894358.75149    713528.90247  20687749.179    20687756.131
  22574026.923    -2516016.18149  -1934929.46446  22574026.736    22574034.489
  23659513.986   -10534824.32049  -8163997.77345  23659513.580    23659523.205
  21136272.573    -7717466.69949  -5982474.04847  21136272.123    21136278.356
  20701736.898    -3713481.83949  -2870327.33047  20701736.266    20701743.388
  25030665.666    -3163321.81049  -2111814.24145  25030664.741    25030674.845
 02  7 13 15 59 30.0000000  0 10G26G22G23G15G 6G29G21G18G17G 2
  21852689.780    -4435425.84949  -3429605.00746  21852689.788    21852697.457
  23335893.401    -2885680.88949  -2211574.07945  23335892.418    23335901.269
  21505632.174     2377578.03649   1866684.26647  21505631.621    21505638.901
  20890977.433    -5249431.28849  -3649705.00547  20890976.678    20890984.029
  20696719.264      941495.15849    750258.50347  20696719.009    20696725.983
  22575692.593    -2507263.06349  -1928108.88846  22575692.423    22575700.146
  23643580.651   -10618555.00149  -8229242.41545  23643580.120    23643589.737
  21124853.368    -7777475.07949  -6029233.82547  21124852.899    21124859.129
  20697868.550    -3733810.37949  -2886167.76847  20697867.884    20697875.026
  25022427.607    -3206613.23349  -2145547.86745  25022426.874    25022437.028
 02  7 13 16  0  0.0000000  0 10G26G22G23G15G 6G29G21G18G17G 2
  21850604.750    -4446382.42149  -3438142.63046  21850604.821    21850612.502
  23336708.981    -2881394.92649  -2208234.42045  23336708.013    23336716.883
  21516929.027     2436943.18249   1912942.76647  21516928.500    21516935.801
  20883862.758    -5286818.98749  -3678838.28647  20883862.033    20883869.389
  20705779.105      989104.76649    787356.85847  20705778.847    20705785.865
  22577463.283    -2497958.10749  -1920858.30846  22577463.098    22577470.871
  23627688.647   -10702068.30749  -8294317.68145  23627688.132    23627697.651
  21113513.313    -7837067.33749  -6075669.34047  21113512.859    21113519.090
  20694036.842    -3753946.05449  -2901857.91847  20694036.207    20694043.354
  25014268.543    -3249487.88949  -2178956.72945  25014268.202    25014278.493
 02  7 13 16  0 30.0000000  0 10G26G22G23G15G 6G29G21G18G17G 2
  21848641.699    -4456698.66749  -3446181.27446  21848641.720    21848649.434
  23337626.578    -2876573.23849  -2204477.31645  23337625.678    23337634.474
  21528281.921     2496602.67249   1959430.63747  21528281.371    21528288.724
  20876788.770    -5323993.34349  -3707805.31947  20876788.010    20876795.385
  20714928.521     1037184.95549    824821.88947  20714928.264    20714935.292
  22579338.613    -2488103.27249  -1913179.24646  22579338.429    22579346.230
  23611837.633   -10785365.55049  -8359224.56845  23611837.116    23611846.695
  21102252.268    -7896244.43849  -6121781.34447  21102251.805    21102258.068
  20690241.584    -3773890.34349  -2917398.93747  20690240.954    20690248.136
  25006188.767    -3291946.53049  -2212041.42945  25006188.576    25006198.745
 02  7 13 16  1  0.0000000  0 10G26G22G23G15G 6G29G21G18G17G 2
  21846801.047    -4466371.63249  -3453718.66146  21846801.034    21846808.786
  23338646.325    -2871214.68849  -2200301.86745  23338645.402    23338654.239
  21539690.782     2556556.45549   2006147.82147  21539690.223    21539697.602
  20869755.792    -5360952.01449  -3736604.29847  20869755.059    20869762.401
  20724167.753     1085737.13149    862654.70047  20724167.497    20724174.545
  22581319.042    -2477696.45149  -1905070.07446  22581318.838    22581326.643
  23596028.299   -10868443.46149  -8423960.55145  23596027.850    23596037.455
  21091070.772    -7955003.72949  -6167567.78447  21091070.296    21091076.560
  20686483.146    -3793641.17249  -2932789.20947  20686482.506    20686489.699
  24998189.052    -3333986.12449  -2244799.59945  24998188.435    24998198.809
 02  7 13 16  1 30.0000000  0 10G26G22G23G15G 6G29G21G18G17G 2
  21845082.923    -4475400.43249  -3460754.11446  21845082.934    21845090.655
  23339767.923    -2865320.34049  -2195708.92645  23339767.056    23339775.956
  21551155.241     2616802.38149   2053092.65547  21551154.696    21551162.089
  20862763.967    -5397694.61749  -3765234.90647  20862763.210    20862770.536
  20733496.705     1134760.78449    900854.89147  20733496.439    20733503.462
  22583404.452    -2466737.78849  -1896530.87346  22583404.264    22583412.064
  23580260.923   -10951300.92949  -8488524.76845  23580260.546    23580270.227
  21079968.861    -8013344.60749  -6213028.18947  21079968.402    21079974.642
  20682761.615    -3813198.08649  -2948028.40247  20682760.982    20682768.142
  24990269.390    -3375605.77849  -2277230.53945  24990268.537    24990278.802
 02  7 13 16  2  0.0000000  0 10G26G22G23G15G 6G29G21G18G17G 2
  21843487.333    -4483785.32149  -3467287.81346  21843487.369    21843495.091
  23340991.385    -2858891.88949  -2190699.79045  23340990.418    23340999.337
  21562674.693     2677337.13649   2100262.55347  21562674.111    21562681.504
  20855813.078    -5434222.06749  -3793697.86647  20855812.292    20855819.590
  20742915.043     1184254.15149    939421.08947  20742914.769    20742921.794
  22585594.669    -2455228.20149  -1887562.40446  22585594.498    22585602.276
  23564535.552   -11033938.00149  -8552917.22745  23564535.162    23564544.974
  21068946.578    -8071267.13149  -6258162.60847  21068946.092    21068952.361
  20679076.804    -3832562.24849  -2963117.39247  20679076.153    20679083.303
  24982429.982    -3416805.57349  -2309334.30545  24982428.404    24982438.806
 02  7 13 16  2 30.0000000  0 10G26G22G23G15G 6G29G21G18G17G 2
  21842014.487    -4491525.31149  -3473318.99646  21842014.518    21842022.202
  23342316.120    -2851930.22549  -2185275.17845  23342315.351    23342324.174
  21574248.792     2738159.04849   2147656.20947  21574248.169    21574255.567
  20848903.177    -5470533.77349  -3821992.70547  20848902.425    20848909.681
  20752422.642     1234216.74649    978352.92047  20752422.377    20752429.385
  22587889.799    -2443167.82449  -1878164.73446  22587889.569    22587897.336
  23548852.301   -11116353.98149  -8617137.42545  23548851.859    23548861.737
  21058004.089    -8128770.30649  -6302970.26447  21058003.617    21058009.864
  20675428.765    -3851732.80649  -2978055.50447  20675428.139    20675435.298
  24974670.110    -3457584.18149  -2341109.89545  24974668.687    24974678.958
 02  7 13 16  3  0.0000000  0 10G26G22G23G15G 6G29G21G18G17G 2
  21840664.613    -4498619.21049  -3478846.71946  21840664.642    21840672.270
  23343742.402    -2844435.87249  -2179435.45345  23343741.514    23343750.348
  21585877.123     2799266.42349   2195272.31447  21585876.538    21585883.936
  20842034.558    -5506629.04549  -3850118.89347  20842033.780    20842041.021
  20762019.525     1284648.28249   1017650.18147  20762019.243    20762026.222
  22590289.643    -2430556.27049  -1868337.56546  22590289.468    22590297.234
  23533211.507   -11198547.31349  -8681184.12445  23533211.047    23533220.779
  21047141.569    -8185853.21649  -6347450.44547  21047141.097    21047147.304
  20671817.637    -3870709.40749  -2992842.47247  20671817.039    20671824.186
  24966989.923    -3497940.44149  -2372556.33545  24966988.993    24966999.635
 02  7 13 16  3 30.0000000  0 10G26G22G23G15G 6G29G21G18G17G 2
  21839437.885    -4505065.72449  -3483869.99546  21839437.922    21839445.544
  23345269.858    -2836408.99149  -2173180.79745  23345269.027    23345277.908
  21597559.504     2860657.59249   2243109.54147  21597558.961    21597566.332
  20835207.249    -5542506.96249  -3878075.74847  20835206.467    20835213.699
  20771705.570     1335548.44949   1057312.59347  20771705.278    20771712.276
  22592794.598    -2417393.15749  -1858080.62746  22592794.384    22592802.149
  23517613.492   -11280516.29649  -8745056.02845  23517612.925    23517622.517
  21036359.298    -8242514.67949  -6391602.23647  21036358.792    21036364.992
  20668243.663    -3889491.02949  -3007477.52047  20668243.053    20668250.196
  24959390.846    -3537872.79149  -2403672.47545  24959390.165    24959400.999
 02  7 13 16  4  0.0000000  0 10G26G22G23G15G 6G29G21G18G17G 2
  21838334.304    -4510865.32749  -3488389.18646  21838334.296    21838341.959
  23346898.197    -2827851.93149  -2166513.02145  23346897.329    23346906.293
  21609295.263     2922329.17949   2291165.27447  21609294.726    21609302.108
  20828421.077    -5578168.50349  -3905863.98947  20828420.325    20828427.545
  20781480.446     1386915.59649   1097338.87147  20781480.161    20781487.163
  22595404.208    -2403679.84249  -1847394.96346  22595403.988    22595411.750
  23502058.024   -11362260.95049  -8808753.12145  23502057.444    23502066.957
  21025657.132    -8298754.88949  -6435425.76247  21025656.641    21025662.827
  20664706.545    -3908078.70049  -3021961.46147  20664705.952    20664713.087
  24951872.424    -3577381.57649  -2434458.58945  24951872.157    24951882.535
 02  7 13 16  4 30.0000000  0 10G26G22G23G15G 6G29G21G18G17G 2
  21837354.065    -4516016.56049  -3492403.18046  21837354.044    21837361.743
  23348627.555    -2818764.87149  -2159432.27845  23348626.622    23348635.644
  21621084.128     2984279.66249   2339438.31647  21621083.565    21621090.942
  20821676.285    -5613612.72949  -3933482.91147  20821675.524    20821682.761
  20791344.208     1438749.62549   1137728.92847  20791343.912    20791350.937
  22598118.598    -2389415.64249  -1836280.06446  22598118.388    22598126.214
  23486545.426   -11443779.73649  -8872274.23745  23486544.893    23486554.343
  21015035.377    -8354572.67749  -6478920.15147  21015034.884    21015041.021
  20661206.568    -3926471.33249  -3036293.44347  20661205.995    20661213.126
  24944435.275    -3616465.31549  -2464913.54845  24944435.007    24944444.933
 02  7 13 16  5  0.0000000  0 10G26G22G23G15G 6G29G21G18G17G 2
  21836497.153    -4520519.67149  -3495912.12946  21836497.118    21836504.837
  23350457.416    -2809149.78349  -2151940.07445  23350456.355    23350465.376
  21632925.431     3046506.08849   2387926.39747  21632924.868    21632932.326
  20814972.777    -5648839.92349  -3960932.68747  20814972.035    20814979.316
  20801296.455     1491048.87549   1178481.52847  20801296.172    20801303.240
  22600937.674    -2374601.71649  -1824736.77746  22600937.467    22600945.249
  23471075.937   -11525072.56149  -8935619.25545  23471075.362    23471084.789
  21004494.007    -8409968.07049  -6522085.37547  21004493.492    21004499.642
  20657743.660    -3944669.44849  -3050473.82147  20657743.022    20657750.169
  24937078.818    -3655124.00249  -2495037.28245  24937078.460    24937088.496
 02  7 13 16  5 30.0000000  0 10G26G22G23G15G 6G29G21G18G17G 2
  21835763.852    -4524372.99349  -3498914.74346  21835763.875    21835771.597
  23352387.447    -2799006.68349  -2144036.43445  23352386.549    23352395.611
  21644819.056     3109007.42349   2436628.69147  21644818.504    21644825.980
  20808310.754    -5683848.96249  -3988212.47647  20808310.027    20808317.335
  20811337.267     1543813.42349   1219596.69647  20811336.981    20811344.072
  22603861.453    -2359237.17449  -1812764.44846  22603861.223    22603869.040
  23455649.664   -11606137.41049  -8998786.64045  23455649.192    23455658.685
  20994033.253    -8464939.46949  -6564920.22247  20994032.734    20994038.935
  20654317.889    -3962671.95649  -3064501.77347  20654317.284    20654324.469
  24929803.271    -3693355.77149  -2524828.31045  24929803.206    24929813.534
 02  7 13 16  6  0.0000000  0 10G26G22G23G15G 6G29G21G18G17G 2
  21835154.338    -4527576.25749  -3501410.81246  21835154.317    21835162.077
  23354417.902    -2788336.87649  -2135722.35745  23354416.983    23354426.134
  21656764.573     3171781.12649   2485543.22947  21656763.964    21656771.474
  20801690.283    -5718639.87749  -4015322.28047  20801689.560    20801696.886
  20821466.413     1597042.29049   1261073.68647  20821466.139    20821473.250
  22606889.845    -2343322.77349  -1800363.65046  22606889.636    22606897.487
  23440267.058   -11686973.88849  -9061776.08846  23440266.521    23440275.940
  20983653.277    -8519486.59749  -6607424.46647  20983652.779    20983659.005
  20650929.381    -3980478.67749  -3078377.14547  20650928.789    20650936.005
  24922609.607    -3731160.08049  -2554286.25245  24922609.347    24922619.858
 02  7 13 16  6 30.0000000  0 10G26G22G23G15G 6G29G21G18G17G 2
  21834668.505    -4530129.41249  -3503400.30646  21834668.483    21834676.260
  23356548.266    -2777142.07649  -2126999.19845  23356547.339    23356556.484
  21668761.376     3234824.55449   2534667.93947  21668760.759    21668768.261
  20795111.254    -5753212.72149  -4042262.17747  20795110.555    20795117.893
  20831683.667     1650734.07049   1302911.37847  20831683.386    20831690.533
  22610022.831    -2326859.14849  -1787534.88746  22610022.617    22610030.463
  23424927.799   -11767581.81749  -9124587.42546  23424927.290    23424936.804
  20973354.091    -8573609.25349  -6649597.94347  20973353.590    20973359.816
  20647578.150    -3998089.84749  -3092100.13747  20647577.520    20647584.749
  24915497.829    -3768536.45649  -2583410.76245  24915496.810    24915507.373
 02  7 13 16  7  0.0000000  0 10G26G22G23G15G 6G29G21G18G17G 2
  21834306.523    -4532031.70049  -3504882.60846  21834306.534    21834314.323
  23358778.424    -2765423.21449  -2117867.64245  23358777.385    23358786.466
  21680809.157     3298135.70249   2584001.29047  21680808.498    21680816.027
  20788573.904    -5787567.11549  -4069031.82847  20788573.180    20788580.502
  20841988.845     1704888.13249   1345109.31847  20841988.581    20841995.763
  22613260.225    -2309846.53149  -1774278.31146  22613260.056    22613267.871
  23409632.479   -11847959.52349  -9187219.35546  23409631.949    23409641.467
  20963135.732    -8627307.05549  -6691440.35047  20963135.223    20963141.422
  20644264.130    -4015505.15949  -3105670.49547  20644263.524    20644270.732
  24908466.827    -3805484.21649  -2612201.24545  24908465.956    24908476.360
 02  7 13 16  7 30.0000000  0 10G26G22G23G15G 6G29G21G18G17G 2
  21834068.630    -4533282.35949  -3505857.15346  21834068.619    21834076.308
  23361107.978    -2753180.76149  -2108328.11845  23361107.162    23361116.164
  21692907.565     3361712.98949   2633542.00447  21692906.933    21692914.464
  20782078.270    -5821702.06949  -4095630.48547  20782077.517    20782084.884
  20852381.986     1759504.10349   1387667.17447  20852381.726    20852388.918
  22616602.245    -2292284.83749  -1760593.89346  22616602.032    22616609.807
  23394381.072   -11928105.92949  -9249671.04046  23394380.558    23394390.092
  20952998.428    -8680578.73749  -6732950.72547  20952997.951    20953004.143
  20640987.607    -4032723.63849  -3119087.48947  20640986.992    20640994.195
  24901517.473    -3842002.01049  -2640656.69345  24901517.148    24901527.240
 02  7 13 16  8  0.0000000  0 10G26G22G23G15G 6G29G21G18G17G 2
  21833955.264    -4533878.43949  -3506321.70746  21833955.257    21833962.870
  23363537.473    -2740413.74549  -2098379.90945  23363536.730    23363545.700
  21705056.570     3425556.45849   2683290.07347  21705055.972    21705063.495
  20775624.848    -5855615.10949  -4122056.27947  20775624.095    20775631.457
  20862863.339     1814583.62149   1430586.16847  20862863.070    20862870.262
  22620049.029    -2274171.92149  -1746480.01646  22620048.826    22620056.586
  23379174.220   -12008018.28249  -9311940.40246  23379173.715    23379183.227
  20942942.863    -8733421.49549  -6774126.93447  20942942.343    20942948.476
  20637748.978    -4049742.89149  -3132349.30047  20637748.364    20637755.546
  24894650.511    -3878086.75049  -2668774.80345  24894650.363    24894660.890
 02  7 13 16  8 30.0000000  0 10G26G22G23G15G 6G29G21G18G17G 2
  21833965.832    -4533822.92849  -3506278.49146  21833965.810    21833973.427
  23366066.073    -2727126.80149  -2088026.51245  23366065.229    23366074.162
  21717255.258     3489660.68949   2733241.36847  21717254.657    21717262.171
  20769213.034    -5889309.34349  -4148311.56547  20769212.274    20769219.663
  20873432.056     1870122.42649   1473863.08447  20873431.794    20873439.034
  22623599.942    -2255511.85949  -1731939.75846  22623599.728    22623607.512
  23364011.452   -12087698.88549  -9374029.16646  23364010.962    23364020.544
  20932968.324    -8785838.05949  -6814971.01147  20932967.788    20932973.946
  20634547.637    -4066565.96249  -3145458.21747  20634547.030    20634554.251
  24887865.478    -3913740.94649  -2696557.35945  24887865.549    24887876.175
 02  7 13 16  9  0.0000000  0 10G26G22G23G15G 6G29G21G18G17G 2
  21834100.556    -4533115.21449  -3505727.05346  21834100.487    21834108.136
  23368693.311    -2713320.87349  -2077268.70245  23368692.501    23368701.516
  21729503.189     3554023.66649   2783394.28347  21729502.508    21729510.092
  20762843.017    -5922784.08549  -4174395.79847  20762842.273    20762849.693
  20884087.988     1926119.59149   1517497.17047  20884087.727    20884095.019
  22627255.002    -2236304.50149  -1716973.03246  22627254.787    22627262.594
  23348893.087   -12167146.44449  -9435936.33146  23348892.558    23348902.169
  20923074.946    -8837827.75549  -6855482.47547  20923074.447    20923080.639
  20631383.810    -4083192.15249  -3158413.71647  20631383.200    20631390.450
  24881162.959    -3948963.83249  -2724003.80045  24881162.860    24881173.563
 02  7 13 16  9 30.0000000  0 10G26G22G23G15G 6G29G21G18G17G 2
  21834359.421    -4531754.57949  -3504666.83646  21834359.427    21834367.053
  23371419.085    -2698996.84349  -2066107.15545  23371418.204    23371427.413
  21741799.979     3618643.65549   2833747.48047  21741799.316    21741806.951
  20756514.864    -5956038.59249  -4200308.41847  20756514.134    20756521.568
  20894831.045     1982574.60649   1561488.04047  20894830.799    20894838.107
  22631014.176    -2216550.19749  -1701580.10446  22631013.945    22631021.781
  23333819.269   -12246359.79049  -9497660.96446  23333818.693    23333828.379
  20913263.093    -8889389.63249  -6895660.55247  20913262.579    20913268.747
  20628257.522    -4099620.87649  -3171215.32247  20628256.925    20628264.177
  24874542.600    -3983754.51949  -2751113.49445  24874542.094    24874553.083
 02  7 13 16 10  0.0000000  0 10G26G22G23G15G 6G29G21G18G17G 2
  21834742.795    -4529740.24249  -3503097.24046  21834742.732    21834750.397
  23374243.276    -2684155.32249  -2054542.38745  23374242.538    23374251.705
  21754145.379     3683519.13749   2884299.75447  21754144.729    21754152.358
  20750228.787    -5989072.16149  -4226048.88647  20750228.086    20750235.506
  20905661.166     2039487.08449   1605835.35647  20905660.932    20905668.261
  22634877.517    -2196248.57249  -1685760.68646  22634877.280    22634885.136
  23318790.227   -12325337.29549  -9559201.84546  23318789.698    23318799.419
  20903532.831    -8940522.54849  -6935504.38347  20903532.306    20903538.458
  20625169.028    -4115851.25249  -3183862.38547  20625168.403    20625175.658
  24868004.971    -4018111.66749  -2777885.34545  24868004.189    24868015.165
 02  7 13 16 10 30.0000000  0 10G26G22G23G15G 6G29G21G18G17G 2
  21835250.481    -4527072.62149  -3501018.61246  21835250.430    21835258.052
  23377165.763    -2668798.58049  -2042576.15945  23377164.915    23377174.069
  21766538.818     3748647.13149   2935048.78247  21766538.219    21766545.836
  20743984.707    -6021884.97249  -4251617.35347  20743984.019    20743991.472
  20916578.040     2096855.23149   1650537.74147  20916577.784    20916585.128
  22638844.639    -2175401.17449  -1669516.00246  22638844.404    22638852.304
  23303806.134   -12404079.30049  -9620559.22946  23303805.561    23303815.271
  20893884.133    -8991226.90549  -6975014.26347  20893883.586    20893889.761
  20622118.126    -4131883.92449  -3196355.40147  20622117.525    20622124.764
  24861549.918    -4052035.49949  -2804319.52745  24861548.608    24861559.549
 02  7 13 16 11  0.0000000  0 10G26G22G23G15G 6G29G21G18G17G 2
  21835882.341    -4523752.09549  -3498431.20646  21835882.343    21835889.925
  23380185.807    -2652928.42849  -2030209.86945  23380184.954    23380194.145
  21778979.786     3814024.78049   2985992.35247  21778979.186    21778986.852
  20737782.657    -6054477.18949  -4277013.91247  20737781.952    20737789.446
  20927581.306     2154677.51549   1695594.00247  20927581.057    20927588.414
  22642915.460    -2154009.00049  -1652846.80546  22642915.246    22642923.187
  23288866.771   -12482585.88149  -9681733.15046  23288866.213    23288875.918
  20884316.880    -9041502.95349  -7014190.39847  20884316.379    20884322.590
  20619104.801    -4147719.17249  -3208694.59947  20619104.191    20619111.451
  24855177.232    -4085525.86849  -2830415.96545  24855175.780    24855186.799
 02  7 13 16 11 30.0000000  0 10G26G22G23G15G 6G29G21G18G17G 2
  21836639.035    -4519775.88249  -3495332.88246  21836639.009    21836646.655
  23383303.723    -2636543.59149  -2017442.52845  23383302.886    23383312.012
  21791468.350     3879652.60949   3037130.85547  21791467.791    21791475.500
  20731623.065    -6086846.25449  -4302236.57547  20731622.366    20731629.879
  20938671.304     2212955.44049   1741005.30447  20938671.060    20938678.439
  22647090.311    -2132069.99949  -1635751.50846  22647090.066    22647098.067
  23273972.878   -12560853.24549  -9742720.68446  23273972.414    23273982.104
  20874831.731    -9091347.70549  -7053030.47447  20874831.255    20874837.460
  20616129.620    -4163353.99349  -3220877.61747  20616128.991    20616136.283
  24848887.104    -4118579.66949  -2856172.21545  24848885.964    24848896.843
 02  7 13 16 12  0.0000000  0 10G26G22G23G15G 6G29G21G18G17G 2
  21837520.333    -4515144.54249  -3491724.05246  21837520.289    21837528.011
  23386519.232    -2619646.26649  -2004275.83245  23386518.420    23386527.481
  21804003.967     3945527.77349   3088462.09247  21804003.472    21804011.222
  20725505.777    -6118992.78549  -4327285.84347  20725505.081    20725512.617
  20949847.641     2271687.14349   1786770.19847  20949847.382    20949854.812
  22651369.006    -2109585.55549  -1618231.19646  22651368.764    22651376.792
  23259124.542   -12638881.50349  -9803521.88646  23259124.034    23259133.740
  20865428.616    -9140761.53549  -7091534.76347  20865428.085    20865434.350
  20613192.522    -4178788.71849  -3232904.70547  20613191.884    20613199.180
  24842680.575    -4151197.05049  -2881588.39945  24842679.131    24842690.043
 02  7 13 16 12 30.0000000  0 10G26G22G23G15G 6G29G21G18G17G 2
  21838526.277    -4509858.28949  -3487604.92246  21838526.253    21838533.996
  23389831.978    -2602238.29449  -1990711.24045  23389831.127    23389840.193
  21816586.284     4011647.62849   3139984.00147  21816585.682    21816593.488
  20719430.905    -6150916.57149  -4352161.54247  20719430.227    20719437.758
  20961110.031     2330871.22549   1832887.59547  20961109.776    20961117.230
  22655751.336    -2086556.60749  -1600286.58646  22655751.090    22655759.061
  23244321.777   -12716670.16049  -9864136.40046  23244321.311    23244331.036
  20856107.515    -9189744.13449  -7129703.01847  20856107.008    20856113.259
  20610293.472    -4194023.67949  -3244776.13147  20610292.821    20610300.105
  24836556.858    -4183377.70849  -2906664.28145  24836555.211    24836566.364
 02  7 13 16 13  0.0000000  0 10G26G22G23G15G 6G29G21G18G17G 2
  21839656.929    -4503916.84749  -3482975.24946  21839656.880    21839664.639
  23393241.476    -2584320.74949  -1976749.56945  23393240.677    23393249.796
  21829214.632     4078010.20349   3191695.03347  21829214.099    21829221.915
  20713398.591    -6182616.84249  -4376863.07347  20713397.873    20713405.413
  20972458.381     2390506.73349   1879356.74847  20972458.099    20972465.561
  22660237.145    -2062983.53049  -1581917.97346  22660236.934    22660244.917
  23229565.003   -12794218.35349  -9924563.52746  23229564.477    23229574.103
  20846868.543    -9238295.19949  -7167535.00847  20846868.034    20846874.313
  20607432.504    -4209058.20349  -3256491.37747  20607431.862    20607439.171
  24830516.056    -4215120.92849  -2931399.31045  24830514.751    24830526.040
 02  7 13 16 13 30.0000000  0 10G26G22G23G15G 6G29G21G18G17G 2
  21840912.254    -4497319.91949  -3477834.80746  21840912.251    21840920.036
  23396747.965    -2565894.95049  -1962391.84445  23396747.059    23396756.234
  21841888.827     4144613.50949   3243593.65347  21841888.305    21841896.125
  20707408.820    -6214093.25849  -4401390.17647  20707408.130    20707415.690
  20983892.465     2450592.93049   1926177.09647  20983892.194    20983899.689
  22664826.431    -2038866.76849  -1563125.72446  22664826.187    22664834.232
  23214853.937   -12871525.49449  -9984802.83046  23214853.382    23214862.994
  20837711.858    -9286414.05449  -7205030.21247  20837711.333    20837717.606
  20604609.838    -4223891.75449  -3268050.01347  20604609.166    20604616.487
  24824558.852    -4246426.12049  -2955793.04245  24824557.626    24824569.042
 02  7 13 16 14  0.0000000  0 10G26G22G23G15G 6G29G21G18G17G 2
  21842292.344    -4490067.59549  -3472183.65746  21842292.326    21842300.113
  23400350.629    -2546962.49249  -1947639.33445  23400349.834    23400359.054
  21854608.408     4211455.16849   3295678.00147  21854607.900    21854615.753
  20701461.707    -6245345.59849  -4425742.65647  20701461.017    20701468.594
  20995412.093     2511128.68349   1973347.76347  20995411.799    20995419.314
  22669519.007    -2014207.31049  -1543910.57546  22669518.798    22669526.801
  23200188.998   -12948590.30449 -10044853.29846  23200188.474    23200198.054
  20828637.391    -9334100.45149  -7242188.42847  20828636.885    20828643.175
  20601825.375    -4238524.09649  -3279451.84847  20601824.733    20601832.089
  24818685.038    -4277292.89749  -2979845.12245  24818684.043    24818695.372
 02  7 13 16 14 30.0000000  0 10G26G22G23G15G 6G29G21G18G17G 2
  21843797.071    -4482160.13949  -3466022.02346  21843797.064    21843804.908
  23404049.626    -2527525.16149  -1932493.42745  23404048.754    23404057.919
  21867372.922     4278532.89649   3347946.29647  21867372.443    21867380.299
  20695557.309    -6276373.74249  -4449920.42447  20695556.584    20695564.162
  21007016.961     2572112.42549   2020867.49447  21007016.685    21007024.195
  22674314.741    -1989005.89149  -1524273.15346  22674314.509    22674322.446
  23185570.259   -13025412.35749 -10104714.61646  23185569.734    23185579.175
  20819645.190    -9381354.63349  -7279009.86547  20819644.720    20819650.998
  20599079.251    -4252955.40349  -3290697.04047  20599078.585    20599085.922
  24812894.625    -4307721.09649  -3003555.45545  24812893.910    24812905.299
 02  7 13 16 15  0.0000000  0 10G26G22G23G15G 6G29G21G18G17G 2
  21845426.565    -4473597.18449  -3459349.56846  21845426.576    21845434.433
  23407844.371    -2507583.97449  -1916954.82045  23407843.567    23407852.705
  21880182.056     4345844.81649   3400397.11847  21880181.575    21880189.404
  20689695.704    -6307176.98249  -4473922.89547  20689694.972    20689702.556
  21018706.967     2633543.37049   2068735.74147  21018706.672    21018714.210
  22679213.467    -1963263.04249  -1504213.77946  22679213.207    22679221.185
  23170997.840   -13101990.98349 -10164386.19746  23170997.293    23171006.677
  20810735.473    -9428175.61449  -7315493.68747  20810734.998    20810741.279
  20596371.511    -4267184.73249  -3301784.81547  20596370.859    20596378.194
  24807188.421    -4337709.78949  -3026923.30945  24807187.431    24807198.711
 02  7 13 16 15 30.0000000  0 10G26G22G23G15G 6G29G21G18G17G 2
  21847180.754    -4464379.14249  -3452166.71446  21847180.761    21847188.563
  23411734.623    -2487140.78949  -1901025.15245  23411733.854    23411742.984
  21893035.322     4413388.59149   3453028.55447  21893034.797    21893042.585
  20683876.838    -6337755.42749  -4497750.27247  20683876.091    20683883.651
  21030481.758     2695420.10949   2116951.30047  21030481.461    21030488.989
  22684215.061    -1936979.78449  -1483733.37246  22684214.795    22684222.761
  23156471.857   -13178325.93849 -10223867.96746  23156471.279    23156480.615
  20801908.208    -9474563.64149  -7351640.21147  20801907.679    20801913.935
  20593702.201    -4281212.13649  -3312715.30947  20593701.557    20593708.861
  24801565.162    -4367258.91349  -3049948.66145  24801564.494    24801575.652
 02  7 13 16 16  0.0000000  0 10G26G22G23G15G 6G29G21G18G17G 2
  21849059.738    -4454505.11249  -3444472.70246  21849059.790    21849067.613
  23415720.387    -2466196.27449  -1884704.82945  23415719.545    23415728.684
  21905932.360     4481162.95749   3505839.66547  21905931.869    21905939.672
  20678101.008    -6368107.58649  -4521401.33647  20678100.299    20678107.828
  21042341.361     2757742.45849   2165514.09447  21042341.060    21042348.597
  22689319.490    -1910155.78049  -1462831.60646  22689319.251    22689327.208
  23141992.393   -13254415.19449 -10283158.28446  23141991.873    23142001.292
  20793163.464    -9520517.42949  -7387448.35447  20793162.963    20793169.203
  20591071.549    -4295036.36949  -3323487.48547  20591070.938    20591078.213
  24796025.723    -4396367.02649  -3072630.38245  24796025.528    24796036.349
 02  7 13 16 16 30.0000000  0 10G26G22G23G15G 6G29G21G18G17G 2
  21851063.553    -4443975.34649  -3436267.70446  21851063.573    21851071.405
  23419801.187    -2444752.16749  -1867995.17045  23419800.239    23419809.413
  21918873.027     4549165.63349   3558828.70347  21918872.430    21918880.267
  20672368.306    -6398233.46049  -4544876.05447  20672367.578    20672375.075
  21054285.439     2820508.76049   2214422.82647  21054285.152    21054292.718
  22694526.642    -1882792.37649  -1441509.51546  22694526.406    22694534.343
  23127559.899   -13330258.44049 -10342256.87546  23127559.274    23127568.784
  20784501.460    -9566036.67349  -7422917.87647  20784500.969    20784507.139
  20588479.535    -4308657.33249  -3334101.24647  20588478.973    20588486.266
  24790570.465    -4425033.81449  -3094968.20545  24790570.604    24790581.156
 02  7 13 16 17  0.0000000  0 10G26G22G23G15G 6G29G21G18G17G 2
  21853191.916    -4432790.96149  -3427552.61846  21853191.910    21853199.769
  23423976.411    -2422810.90549  -1850898.12345  23423975.529    23423984.780
  21931856.449     4617393.51849   3611993.22947  21931855.812    21931863.678
  20666678.559    -6428133.47649  -4568174.76947  20666677.807    20666685.289
  21066313.645     2883717.15849   2263676.05247  21066313.365    21066320.951
  22699836.193    -1854890.89949  -1419768.14746  22699835.950    22699843.854
  23113174.214   -13405855.52349 -10401163.66646  23113173.663    23113183.055
  20775922.029    -9611122.19549  -7458049.43147  20775921.479    20775927.612
  20585926.184    -4322075.49949  -3344556.97647  20585925.620    20585932.921
  24785199.534    -4453259.90849  -3116962.60445  24785199.473    24785209.998
 02  7 13 16 17 30.0000000  0 10G26G22G23G15G 6G29G21G18G17G 2
  21855444.865    -4420951.77449  -3418327.32546  21855444.840    21855452.717
  23428246.128    -2400373.77949  -1833414.72245  23428245.183    23428254.447
  21944882.521     4685844.91049   3665331.89047  21944881.744    21944889.581
  20661031.875    -6457807.08249  -4591297.09647  20661031.096    20661038.586
  21078425.805     2947366.73449   2313273.02547  21078425.510    21078433.097
  22705247.977    -1826451.89749  -1397607.95946  22705247.804    22705255.671
  23098835.468   -13481206.06449 -10459878.36846  23098834.950    23098844.308
  20767425.136    -9655773.54149  -7492842.71147  20767424.601    20767430.735
  20583411.524    -4335290.07449  -3354854.09447  20583410.991    20583418.301
  24779912.951    -4481044.46949  -3138612.95245  24779912.354    24779922.993
 02  7 13 16 18  0.0000000  0 10G26G22G23G15G 6G29G21G18G17G 2
  21857822.368    -4408457.85549  -3408591.84346  21857822.374    21857830.266
  23432609.775    -2377442.38649  -1815546.16945  23432608.992    23432618.206
  21957950.504     4754517.74449   3718843.10647  21957949.768    21957957.641
  20655428.308    -6487253.88949  -4614242.67447  20655427.555    20655435.091
  21090621.662     3011456.18849   2363212.77547  21090621.367    21090629.004
  22710761.863    -1797476.20449  -1375029.57446  22710761.667    22710769.620
  23084543.834   -13556309.37949 -10518400.42646  23084543.253    23084552.602
  20759010.936    -9699990.19449  -7527297.25947  20759010.426    20759016.601
  20580935.684    -4348300.78349  -3364992.34947  20580935.125    20580942.486
  24774709.961    -4508387.27749  -3159919.10845  24774708.996    24774719.692
 02  7 13 16 18 30.0000000  0 10G26G22G23G15G 6G29G21G18G17G 2
  21860324.659    -4395308.61949  -3398345.71646  21860324.682    21860332.518
  23437067.512    -2354017.50249  -1797293.05145  23437066.557    23437075.813
  21971060.506     4823410.58249   3772525.77447  21971059.692    21971067.655
  20649868.158    -6516472.39349  -4637010.33947  20649867.424    20649875.021
  21102901.149     3075985.19449   2413495.04847  21102900.866    21102908.549
  22716377.886    -1767963.90849  -1352033.04746  22716377.699    22716385.682
  23070299.537   -13631163.47949 -10576728.26846  23070298.945    23070308.382
  20750679.676    -9743771.29849  -7561412.39947  20750679.154    20750685.346
  20578498.905    -4361106.38849  -3374970.75847  20578498.332    20578505.726
  24769591.153    -4535286.92549  -3180879.91145  24769590.060    24769600.846
 02  7 13 16 19  0.0000000  0 10G26G22G23G15G 6G29G21G18G17G 2
  21862951.384    -4381504.78249  -3387589.51446  21862951.414    21862959.339
  23441618.567    -2330101.20549  -1778657.03745  23441617.665    23441627.041
  21984211.836     4892521.08249   3826378.04147  21984211.007    21984219.044
  20644351.530    -6545462.75149  -4659600.24247  20644350.763    20644358.382
  21115263.952     3140951.93449   2464118.40647  21115263.677    21115271.441
  22722095.800    -1737916.25449  -1328619.35346  22722095.620    22722103.672
  23056102.709   -13705768.01849 -10634861.64646  23056102.103    23056111.662
  20742431.218    -9787116.99549  -7595188.25847  20742430.684    20742436.968
  20576101.160    -4373706.89549  -3384789.33547  20576100.562    20576107.980
  24764556.601    -4561743.64849  -3201495.57845  24764555.545    24764566.231
 02  7 13 16 19 30.0000000  0 10G26G22G23G15G 6G29G21G18G17G 2
  21865702.732    -4367046.33149  -3376323.22646  21865702.769    21865710.754
  23446263.016    -2305694.78549  -1759639.08545  23446262.090    23446271.448
  21997404.182     4961847.32949   3880398.43147  21997403.385    21997411.475
  20638878.421    -6574224.10149  -4682011.71247  20638877.672    20638885.331
  21127709.869     3206355.50849   2515082.16247  21127709.621    21127717.428
  22727915.456    -1707333.78149  -1304788.91946  22727915.292    22727923.427
  23041953.426   -13780122.66649 -10692800.30846  23041952.888    23041962.455
  20734265.742    -9830026.59349  -7628624.29947  20734265.257    20734271.591
  20573742.488    -4386101.62749  -3394447.57647  20573741.915    20573749.369
  24759606.500    -4587756.83649  -3221765.64745  24759605.481    24759616.125
 02  7 13 16 20  0.0000000  0 10G26G22G23G15G 6G29G21G18G17G 2
  21868578.729    -4351933.39249  -3364546.95046  21868578.728    21868586.715
  23451000.176    -2280799.89949  -1740240.53145  23450999.411    23451008.828
  22010637.188     5031387.39349   3934585.43047  22010636.483    22010644.562
  20633449.007    -6602755.97849  -4704244.36047  20633448.251    20633455.926
  21140238.758     3272194.77049   2566385.41247  21140238.477    21140246.289
  22733836.732    -1676217.41549  -1280542.45246  22733836.612    22733844.731
  23027851.870   -13854226.73049 -10750543.70746  23027851.350    23027860.899
  20726183.315    -9872500.09549  -7661720.53047  20726182.802    20726189.163
  20571423.087    -4398290.03649  -3403945.04847  20571422.560    20571430.065
  24754741.133    -4613326.02249  -3241689.72545  24754740.001    24754750.550
 02  7 13 16 20 30.0000000  0 10G26G22G23G15G 6G29G21G18G17G 2
  21871578.952    -4336167.21449  -3352261.65946  21871578.961    21871586.944
  23455830.061    -2255419.22249  -1720463.43745  23455829.217    23455838.672
  22023910.274     5101138.10549   3988936.57547  22023909.634    22023917.747
  20628063.146    -6631058.87449  -4726298.56147  20628062.390    20628070.071
  21152850.150     3338467.57149   2618026.48647  21152849.857    21152857.657
  22739859.324    -1644568.78849  -1255881.23346  22739859.203    22739867.364
  23013798.099   -13928079.84449 -10808091.56546  23013797.599    23013807.138
  20718183.756    -9914538.14049  -7694477.43847  20718183.260    20718189.598
  20569142.895    -4410272.58949  -3413282.11847  20569142.339    20569149.857
  24749959.919    -4638451.77949  -3261268.27445  24749958.860    24749969.481
 02  7 13 16 21  0.0000000  0 10G26G22G23G15G 6G29G21G18G17G 2
  21874703.587    -4319747.26949  -3339466.93546  21874703.598    21874711.590
  23460752.452    -2229553.40049  -1700308.28745  23460751.400    23460760.837
  22037223.309     5171098.45049   4043451.06647  22037222.688    22037230.855
  20622721.089    -6659131.54949  -4748173.36247  20622720.348    20622728.040
  21165543.914     3405173.41249   2670004.99047  21165543.619    21165551.448
  22745983.135    -1612388.01149  -1230805.34146  22745982.984    22745991.228
  22999792.297   -14001680.78549 -10865442.90546  22999791.806    22999801.374
  20710267.241    -9956139.64549  -7726894.18747  20710266.751    20710273.074
  20566902.202    -4422048.11149  -3422457.87047  20566901.600    20566909.107
  24745262.887    -4663133.02449  -3280500.47645  24745262.061    24745272.793
 02  7 13 16 21 30.0000000  0 10G26G22G23G15G 6G29G21G18G17G 2
  21877952.507    -4302674.12349  -3326163.19446  21877952.509    21877960.502
  23465766.471    -2203204.42549  -1679776.63345  23465765.529    23465774.906
  22050575.835     5241266.21149   4098127.21347  22050575.264    22050583.397
  20617422.886    -6686973.76749  -4769868.56147  20617422.156    20617429.826
  21178319.831     3472310.94749   2722319.90947  21178319.544    21178327.354
  22752207.992    -1579676.24949  -1205315.68346  22752207.894    22752216.100
  22985834.644   -14075028.57549 -10922596.96446  22985834.198    22985843.718
  20702433.888    -9997304.43749  -7758970.61747  20702433.393    20702439.680
  20564700.896    -4433616.15549  -3431471.91247  20564700.294    20564707.773
  24740650.890    -4687369.38249  -3299385.99345  24740649.844    24740660.671
 02  7 13 16 22  0.0000000  0 10G26G22G23G15G 6G29G21G18G17G 2
  21881325.629    -4284948.47149  -3312351.07646  21881325.624    21881333.625
  23470872.107    -2176374.32249  -1658870.16145  23470871.184    23470880.630
  22063967.480     5311638.91149   4152962.98747  22063966.844    22063974.948
  20612168.591    -6714585.50849  -4791384.25147  20612167.863    20612175.506
  21191177.581     3539878.52449   2774969.85747  21191177.283    21191185.086
  22758533.732    -1546434.85449  -1179413.39746  22758533.595    22758541.769
  22971925.184   -14148123.35249 -10979553.94446  22971924.708    22971934.153
  20694683.555   -10038032.73449  -7790706.99247  20694683.049    20694689.308
  20562539.107    -4444976.68349  -3440324.32847  20562538.481    20562545.933
  24736123.874    -4711161.16149  -3317925.10745  24736122.569    24736133.403
 02  7 13 16 22 30.0000000  0 10G26G22G23G15G 6G29G21G18G17G 2
  21884822.671    -4266571.76949  -3298031.61446  21884822.682    21884830.639
  23476068.774    -2149065.83849  -1637590.86545  23476067.887    23476077.219
  22077397.475     5382213.55249   4207956.15947  22077396.846    22077404.917
  20606958.075    -6741967.13949  -4812720.56847  20606957.330    20606964.956
  21204116.730     3607873.89249   2827953.18947  21204116.436    21204124.243
  22764959.819    -1512665.90049  -1153099.96846  22764959.646    22764967.828
  22958063.660   -14220966.09949 -11036314.50846  22958063.194    22958072.610
  20687016.119   -10078325.41449  -7822103.87147  20687015.617    20687021.873
  20560416.651    -4456130.23549  -3449015.41247  20560416.020    20560423.487
  24731680.659    -4734509.18349  -3336118.42745  24731679.645    24731690.481
 02  7 13 16 23  0.0000000  0 10G26G22G23G15G 6G29G21G18G17G 2
  21888443.875    -4247542.48549  -3283203.65246  21888443.885    21888451.845
  23481356.696    -2121278.69549  -1615938.60845  23481355.676    23481365.010
  22090865.888     5452990.10549   4263106.66247  22090865.192    22090873.283
  20601791.751    -6769116.19749  -4833875.67147  20601791.007    20601798.629
  21217137.366     3676297.44549   2881270.16447  21217137.092    21217144.886
  22771486.455    -1478368.25549  -1126374.58446  22771486.318    22771494.501
  22944250.749   -14293553.50649 -11092876.09046  22944250.236    22944259.671
  20679431.952   -10118180.46249  -7853159.74947  20679431.458    20679437.714
  20558334.027    -4467074.31349  -3457543.28147  20558333.442    20558340.911
  24727322.661    -4757411.09049  -3353964.13245  24727321.641    24727332.599
 02  7 13 16 23 30.0000000  0 10G26G22G23G15G 6G29G21G18G17G 2
  21892188.976    -4227862.10249  -3267868.33446  21892188.983    21892196.954
  23486734.878    -2093015.81449  -1593915.62345  23486734.063    23486743.340
  22104372.109     5523965.54649   4318412.15247  22104371.442    22104379.504
  20596669.548    -6796033.23349  -4854849.96347  20596668.853    20596676.483
  21230239.053     3745146.83649   2934918.97047  21230238.761    21230246.577
  22778113.363    -1443543.86649  -1099238.74046  22778113.220    22778121.351
  22930486.348   -14365886.11849 -11149239.12846  22930485.834    22930495.234
  20671930.893   -10157598.81349  -7883875.32847  20671930.390    20671936.641
  20556291.229    -4477809.46649  -3465908.33947  20556290.666    20556298.131
  24723049.729    -4779867.63849  -3371462.78145  24723048.290    24723059.309
 02  7 13 16 24  0.0000000  0 10G26G22G23G15G 6G29G21G18G17G 2
  21896058.032    -4207530.23349  -3252025.39346  21896058.014    21896066.026
  23492203.444    -2064278.16049  -1571522.72945  23492202.687    23492211.953
  22117915.957     5595138.70149   4373871.67547  22117915.296    22117923.352
  20591591.717    -6822717.12249  -4875642.62647  20591591.048    20591598.694
  21243421.690     3814421.62149   2988899.22247  21243421.395    21243429.234
  22784840.486    -1408193.08349  -1071692.74846  22784840.273    22784848.434
  22916770.649   -14437962.62149 -11205402.62146  22916770.110    22916779.536
  20664513.113   -10196579.38149  -7914249.80447  20664512.636    20664518.889
  20554288.410    -4488334.48349  -3474109.67647  20554287.853    20554295.295
  24718861.294    -4801877.75949  -3388613.65245  24718860.009    24718870.984
 02  7 13 16 24 30.0000000  0 11G26G22G23G15G 6G 3G29G21G18G17G 2
  21900050.506    -4186550.00049  -3235677.20746  21900050.460    21900058.511
  23497761.659    -2035069.84949  -1548763.06845  23497760.888    23497770.199
  22131496.480     5666504.91649   4429481.65147  22131495.874    22131503.999
  20586558.013    -6849169.64349  -4896254.98647  20586557.343    20586564.998
  21256684.508     3884117.96449   3043207.97047  21256684.204    21256692.092
  24610224.937    -3022437.55749  -2333337.07545  24610224.357    24610234.144
  22791667.064    -1372319.50549  -1043739.35246  22791666.857    22791675.067
  22903103.257   -14509784.83649 -11261367.96046  22903102.692    22903112.152
  20657178.234   -10235124.53849  -7944284.99247  20657177.733    20657183.998
  20552325.149    -4498651.38549  -3482148.82447  20552324.572    20552332.073
  24714757.343    -4823443.92649  -3405418.53345  24714756.160    24714767.149
 02  7 13 16 25  0.0000000  0 11G26G22G23G15G 6G 3G29G21G18G17G 2
  21904166.742    -4164919.18849  -3218822.07646  21904166.711    21904174.802
  23503409.627    -2005390.10549  -1525636.05045  23503408.809    23503418.208
  22145114.025     5738065.04749   4485242.73547  22145113.367    22145121.545
  20581568.932    -6875387.48549  -4916684.48347  20581568.207    20581575.910
  21270027.856     3954237.14649   3097846.20947  21270027.556    21270035.450
  24590907.071    -3123953.02549  -2412440.06445  24590906.699    24590916.318
  22798593.443    -1335921.25849  -1015377.13446  22798593.242    22798601.458
  22889484.895   -14581349.61749 -11317132.69246  22889484.360    22889493.787
  20649926.680   -10273231.55849  -7973978.76247  20649926.234    20649932.488
  20550402.179    -4508756.84249  -3490023.21947  20550401.593    20550409.101
  24710738.575    -4844563.07049  -3421875.06145  24710737.423    24710748.431
 02  7 13 16 25 30.0000000  0 11G26G22G23G15G 6G 3G29G21G18G17G 2
  21908406.735    -4142638.22449  -3201460.33346  21908406.695    21908414.771
  23509146.949    -1975240.59949  -1502142.96745  23509145.987    23509155.566
  22158768.104     5809817.29749   4541153.52447  22158767.434    22158775.597
  20576624.608    -6901370.33849  -4936930.87247  20576623.870    20576631.531
  21283451.356     4024777.91949   3152812.96747  21283451.053    21283458.986
  24571613.020    -3225343.74949  -2491445.82344  24571612.736    24571622.532
  22805619.418    -1298999.49449   -986606.97046  22805619.248    22805627.492
  22875915.701   -14652656.15849 -11372696.20246  22875915.194    22875924.597
  20642758.557   -10310900.39649  -8003331.08747  20642758.086    20642764.320
  20548519.560    -4518650.13249  -3497732.29547  20548519.016    20548526.509
  24706804.758    -4865234.82849  -3437982.98245  24706803.935    24706814.850
 02  7 13 16 26  0.0000000  0 11G26G22G23G15G 6G 3G29G21G18G17G 2
  21912770.080    -4119708.83149  -3183593.32846  21912770.045    21912778.129
  23514973.078    -1944624.23049  -1478286.13245  23514972.174    23514981.697
  22172458.038     5881758.56649   4597211.58047  22172457.447    22172465.608
  20571724.950    -6927118.57449  -4956994.46247  20571724.172    20571731.834
  21296954.596     4095737.78849   3208106.28347  21296954.325    21296962.284
  24552342.960    -3326608.75849  -2570353.69144  24552342.527    24552352.228
  22812744.723    -1261556.31749   -957430.53346  22812744.515    22812752.761
  22862395.659   -14723704.68649 -11428058.67646  22862395.123    22862404.491
  20635673.627   -10348131.80649  -8032342.57947  20635673.151    20635679.411
  20546677.196    -4528331.95849  -3505276.60747  20546676.622    20546684.129
  24702956.192    -4885460.24749  -3453743.13545  24702955.220    24702966.092
 02  7 13 16 26 30.0000000  0 11G26G22G23G15G 6G 3G29G21G18G17G 2
  21917256.856    -4096130.72849  -3165220.82646  21917256.819    21917264.946
  23520887.889    -1913542.00849  -1454066.26745  23520886.939    23520896.484
  22186183.806     5953887.52249   4653415.90547  22186183.205    22186191.363
  20566870.132    -6952630.72049  -4976874.08347  20566869.372    20566877.014
  21310537.529     4167116.17949   3263725.72047  21310537.252    21310545.253
  24533097.327    -3427744.69549  -2649160.90745  24533096.771    24533106.469
  22819969.108    -1223592.00949   -927847.99146  22819968.924    22819977.250
  22848924.879   -14794493.90249 -11483219.09046  22848924.409    22848933.721
  20628672.127   -10384924.93149  -8061012.53647  20628671.638    20628677.927
  20544875.321    -4537800.83649  -3512654.96847  20544874.759    20544882.290
  24699192.296    -4905238.30149  -3469154.65945  24699191.685    24699202.492
 02  7 13 16 27  0.0000000  0 11G26G22G23G15G 6G 3G29G21G18G17G 2
  21921866.819    -4071905.43949  -3146344.02346  21921866.787    21921874.927
  23526890.680    -1881996.72949  -1429485.57345  23526889.812    23526899.406
  22199944.725     6026201.53249   4709764.42447  22199944.158    22199952.373
  20562060.147    -6977907.41949  -4996570.23147  20562059.392    20562067.068
  21324199.652     4238910.85249   3319669.53647  21324199.394    21324207.390
  24513876.494    -3528750.02549  -2727866.37745  24513876.286    24513885.945
  22827292.378    -1185108.51649   -897860.91246  22827292.155    22827300.460
  22835503.442   -14865024.01549 -11538177.59946  22835502.911    22835512.269
  20621753.883   -10421280.49449  -8089341.54347  20621753.397    20621759.696
  20543113.883    -4547057.23049  -3519867.75247  20543113.309    20543120.862
  24695513.465    -4924569.73249  -3484218.18245  24695513.122    24695523.883
 02  7 13 16 27 30.0000000  0 11G26G22G23G15G 6G 3G29G21G18G17G 2
  21926599.738    -4047034.12649  -3126963.82246  21926599.681    21926607.833
  23532981.295    -1849990.68749  -1404545.85845  23532980.436    23532990.103
  22213740.460     6098698.02849   4766255.13847  22213739.838    22213748.076
  20557295.048    -7002948.19049  -5016082.53547  20557294.321    20557301.981
  21337940.683     4311119.95449   3375936.27847  21337940.401    21337948.418
  24494681.060    -3629623.05749  -2806468.72745  24494680.666    24494690.464
  22834714.033    -1146107.42649   -867470.47846  22834713.807    22834722.168
  22822131.330   -14935294.96749 -11592934.16746  22822130.748    22822140.108
  20614918.759   -10457199.03449  -8117330.00847  20614918.299    20614924.639
  20541392.960    -4556100.87349  -3526914.74247  20541392.380    20541399.943
  24691920.073    -4943454.83649  -3498933.91745  24691919.569    24691930.191
 02  7 13 16 28  0.0000000  0 11G26G22G23G15G 6G 3G29G21G18G17G 2
  21931455.500    -4021516.99249  -3107080.37246  21931455.459    21931463.640
  23539159.347    -1817525.30349  -1379248.22045  23539158.509    23539168.159
  22227570.659     6171375.72649   4822887.04947  22227569.983    22227578.244
  20552575.059    -7027752.02649  -5035410.20747  20552574.299    20552582.007
  21351760.379     4383742.56449   3432525.23147  21351760.114    21351768.138
  24475511.174    -3730360.68849  -2884965.60445  24475511.006    24475520.825
  22842234.087    -1106589.43349   -836677.31646  22842233.840    22842242.253
  22808808.670   -15005305.63349 -11647487.91046  22808808.151    22808817.556
  20608167.066   -10492679.90949  -8144977.44447  20608166.533    20608172.883
  20539712.737    -4564930.80549  -3533795.20747  20539712.103    20539719.696
  24688411.595    -4961893.06449  -3513301.41045  24688410.899    24688421.561
 02  7 13 16 28 30.0000000  0 11G26G22G23G15G 6G 3G29G21G18G17G 2
  21936433.945    -3995355.06149  -3086694.48146  21936433.903    21936442.135
  23545424.418    -1784602.70449  -1353594.32045  23545423.483    23545433.223
  22241434.879     6244232.45049   4879658.46147  22241434.225    22241442.506
  20547900.172    -7052318.64649  -5054553.02247  20547899.415    20547907.140
  21365658.324     4456776.69349   3489434.85547  21365658.073    21365666.165
  24456367.594    -3830960.96949  -2963355.44145  24456367.459    24456377.211
  22849852.249    -1066556.20549   -805482.63046  22849851.987    22849860.362
  22795535.705   -15075055.55349 -11701838.47246  22795535.129    22795544.576
  20601498.414   -10527723.61949  -8172284.22947  20601497.920    20601504.267
  20538073.150    -4573546.95049  -3540509.10147  20538072.508    20538080.119
  24684987.744    -4979884.90249  -3527321.08245  24684987.179    24684997.958
 02  7 13 16 29  0.0000000  0 11G26G22G23G15G 6G 3G29G21G18G17G 2
  21941535.019    -3968548.74649  -3065806.47446  21941534.991    21941543.221
  23551776.001    -1751224.57449  -1327585.46445  23551775.235    23551784.876
  22255332.820     6317266.67849   4936568.17647  22255332.224    22255340.509
  20543270.587    -7076647.26549  -5073510.39247  20543269.840    20543277.596
  21379634.446     4530221.43449   3546664.42447  21379634.197    21379642.316
  24437250.718    -3931420.87549  -3041635.83945  24437250.514    24437260.204
  22857568.216    -1026008.24949   -773886.87546  22857568.035    22857576.435
  22782312.567   -15144543.91849 -11755985.24146  22782311.974    22782321.405
  20594913.181   -10562329.57049  -8199249.91647  20594912.669    20594919.001
  20536474.438    -4581948.02149  -3547055.41147  20536473.825    20536481.456
  24681649.099    -4997429.78149  -3540992.50245  24681648.660    24681659.259
 02  7 13 16 29 30.0000000  0 11G26G22G23G15G 6G 3G29G21G18G17G 2
  21946758.520    -3941099.33849  -3044417.34446  21946758.505    21946766.722
  23558213.941    -1717393.18149  -1301223.39245  23558213.119    23558222.835
  22269264.177     6390475.95249   4993614.30647  22269263.540    22269271.859
  20538686.326    -7100737.81549  -5092282.23647  20538685.584    20538693.355
  21393688.351     4604074.80049   3604212.40247  21393688.068    21393696.264
  24418161.026    -4031738.79749  -3119805.65745  24418160.729    24418170.441
  22865381.950     -984947.38949   -741891.48046  22865381.715    22865390.093
  22769139.058   -15213770.93349 -11809928.35546  22769138.514    22769147.958
  20588411.118   -10596498.19949  -8225874.82147  20588410.610    20588416.947
  20534916.707    -4590134.08549  -3553434.18947  20534916.093    20534923.732
  24678395.536    -5014527.91549  -3554315.78845  24678395.133    24678405.593
 02  7 13 16 30  0.0000000  0 11G26G22G23G15G 6G 3G29G21G18G17G 2
  21952104.137    -3913007.96349  -3022527.98246  21952104.144    21952112.357
  23564737.663    -1683110.75349  -1274509.89645  23564736.882    23564746.686
  22283228.311     6463858.03449   5050795.09047  22283227.712    22283236.070
  20534147.392    -7124590.09549  -5110868.41047  20534146.636    20534154.448
  21407819.706     4678335.07649   3662077.46147  21407819.425    21407827.631
  24399098.966    -4131912.59349  -3197863.13145  24399098.246    24399107.940
  22873292.918     -943375.28349   -709497.65046  22873292.609    22873301.068
  22756015.419   -15282736.28849 -11863667.57646  22756014.879    22756024.334
  20581992.121   -10630230.12249  -8252159.44147  20581991.654    20581998.007
  20533399.933    -4598104.72849  -3559645.09347  20533399.343    20533407.005
  24675226.966    -5031179.77249  -3567291.33045  24675226.436    24675236.929
 02  7 13 16 30 30.0000000  0 11G26G22G23G15G 6G 3G29G21G18G17G 2
  21957571.792    -3884275.12049  -3000138.76846  21957571.789    21957580.067
  23571347.044    -1648379.23249  -1247446.44345  23571346.076    23571355.967
  22297225.085     6537411.22849   5108109.21347  22297224.453    22297232.830
  20529653.967    -7148203.18449  -5129268.21347  20529653.227    20529661.043
  21422028.149     4753000.98649   3720258.60147  21422027.889    21422036.179
  24380064.570    -4231939.25349  -3275805.98245  24380063.903    24380073.511
  22881300.905     -901292.79049   -676706.18046  22881300.705    22881309.154
  22742941.719   -15351439.05249 -11917202.17746  22742941.150    22742950.638
  20575656.382   -10663524.89049  -8278103.42147  20575655.880    20575662.245
  20531924.289    -4605859.28749  -3565687.62547  20531923.725    20531931.377
  24672143.392    -5047384.98049  -3579918.82045  24672142.571    24672153.210
 02  7 13 16 31  0.0000000  0 11G26G22G23G15G 6G 3G29G21G18G17G 2
  21963161.426    -3854901.48349  -2977250.24246  21963161.430    21963169.678
  23578041.482    -1613200.25649  -1220034.32145  23578040.502    23578050.429
  22311254.034     6611133.74549   5165555.27247  22311253.421    22311261.799
  20525206.238    -7171576.30149  -5147481.03547  20525205.466    20525213.277
  21436313.611     4828071.22949   3778754.80747  21436313.329    21436321.693
  24361058.414    -4331816.55649  -3353632.44045  24361057.911    24361067.472
  22889405.908     -858700.98249   -643517.81346  22889405.684    22889414.104
  22729918.056   -15419878.76049 -11970531.80746  22729917.456    22729927.017
  20569403.829   -10696382.27249  -8303706.56647  20569403.318    20569409.707
  20530489.946    -4613396.87549  -3571561.08947  20530489.368    20530497.035
  24669144.505    -5063143.39049  -3592198.15145  24669143.898    24669154.724
 02  7 13 16 31 30.0000000  0 11G26G22G23G15G 6G 3G29G21G18G17G 2
  21968872.864    -3824887.99649  -2953863.13246  21968872.826    21968881.074
  23584820.593    -1577575.83049  -1192275.09445  23584819.669    23584829.586
  22325314.979     6685023.84449   5223131.91747  22325314.307    22325322.687
  20520804.249    -7194708.89249  -5165506.43947  20520803.493    20520811.307
  21450675.740     4903544.29349   3837564.89947  21450675.466    21450683.820
  24342080.942    -4431542.16549  -3431340.68245  24342080.609    24342090.558
  22897607.566     -815601.15349   -609933.56746  22897607.346    22897615.815
  22716944.500   -15488054.78649 -12023655.96946  22716943.967    22716953.499
  20563234.450   -10728802.53249  -8328969.10247  20563233.949    20563240.331
  20529097.015    -4620717.07049  -3577265.15647  20529096.412    20529104.065
  24666230.759    -5078454.99749  -3604129.32045  24666230.224    24666241.004
 02  7 13 16 32  0.0000000  0 11G26G22G23G15G 6G 3G29G21G18G17G 2
  21974705.861    -3794235.84949  -2929978.36146  21974705.837    21974714.024
  23591683.789    -1541508.34049  -1164170.62745  23591683.068    23591693.095
  22339407.317     6759079.30949   5280837.40947  22339406.630    22339415.070
  20516448.115    -7217600.56549  -5183344.11047  20516447.329    20516455.146
  21465114.134     4979418.34649   3896687.44847  21465113.871    21465122.249
  24323132.807    -4531113.74149  -3508928.88545  24323132.516    24323142.818
  22905905.702     -771994.83049   -575954.70046  22905905.432    22905913.857
  22704021.286   -15555966.78749 -12076574.38246  22704020.714    22704030.215
  20557148.237   -10760785.85649  -8353891.17247  20557147.713    20557154.108
  20527745.556    -4627819.20349  -3582799.30147  20527744.928    20527752.593
  24663402.155    -5093320.14049  -3615712.60445  24663401.553    24663412.400
 02  7 13 16 32 30.0000000  0 11G26G22G23G15G 6G 3G29G21G18G17G 2
  21980660.125    -3762946.15049  -2905596.79646  21980660.085    21980668.281
  23598631.030    -1504999.88849  -1135722.55345  23598630.328    23598640.440
  22353530.731     6833298.02249   5338670.10947  22353530.063    22353538.522
  20512137.848    -7240250.96549  -5200993.77347  20512137.093    20512144.939
  21479628.538     5055691.51949   3956121.00447  21479628.253    21479636.644
  24304214.730    -4630529.28549  -3586395.51745  24304214.173    24304224.762
  22914299.836     -727883.63649   -541582.38046  22914299.540    22914308.010
  22691148.245   -15623614.81549 -12129287.11746  22691147.745    22691157.197
  20551145.069   -10792332.60249  -8378473.05147  20551144.599    20551150.969
  20526435.566    -4634703.18749  -3588163.45947  20526434.965    20526442.638
  24660658.438    -5107739.15749  -3626948.25145  24660657.861    24660668.684
 02  7 13 16 33  0.0000000  0 11G26G22G23G15G 6G 3G29G21G18G17G 2
  21986735.471    -3731019.97349  -2880719.28646  21986735.450    21986743.668
  23605662.051    -1468052.61049  -1106932.54645  23605661.150    23605671.401
  22367684.837     6907678.03949   5396628.49947  22367684.164    22367692.603
  20507873.669    -7262659.42949  -5218454.90247  20507872.915    20507880.769
  21494218.547     5132362.25149   4015864.34247  21494218.272    21494226.701
  24285326.929    -4729786.27849  -3663738.60545  24285326.308    24285336.773
  22922789.725     -683268.82549   -506817.65046  22922789.513    22922797.989
  22678325.616   -15690997.67549 -12181793.22346  22678325.212    22678334.611
  20545224.981   -10823442.86349  -8402714.81947  20545224.487    20545230.877
  20525167.308    -4641368.22649  -3593357.01147  20525166.693    20525174.357
  24657999.486    -5121712.12949  -3637836.34645  24657999.052    24658009.730
 02  7 13 16 33 30.0000000  0 11G26G22G23G15G 6G 3G29G21G18G17G 2
  21992931.661    -3698459.02449  -2855347.15246  21992931.660    21992939.816
  23612775.997    -1430669.16249  -1077802.66745  23612775.106    23612785.235
  22381869.168     6982216.88949   5454710.65547  22381868.455    22381876.939
  20503655.525    -7284826.14049  -5235727.66347  20503654.745    20503662.588
  21508883.800     5209428.26249   4075915.69547  21508883.540    21508891.985
  24266469.345    -4828882.61649  -3740956.51645  24266468.933    24266479.434
  22931375.113     -638152.52349   -471662.15646  22931374.919    22931383.363
  22665553.462   -15758115.92149 -12234093.12646  22665553.004    22665562.422
  20539387.790   -10854117.36149  -8426617.02747  20539387.298    20539393.722
  20523940.659    -4647814.41649  -3598380.02747  20523940.022    20523947.711
  24655425.566    -5135239.71649  -3648377.34045  24655424.725    24655435.366
 02  7 13 16 34  0.0000000  0 11G26G22G23G15G 6G 3G29G21G18G17G 2
  21999248.497    -3665264.37849  -2829481.21646  21999248.467    21999256.614
  23619972.747    -1392851.90949  -1048334.76445  23619971.554    23619981.685
  22396083.431     7056912.71749   5512915.13347  22396082.654    22396091.131
  20499483.456    -7306750.52949  -5252811.61247  20499482.703    20499490.503
  21523623.945     5286887.80049   4136273.68947  21523623.665    21523632.117
  24247642.937    -4927816.31749  -3818047.66045  24247642.437    24247653.042
  22940055.735     -592536.16649   -436116.98746  22940055.490    22940063.917
  22652831.711   -15824969.24149 -12286186.59346  22652831.191    22652840.628
  20533633.582   -10884356.05549  -8450179.63647  20533633.092    20533639.511
  20522755.699    -4654041.32549  -3603232.16547  20522755.072    20522762.780
  24652936.306    -5148322.40049  -3658571.70045  24652935.108    24652945.929
 02  7 13 16 34 30.0000000  0 11G26G22G23G15G 6G 3G29G21G18G17G 2
  22005685.906    -3631435.84849  -2803121.35046  22005685.871    22005694.017
  23627251.399    -1354601.58649  -1018529.39945  23627250.445    23627260.440
  22410327.366     7131764.78749   5571241.35947  22410326.623    22410335.090
  20495357.874    -7328430.63249  -5269705.21047  20495357.130    20495364.901
  21538438.937     5364740.63049   4196938.14847  21538438.669    21538447.103
  24228847.958    -5026583.64549  -3895009.16545  24228847.728    24228858.168
  22948831.486     -546419.78949   -400182.19546  22948831.254    22948839.620
  22640160.631   -15891556.26249 -12338072.55146  22640160.073    22640169.484
  20527962.426   -10914158.14549  -8473402.02847  20527961.918    20527968.358
  20521612.917    -4660046.91049  -3607911.85047  20521612.263    20521619.988
  24650531.591    -5160958.88349  -3668418.39745  24650530.683    24650541.455
 02  7 13 16 35  0.0000000  0 11G26G22G23G15G 6G 3G29G21G18G17G 2
  22012243.708    -3596974.43749  -2776268.33046  22012243.681    22012251.852
  23634612.206    -1315920.08849   -988388.03645  23634611.479    23634621.478
  22424600.652     7206771.59249   5629688.15647  22424600.002    22424608.426
  20491278.868    -7349865.83249  -5286407.98347  20491278.153    20491285.922
  21553328.504     5442985.06049   4257907.73947  21553328.181    21553336.594
  24210085.157    -5125181.87349  -3971838.93545  24210085.007    24210095.457
  22957702.065     -499804.87949   -363858.93946  22957701.794    22957710.253
  22627540.382   -15957876.25249 -12389750.44146  22627539.820    22627549.153
  20522374.320   -10943523.72049  -8496284.29647  20522373.816    20522380.256
  20520512.315    -4665830.52249  -3612418.56147  20520511.665    20520519.417
  24648211.776    -5173149.38549  -3677917.54745  24648210.809    24648221.874
 02  7 13 16 35 30.0000000  0 11G26G22G23G15G 6G 3G29G21G18G17G 2
  22018921.541    -3561882.33949  -2748923.86746  22018921.527    22018929.684
  23642054.397    -1276810.61749   -957913.20345  23642053.787    23642063.832
  22438902.868     7281930.07449   5688253.13847  22438902.241    22438910.669
  20487246.414    -7371056.53649  -5302920.24047  20487245.685    20487253.459
  21568292.003     5521618.49149   4319180.45447  21568291.712    21568300.122
  24191355.021    -5223610.00949  -4048536.17045  24191354.803    24191365.196
  22966667.117     -452693.67649   -327148.96646  22966666.848    22966675.310
  22614970.916   -16023929.54849 -12441220.52746  22614970.322    22614979.574
  20516869.119   -10972453.99349  -8518827.37047  20516868.607    20516875.027
  20519453.929    -4671392.61949  -3616752.67247  20519453.278    20519461.026
  24645976.677    -5184894.93849  -3687069.96545  24645975.736    24645986.767
 02  7 13 16 36  0.0000000  0 11G26G22G23G15G 6G 3G29G21G18G17G 2
  22025719.246    -3526160.20049  -2721088.46246  22025719.232    22025727.455
  23649578.072    -1237275.12849   -927106.41945  23649577.228    23649587.321
  22453233.773     7357238.89949   5746935.27747  22453233.090    22453241.528
  20483260.755    -7392001.61349  -5319241.09547  20483259.974    20483267.768
  21583329.355     5600639.87149   4380755.46847  21583329.052    21583337.507
  24172658.021    -5321864.81149  -4125098.32645  24172657.607    24172667.907
  22975726.314     -405087.46349   -290053.26746  22975726.026    22975734.502
  22602452.248   -16089715.22149 -12492482.05046  22602451.649    22602460.964
  20511446.783   -11000948.58749  -8541030.94747  20511446.261    20511452.665
  20518437.838    -4676732.05149  -3620913.27147  20518437.211    20518444.958
  24643826.361    -5196195.10549  -3695875.36145  24643825.494    24643836.605
 02  7 13 16 36 30.0000000  0 11G26G22G23G15G 6G 3G29G21G18G17G 2
  22032636.562    -3489809.58549  -2692763.34746  22032636.553    22032644.771
  23657182.310    -1197315.82449   -895969.38445  23657181.384    23657191.407
  22467592.709     7432695.90149   5805732.87546  22467592.120    22467600.580
  20479321.800    -7412701.07449  -5335370.55947  20479321.031    20479328.814
  21598440.105     5680047.13449   4442631.16847  21598439.831    21598448.276
  24153993.954    -5419944.48149  -4201524.00045  24153993.598    24154003.895
  22984879.335     -356987.85049   -252573.09946  22984879.079    22984887.595
  22589984.581   -16155233.36749 -12543535.13546  22589983.990    22589993.304
  20506107.185   -11029008.16349  -8562895.54647  20506106.718    20506113.103
  20517464.248    -4681848.52849  -3624900.13547  20517463.615    20517471.340
  24641760.479    -5207050.57949  -3704334.21445  24641759.825    24641771.053
 02  7 13 16 37  0.0000000  0 11G26G22G23G15G 6G 3G29G21G18G17G 2
  22039673.225    -3452831.61449  -2663949.37046  22039673.212    22039681.452
  23664866.582    -1156934.97149   -864503.87245  23664865.694    23664875.670
  22481979.543     7508299.33449   5864644.57146  22481978.999    22481987.527
  20475429.782    -7433154.01449  -5351307.92847  20475429.015    20475436.775
  21613623.988     5759838.68849   4504806.31847  21613623.729    21613632.209
  24135363.686    -5517846.23749  -4277811.06245  24135363.406    24135373.908
  22994125.946     -308396.30449   -214709.60246  22994125.728    22994134.302
  22577567.920   -16220483.23249 -12594379.15346  22577567.366    22577576.648
  20500850.533   -11056632.67049  -8584421.13347  20500849.997    20500856.372
  20516533.137    -4686741.43949  -3628712.79347  20516532.530    20516540.233
  24639779.421    -5217461.56549  -3712446.72545  24639778.626    24639790.109
 02  7 13 16 37 30.0000000  0 11G26G22G23G15G 6G 3G29G21G18G17G 2
  22046829.018    -3415227.77549  -2634647.69246  22046828.998    22046837.284
  23672630.549    -1116134.83649   -832711.64645  23672629.690    23672639.688
  22496393.913     7584047.10049   5923668.74046  22496393.360    22496401.924
  20471584.730    -7453359.99949  -5367052.85747  20471583.957    20471591.720
  21628880.608     5840012.52249   4567279.34747  21628880.348    21628888.906
  24116767.704    -5615567.89449  -4353957.78445  24116767.509    24116778.174
  23003466.018     -259314.67049   -176464.23246  23003465.792    23003474.301
  22565202.364   -16285464.83249 -12645014.13946  22565201.756    22565211.033
  20495676.422   -11083822.71949  -8605608.16847  20495675.889    20495682.263
  20515644.681    -4691410.37749  -3632350.92247  20515644.065    20515651.769
  24637882.858    -5227428.74849  -3720213.39745  24637881.909    24637893.394
 02  7 13 16 38  0.0000000  0 11G26G22G23G15G 6G 3G29G21G18G17G 2
  22054103.714    -3376999.32249  -2604859.31546  22054103.662    22054111.986
  23680473.953    -1074917.79449   -800594.54645  23680473.119    23680483.082
  22510835.463     7659937.37849   5982803.95246  22510834.843    22510843.407
  20467786.747    -7473318.36549  -5382604.84147  20467786.036    20467793.763
  21644209.729     5920566.98049   4630048.96947  21644209.466    21644218.014
  24098206.813    -5713106.88649  -4429962.13845  24098206.489    24098216.965
  23012898.993     -209744.36349   -137838.04746  23012898.762    23012907.233
  22552887.905   -16350177.76749 -12695439.78446  22552887.271    22552896.485
  20490584.949   -11110578.65749  -8626456.94147  20490584.444    20490590.775
  20514798.993    -4695854.55949  -3635813.92847  20514798.361    20514806.085
  24636070.568    -5236952.34549  -3727634.43545  24636069.803    24636080.991
 02  7 13 16 38 30.0000000  0 11G26G22G23G15G 6G 3G29G21G18G17G 2
  22061496.955    -3338147.67749  -2574585.33546  22061496.894    22061505.258
  23688396.244    -1033286.18649   -768154.41445  23688395.464    23688405.397
  22525303.825     7735968.17049   6042048.66446  22525303.067    22525311.676
  20464036.015    -7493028.72649  -5397963.55847  20464035.263    20464042.993
  21659610.839     6001500.15049   4693113.68347  21659610.563    21659619.178
  24079680.879    -5810460.91749  -4505822.39145  24079680.614    24079691.088
  23022424.589     -159687.09349    -98832.42546  23022424.327    23022432.867
  22540624.575   -16414621.79049 -12745655.87146  22540623.990    22540633.178
  20485576.027   -11136900.76549  -8646967.66647  20485575.501    20485581.815
  20513996.131    -4700073.52849  -3639101.44247  20513995.526    20514003.273
  24634342.613    -5246032.70349  -3734710.08745  24634341.890    24634352.985
 02  7 13 16 39  0.0000000  0 11G26G22G23G15G 6G 3G29G21G18G17G 2
  22069008.480    -3298674.11149  -2543826.73146  22069008.453    22069016.850
  23696397.096     -991242.07949   -735392.84645  23696396.216    23696406.178
  22539798.475     7812137.78649   6101401.55146  22539797.732    22539806.376
  20460332.602    -7512490.40349  -5413128.48947  20460331.857    20460339.609
  21675083.782     6082810.46349   4756472.28747  21675083.502    21675092.121
  24061190.632    -5907627.63849  -4581536.70345  24061190.394    24061200.862
  23032042.583     -109144.21849    -59448.40246  23032042.319    23032050.899
  22528412.471   -16478796.92349 -12795662.44246  22528411.875    22528421.052
  20480649.685   -11162789.09949  -8667140.38347  20480649.132    20480655.439
  20513236.308    -4704066.55049  -3642212.89547  20513235.693    20513243.434
  24632699.067    -5254670.12749  -3741440.59445  24632698.307    24632709.361
 02  7 13 16 39 30.0000000  0 11G26G22G23G15G 6G 3G29G21G18G17G 2
  22076638.252    -3258579.78649  -2512584.42946  22076638.182    22076646.558
  23704476.050     -948787.63349   -702311.55745  23704475.143    23704484.995
  22554319.113     7888444.39349   6160861.18246  22554318.410    22554327.103
  20456676.577    -7531702.87749  -5428099.25647  20456675.838    20456683.593
  21690628.068     6164496.13249   4820123.36847  21690627.831    21690636.473
  24042736.694    -6004604.13349  -4657102.77845  24042736.380    24042746.803
  23041752.724      -58117.34949    -19687.24846  23041752.446    23041761.063
  22516251.588   -16542702.23549 -12845458.77546  22516251.034    22516260.258
  20475805.773   -11188243.88749  -8686975.27747  20475805.255    20475811.576
  20512519.593    -4707832.91449  -3645147.74147  20512518.979    20512526.724
  24631139.442    -5262864.83549  -3747826.12645  24631138.987    24631150.056
 02  7 13 16 40  0.0000000  0 11G26G22G23G15G 6G 3G29G21G18G17G 2
  22084385.717    -3217866.47549  -2480859.79346  22084385.678    22084394.037
  23712632.596     -905925.51349   -668912.58445  23712631.677    23712641.461
  22568865.494     7964886.05149   6220426.04846  22568864.820    22568873.523
  20453068.121    -7550665.65049  -5442875.45447  20453067.376    20453075.096
  21706243.491     6246555.20449   4884065.41347  21706243.220    21706251.847
  24024319.426    -6101388.57149  -4732519.15845  24024318.980    24024329.377
  23051554.556       -6608.41549     20449.55446  23051554.291    23051562.969
  22504142.120   -16606337.75549 -12895044.86646  22504141.597    22504150.818
  20471044.262   -11213265.83849  -8706472.88847  20471043.721    20471050.060
  20511846.052    -4711372.35149  -3647905.76147  20511845.455    20511853.192
  24629664.097    -5270617.55349  -3753867.26245  24629663.779    24629674.858
 02  7 13 16 40 30.0000000  0 11G26G22G23G15G 6G 3G29G21G18G17G 2
  22092250.764    -3176535.67649  -2448654.01646  22092250.683    22092259.056
  23720866.243     -862658.29149   -635197.94345  23720865.297    23720875.125
  22583437.196     8041460.68249   6280094.53146  22583436.512    22583445.269
  20449507.220    -7569378.08649  -5457456.56847  20449506.501    20449514.229
  21721929.569     6328985.72449   4948296.89647  21721929.341    21721937.936
  24005938.882    -6197978.52149  -4807783.97745  24005938.425    24005948.892
  23061447.794       45380.81249     60960.60346  23061447.532    23061456.268
  22492083.919   -16669703.52749 -12944420.76946  22492083.395    22492092.674
  20466365.001   -11237855.45149  -8725633.61347  20466364.451    20466370.810
  20511215.819    -4714684.27649  -3650486.49147  20511215.221    20511222.976
  24628273.391    -5277928.69749  -3759564.33845  24628272.532    24628283.553
 02  7 13 16 41  0.0000000  0 11G26G22G23G15G 6G 3G29G21G18G17G 2
  22100233.014    -3134588.68449  -2415968.07146  22100232.977    22100241.328
  23729176.527     -818987.72549   -601169.01945  23729175.584    23729185.489
  22598033.827     8118166.87849   6339865.52046  22598033.207    22598042.007
  20445994.222    -7587839.26849  -5471841.89847  20445993.483    20446001.185
  21737686.087     6411786.26249   5012816.70747  21737685.823    21737694.417
  23987595.680    -6294371.06749  -4882894.98645  23987595.513    23987605.897
  23071432.293       97849.18949    101845.01846  23071432.030    23071440.692
  22480077.241   -16732799.03649 -12993586.08246  22480076.726    22480085.981
  20461767.987   -11262012.59849  -8744457.35447  20461767.493    20461773.854
  20510629.073    -4717767.71149  -3652889.18147  20510628.467    20510636.227
  24626966.150    -5284798.38249  -3764917.37145  24626965.327    24626976.324
 02  7 13 16 41 30.0000000  0 11G26G22G23G15G 6G 3G29G21G18G17G 2
  22108332.256    -3092026.82149  -2382803.01346  22108332.220    22108340.628
  23737563.034     -774916.15549   -566827.62345  23737562.088    23737572.098
  22612655.284     8195002.82749   6399737.62346  22612654.685    22612663.486
  20442529.077    -7606048.82149  -5486031.16147  20442528.322    20442536.032
  21753512.572     6494954.83749   5077623.29147  21753512.346    21753520.965
  23969290.744    -6390563.67849  -4957850.20245  23969290.686    23969301.049
  23081507.613      150794.80749    143101.31346  23081507.355    23081515.967
  22468122.125   -16795623.65949 -13042540.30446  22468121.543    22468130.851
  20457253.279   -11285737.73049  -8762944.46447  20457252.729    20457259.089
  20510085.927    -4720622.00749  -3655113.32247  20510085.323    20510093.064
  24625742.481    -5291226.93449  -3769926.69745  24625741.994    24625753.270
 02  7 13 16 42  0.0000000  0 11G26G22G23G15G 6G 3G29G21G18G17G 2
  22116548.185    -3048851.86949  -2349160.21246  22116548.162    22116556.573
  23746025.392     -730446.29549   -532175.87645  23746024.489    23746034.561
  22627301.075     8271966.47349   6459709.23146  22627300.426    22627309.238
  20439111.952    -7624006.05349  -5500023.81447  20439111.208    20439118.888
  21769408.807     6578489.39049   5142715.06047  21769408.552    21769417.186
  23951024.414    -6486554.31049  -5032648.07245  23951024.351    23951034.561
  23091673.300      204215.77949    184728.00746  23091673.047    23091681.695
  22456218.530   -16858177.20249 -13091283.29046  22456217.964    22456227.332
  20452820.568   -11309031.39649  -8781095.35847  20452820.097    20452826.440
  20509586.439    -4723246.86749  -3657158.68847  20509585.819    20509593.601
  24624603.152    -5297215.31749  -3774593.01345  24624602.602    24624613.733
 02  7 13 16 42 30.0000000  0 11G26G22G23G15G 6G 3G29G21G18G17G 2
  22124880.499    -3005065.44449  -2315040.94946  22124880.504    22124888.878
  23754563.078     -685580.53649   -497215.64145  23754562.139    23754572.344
  22641970.747     8349055.95949   6519778.89446  22641970.100    22641978.923
  20435742.920    -7641710.54649  -5513819.53847  20435742.160    20435749.863
  21785374.214     6662387.98749   5208090.49647  21785373.959    21785382.641
  23932796.912    -6582340.67549  -5107286.73445  23932796.780    23932806.940
  23101929.116      258110.38949    226723.78646  23101928.868    23101937.546
  22444366.561   -16920459.48349 -13139814.91446  22444366.039    22444375.395
  20448469.950   -11331894.17749  -8798910.50147  20448469.459    20448475.806
  20509130.726    -4725641.67449  -3659024.78647  20509130.115    20509137.909
  24623547.343    -5302764.07549  -3778916.81345  24623546.683    24623557.802
 02  7 13 16 43  0.0000000  0 11G26G22G23G15G 6G 3G29G21G18G17G 2
  22133328.930    -2960668.78449  -2280446.17446  22133328.955    22133337.324
  23763175.814     -640320.83449   -461948.43045  23763174.876    23763185.125
  22656664.142     8426270.01849   6579945.63246  22656663.528    22656672.373
  20432422.089    -7659161.51749  -5527417.70447  20432421.339    20432429.003
  21801408.636     6746649.15549   5273748.44147  21801408.378    21801417.117
  23914608.963    -6677920.03749  -5181764.12245  23914608.730    23914618.748
  23112274.792      312477.35649    269087.62746  23112274.595    23112283.315
  22432566.397   -16982470.04049 -13188134.79646  22432565.858    22432575.184
  20444201.238   -11354326.25049  -8816390.02847  20444200.744    20444207.110
  20508718.981    -4727805.31549  -3660710.75847  20508718.400    20508726.174
  24622575.203    -5307873.26949  -3782898.03045  24622574.497    24622585.624
 02  7 13 16 43 30.0000000  0 11G26G22G23G15G 6G 3G29G21G18G17G 2
  22141893.008    -2915664.45349  -2245377.89146  22141893.006    22141901.398
  23771862.870     -594670.79249   -426377.05545  23771861.902    23771872.164
  22671380.668     8503605.73549   6640207.15846  22671380.090    22671388.941
  20429149.536    -7676359.02849  -5540818.37047  20429148.775    20429156.434
  21817511.588     6831270.18349   5339686.80047  21817511.341    21817520.042
  23896460.519    -6773290.88349  -5256079.02945  23896460.315    23896470.110
  23122709.829      367313.67349    311817.19946  23122709.552    23122718.315
  22420817.733   -17044209.77049 -13236243.63946  22420817.181    22420826.447
  20440014.282   -11376328.76249  -8833534.83047  20440013.783    20440020.178
  20508351.224    -4729738.22249  -3662216.93347  20508350.614    20508358.419
  24621686.321    -5312544.46249  -3786537.99045  24621685.642    24621696.820
 02  7 13 16 44  0.0000000  0 11G26G22G23G15G 6G 3G29G21G18G17G 2
  22150572.646    -2870052.69849  -2209836.28946  22150572.647    22150581.043
  23780623.862     -548631.27749   -390502.20945  23780622.997    23780633.293
  22686120.275     8581062.61449   6700563.10646  22686119.666    22686128.523
  20425925.557    -7693301.25349  -5554020.10847  20425924.806    20425932.467
  21833682.881     6916250.30149   5405904.96247  21833682.616    21833691.319
  23878352.508    -6868449.59149  -5330228.62345  23878352.131    23878361.967
  23133234.107      422619.11549    354912.31946  23133233.825    23133242.623
  22409120.885   -17105677.15249 -13284140.26946  22409120.319    22409129.582
  20435909.225   -11397900.90949  -8850344.27947  20435908.745    20435915.126
  20508027.700    -4731438.43349  -3663541.78847  20508027.088    20508034.892
  24620881.017    -5316777.04849  -3789836.15545  24620880.329    24620891.423
 02  7 13 16 44 30.0000000  0 11G26G22G23G15G 6G 3G29G21G18G17G 2
  22159367.537    -2823835.50949  -2173822.92646  22159367.549    22159375.927
  23789458.427     -502205.17749   -354326.12345  23789457.571    23789467.871
  22700882.511     8658638.57249   6761011.82846  22700881.936    22700890.811
  20422750.254    -7709987.71149  -5567022.54647  20422749.495    20422757.161
  21849921.999     7001587.29349   5472401.20547  21849921.754    21849930.549
  23860285.167    -6963393.64249  -5404210.93245  23860284.749    23860294.727
  23143847.300      478391.59849    398371.37246  23143847.018    23143855.811
  22397475.799   -17166871.95349 -13331824.50446  22397475.271    22397484.542
  20431885.989   -11419043.48049  -8866818.99547  20431885.440    20431891.821
  20507748.517    -4732905.66349  -3664685.10947  20507747.911    20507755.710
  24620159.110    -5320571.62349  -3792793.02345  24620158.339    24620169.580
 02  7 13 16 45  0.0000000  0 11G26G22G23G15G 6G 3G29G21G18G17G 2
  22168277.230    -2777014.76849  -2137339.25646  22168277.241    22168285.654
  23798366.161     -455395.00349   -317850.77145  23798365.264    23798375.649
  22715667.132     8736331.56849   6821551.75046  22715666.481    22715675.401
  20419623.648    -7726418.08949  -5579825.44847  20419622.899    20419630.569
  21866228.618     7087278.98249   5539173.84047  21866228.415    21866237.244
  23842258.900    -7058120.65049  -5478024.12945  23842258.509    23842268.752
  23154548.937      534629.02549    442192.71646  23154548.669    23154557.426
  22385882.705   -17227793.76349 -13379296.00346  22385882.226    22385891.566
  20427944.212   -11439757.33449  -8882959.64047  20427943.709    20427950.082
  20507513.776    -4734139.31149  -3665646.40147  20507513.174    20507520.972
  24619520.217    -5323929.15749  -3795409.34045  24619519.401    24619530.645
 02  7 13 16 45 30.0000000  0 11G26G22G23G15G 6G 3G29G21G18G17G 2
  22177301.504    -2729592.04649  -2100386.51346  22177301.534    22177309.947
  23807346.674     -408203.19649   -281078.02745  23807345.707    23807356.113
  22730473.675     8814140.00649   6882181.63746  22730473.021    22730481.924
  20416545.917    -7742591.73049  -5592428.30147  20416545.170    20416552.848
  21882602.473     7173323.73449   5606221.59047  21882602.259    21882611.107
  23824274.379    -7152628.23649  -5551666.34745  23824274.148    23824284.459
  23165338.802      591329.86749    486375.15546  23165338.500    23165347.246
  22374341.574   -17288442.90349 -13426555.03646  22374341.076    22374350.443
  20424083.993   -11460042.81749  -8898766.49747  20424083.491    20424089.887
  20507323.635    -4735138.70749  -3666425.15647  20507323.026    20507330.795
  24618963.980    -5326850.17549  -3797685.52345  24618963.456    24618974.837
 02  7 13 16 46  0.0000000  0 11G26G22G23G15G 6G 3G29G21G18G17G 2
  22186439.794    -2681570.13249  -2062966.86046  22186439.787    22186448.276
  23816398.918     -360633.37049   -244010.72745  23816398.080    23816408.558
  22745301.617     8892061.05749   6942899.27046  22745300.955    22745309.841
  20413516.978    -7758509.17649  -5604831.51347  20413516.197    20413523.878
  21899042.991     7259718.48549   5673542.06547  21899042.708    21899051.601
  23806332.109    -7246915.03149  -5625136.52745  23806331.849    23806342.185
  23176216.237      648491.04949    530916.30446  23176215.950    23176224.661
  22362852.069   -17348820.62249 -13473602.57446  22362851.530    22362860.882
  20420305.041   -11479901.23349  -8914240.57647  20420304.547    20420310.932
  20507177.915    -4735904.43449  -3667021.83247  20507177.316    20507185.093
  24618490.884    -5329336.33049  -3799622.85045  24618490.433    24618501.678
 02  7 13 16 46 30.0000000  0 11G26G22G23G15G 6G 3G29G21G18G17G 2
  22195691.985    -2632949.50349  -2025080.67946  22195691.972    22195700.588
  23825522.968     -312686.42949   -206649.57045  23825522.154    23825532.669
  22760150.912     8970094.39049   7003704.40046  22760150.296    22760159.153
  20410537.129    -7774168.22049  -5617033.37147  20410536.380    20410544.045
  21915550.004     7346462.69849   5741134.85247  21915549.720    21915558.577
  23788432.559    -7340977.22949  -5698431.69645  23788432.460    23788442.508
  23187181.196      706112.15449    575815.83246  23187180.929    23187189.632
  22351414.476   -17408925.03149 -13520437.13346  22351413.968    22351423.310
  20416607.568   -11499331.87749  -8929381.32947  20416607.047    20416613.412
  20507077.083    -4736434.38449  -3667434.78547  20507076.486    20507084.248
  24618100.795    -5331386.96849  -3801220.82345  24618100.313    24618111.448
 02  7 13 16 47  0.0000000  0 11G26G22G23G15G 6G 3G29G21G18G17G 2
  22205057.739    -2583732.13749  -1986729.51246  22205057.728    22205066.303
  23834718.386     -264365.22949   -168996.77145  23834717.448    23834728.004
  22775021.157     9048237.93649   7064595.40146  22775020.591    22775029.456
  20407606.563    -7789568.64449  -5629033.70847  20407605.789    20407613.468
  21932123.048     7433554.09249   5808998.15647  21932122.737    21932131.618
  23770576.099    -7434812.57649  -5771550.09545  23770576.193    23770586.258
  23198233.220      764191.08149    621072.11346  23198232.988    23198241.755
  22340028.909   -17468756.28949 -13567058.84946  22340028.410    22340037.737
  20412991.293   -11518335.63349  -8944189.44247  20412990.751    20412997.115
  20507021.184    -4736728.13449  -3667663.69247  20507020.575    20507028.373
  24617793.631    -5333002.84549  -3802479.99945  24617792.856    24617803.939
 02  7 13 16 47 30.0000000  0 11G26G22G23G15G 6G 3G29G21G18G17G 2
  22214536.725    -2533919.83349  -1947914.76446  22214536.716    22214545.254
  23843984.430     -215672.43249   -131054.43245  23843983.494    23843993.994
  22789912.087     9126489.92949   7125570.91046  22789911.502    22789920.385
  20404725.331    -7804709.86249  -5640832.05947  20404724.553    20404732.227
  21948761.662     7520990.46949   5877130.28347  21948761.378    21948770.284
  23752763.623    -7528418.80949  -5844489.97245  23752763.534    23752773.595
  23209372.006      822725.70349    666683.46946  23209371.736    23209380.488
  22328695.466   -17528314.19249 -13613467.56646  22328694.906    22328704.200
  20409456.138   -11536913.01949  -8958665.32948  20409455.598    20409461.950
  20507010.336    -4736785.19249  -3667708.16047  20507009.733    20507017.529
  24617568.355    -5334184.84349  -3803401.09845  24617567.922    24617579.073
 02  7 13 16 48  0.0000000  0 11G26G22G23G15G 6G 3G29G21G18G17G 2
  22224128.499    -2483514.87849  -1908638.18646  22224128.496    22224137.053
  23853320.811     -166610.71149    -92824.61645  23853319.680    23853330.278
  22804823.332     9204848.40749   7186629.39246  22804822.670    22804831.577
  20401893.453    -7819591.28449  -5652427.96947  20401892.694    20401900.377
  21965465.548     7608769.70349   5945529.58347  21965465.285    21965474.234
  23734995.128    -7621793.61649  -5917249.51445  23734995.035    23735005.016
  23220597.096      881714.03649    712648.37746  23220596.875    23220605.637
  22317413.971   -17587599.03149 -13659663.49746  22317413.376    22317422.652
  20406001.920   -11555064.71849  -8972809.50648  20406001.439    20406007.783
  20507044.666    -4736604.89749  -3667567.67147  20507044.059    20507051.843
  24617426.115    -5334933.85849  -3803984.80045  24617425.442    24617436.656
 02  7 13 16 48 30.0000000  0 11G26G22G23G15G 6G 3G29G21G18G17G 2
  22233832.789    -2432518.76449  -1868900.99646  22233832.777    22233841.311
  23862726.720     -117182.53549    -54309.24745  23862725.669    23862736.210
  22819754.512     9283311.62849   7247769.48546  22819753.763    22819762.685
  20399111.177    -7834212.42649  -5663821.04747  20399110.400    20399118.078
  21982234.342     7696889.90349   6014194.54947  21982234.066    21982243.118
  23717271.273    -7714934.60949  -5989826.85645  23717270.975    23717280.928
  23231908.270      941154.33749    758965.45346  23231908.015    23231916.801
  22306184.427   -17646610.10649 -13705646.11146  22306183.890    22306193.151
  20402628.660   -11572791.54549  -8986622.61348  20402628.144    20402634.453
  20507124.223    -4736186.79849  -3667241.88047  20507123.634    20507131.404
  24617365.993    -5335250.51549  -3804231.61645  24617365.223    24617376.450
 02  7 13 16 49  0.0000000  0 11G26G22G23G15G 6G 3G29G21G18G17G 2
  22243649.205    -2380933.62849  -1828704.79346  22243649.142    22243657.600
  23872201.817      -67390.62249    -15510.44745  23872200.929    23872211.255
  22834705.228     9361877.83349   7308989.83246  22834704.493    22834713.437
  20396378.461    -7848572.92949  -5675011.04447  20396377.692    20396385.372
  21999067.591     7785348.90249   6083123.51746  21999067.302    21999076.397
  23699592.262    -7807839.13049  -6062219.94545  23699591.814    23699601.767
  23243304.952     1001044.41749    805633.01046  23243304.755    23243313.553
  22295006.956   -17705347.91649 -13751415.80346  22295006.448    22295015.686
  20399336.196   -11590093.95449  -9000105.00548  20399335.634    20399341.941
  20507249.181    -4735530.29749  -3666730.32447  20507248.577    20507256.368
  24617387.817    -5335135.77049  -3804142.27245  24617387.048    24617398.528
 02  7 13 16 49 30.0000000  0 11G26G22G23G15G 6G 3G29G21G18G17G 2
  22253577.347    -2328760.33649  -1788050.30546  22253577.389    22253585.884
  23881745.725      -17236.42149     23570.65645  23881744.922    23881755.300
  22849675.357     9440546.37349   7370289.90946  22849674.679    22849683.682
  20393695.679    -7862670.99849  -5685996.56347  20393694.909    20393702.583
  22015965.143     7874145.77049   6152315.76346  22015964.875    22015973.919
  23681958.853    -7900503.77049  -6134426.10745  23681958.331    23681968.250
  23254787.175     1061383.41749    852650.37346  23254786.956    23254795.800
  22283881.795   -17763811.00849 -13796971.42147  22283881.240    22283890.478
  20396124.469   -11606971.50449  -9013256.34148  20396123.907    20396130.227
  20507419.856    -4734633.52349  -3666031.54647  20507419.229    20507427.019
  24617491.657    -5334589.29249  -3803716.51645  24617491.046    24617502.868
 02  7 13 16 50  0.0000000  0 11G26G22G23G15G 6G 3G29G21G18G17G 2
  22263617.115    -2276001.65149  -1746939.68846  22263617.099    22263625.564
  23891358.048       33276.46349     62931.24545  23891357.257    23891367.644
  22864664.444     9519314.57649   7431667.64546  22864663.793    22864672.874
  20391062.798    -7876506.77549  -5696777.69747  20391062.032    20391069.716
  22032926.558     7963277.53049   6221768.97446  22032926.252    22032935.227
  23664371.142    -7992927.05349  -6206444.19545  23664370.747    23664380.644
  23266354.173     1122168.61649    900015.41546  23266353.979    23266362.857
  22272808.736   -17822000.28349 -13842313.67247  22272808.186    22272817.439
  20392993.257   -11623425.94449  -9026077.97848  20392992.725    20392999.084
  20507636.167    -4733496.88649  -3665145.86747  20507635.549    20507643.327
  24617677.619    -5333612.97649  -3802955.83545  24617676.657    24617688.887
 02  7 13 16 50 30.0000000  0 11G26G22G23G15G 6G 3G29G21G18G17G 2
  22273767.797    -2222659.48949  -1705374.37346  22273767.772    22273776.257
  23901038.237       84145.58049    102569.41145  23901037.376    23901047.781
  22879672.171     9598180.69149   7493121.67746  22879671.613    22879680.648
  20388479.978    -7890079.66449  -5707353.98347  20388479.210    20388486.919
  22049951.101     8052742.03349   6291481.44646  22049950.807    22049959.908
  23646829.760    -8085106.54449  -6278272.31345  23646829.451    23646839.381
  23278005.713     1183397.96449    947726.55146  23278005.612    23278014.494
  22261787.737   -17879915.75049 -13887442.55347  22261787.205    22261796.450
  20389942.553   -11639457.66749  -9038570.22548  20389941.987    20389948.372
  20507898.249    -4732119.67049  -3664072.71347  20507897.618    20507905.389
  24617945.175    -5332207.50749  -3801860.75145  24617944.121    24617956.564
 02  7 13 16 51  0.0000000  0 11G26G22G23G15G 6G 3G29G21G18G17G 2
  22284029.146    -2168735.54249  -1663355.76746  22284029.168    22284037.625
  23910785.879      135368.77649    142483.49345  23910784.978    23910795.403
  22894698.367     9677143.47949   7554651.05046  22894697.780    22894706.791
  20385947.346    -7903388.65949  -5717724.63447  20385946.583    20385954.286
  22067038.645     8142537.54349   6361451.85146  22067038.377    22067047.591
  23629335.270    -8177039.12849  -6349908.04645  23629335.191    23629345.029
  23289741.552     1245069.70549    995782.40646  23289741.387    23289750.279
  22250819.117   -17937556.29549 -13932357.21847  22250818.569    22250827.786
  20386972.201   -11655066.92149  -9050733.27548  20386971.623    20386977.993
  20508206.306    -4730500.89649  -3662811.33247  20508205.685    20508213.438
  24618294.307    -5330373.26349  -3800431.53445  24618293.490    24618305.521
 02  7 13 16 51 30.0000000  0 11G26G22G23G15G 6G 3G29G21G18G17G 2
  22294400.762    -2114232.54249  -1620885.93146  22294400.748    22294409.236
  23920600.146      186942.58149    182670.77145  23920599.173    23920609.673
  22909742.523     9756200.55749   7616253.88646  22909741.906    22909750.976
  20383464.896    -7916433.77349  -5727889.66047  20383464.161    20383471.907
  22084188.790     8232661.43849   6431678.13746  22084188.514    22084197.703
  23611888.440    -8268722.95749  -6421349.95045  23611888.250    23611898.058
  23301561.116     1307181.27449   1044180.98546  23301560.855    23301569.737
  22239902.522   -17994923.17549 -13977058.63547  22239902.016    22239911.184
  20384081.930   -11670255.11149  -9062568.22248  20384081.404    20384087.771
  20508560.377    -4728640.40149  -3661361.59647  20508559.750    20508567.533
  24618724.946    -5328112.01649  -3798669.55645  24618723.543    24618735.766
 02  7 13 16 52  0.0000000  0 11G26G22G23G15G 6G 3G29G21G18G17G 2
  22304882.286    -2059151.69049  -1577965.82446  22304882.301    22304890.816
  23930480.769      238865.10449    223129.79045  23930479.763    23930490.173
  22924804.374     9835350.94549   7677929.43546  22924803.748    22924812.829
  20381033.018    -7929213.60549  -5737847.97247  20381032.265    20381039.999
  22101401.122     8323112.08549   6502159.04546  22101400.809    22101409.953
  23594489.583    -8360155.28549  -6492595.87345  23594489.205    23594499.076
  23313463.973     1369731.37449   1092921.27446  23313463.765    23313472.708
  22229038.273   -18052015.18249 -14021545.86647  22229037.748    22229046.839
  20381271.859   -11685022.05649  -9074074.93148  20381271.349    20381277.717
  20508960.645    -4726536.96349  -3659722.55147  20508960.012    20508967.793
  24619236.093    -5325423.75949  -3796574.89345  24619235.188    24619247.432
 02  7 13 16 52 30.0000000  0 11G26G22G23G15G 6G 3G29G21G18G17G 2
  22315473.449    -2003495.07649  -1534597.08946  22315473.449    22315481.975
  23940427.210      291133.64349    263858.41645  23940426.218    23940436.732
  22939883.623     9914592.67749   7739676.16646  22939882.999    22939892.117
  20378651.631    -7941727.73049  -5747599.23147  20378650.874    20378658.615
  22118675.192     8413887.48049   6572893.00246  22118674.880    22118684.040
  23577139.039    -8451333.88149  -6563644.09245  23577138.447    23577148.370
  23325449.976     1432717.97449   1142001.69646  23325449.797    23325458.710
  22218226.269   -18108832.39949 -14065818.98347  22218225.723    22218234.850
  20378541.754   -11699368.79949  -9085254.21348  20378541.250    20378547.619
  20509407.230    -4724190.19249  -3657893.88947  20509406.593    20509414.371
  24619828.849    -5322309.47849  -3794148.27045  24619827.887    24619839.971
 02  7 13 16 53  0.0000000  0 11G26G22G23G15G 6G 3G29G21G18G17G 2
  22326173.720    -1947264.95149  -1490781.44846  22326173.751    22326182.228
  23950438.913      343745.53249    304854.59445  23950437.997    23950448.498
  22954980.004     9993924.23749   7801492.89546  22954979.369    22954988.517
  20376320.943    -7953975.62849  -5757143.04447  20376320.197    20376327.931
  22136010.666     8504985.49049   6643878.33246  22136010.379    22136019.576
  23559837.015    -8542256.08649  -6634492.51645  23559836.525    23559846.463
  23337518.663     1496138.86549   1191420.52346  23337518.452    23337527.356
  22207466.454   -18165375.48649 -14109878.50347  22207465.921    22207475.018
  20375891.545   -11713295.98349  -9096106.56648  20375890.994    20375897.334
  20509900.259    -4721599.20049  -3655874.93047  20509899.632    20509907.398
  24620502.709    -5318770.03849  -3791390.32845  24620501.512    24620513.370
 02  7 13 16 53 30.0000000  0 11G26G22G23G15G 6G 3G29G21G18G17G 2
  22336982.812    -1890462.96949  -1446520.21146  22336982.809    22336991.323
  23960515.640      396698.53849    346116.57945  23960514.641    23960525.134
  22970093.146    10073344.17549   7863378.48646  22970092.496    22970101.708
  20374041.097    -7965956.34449  -5766478.67347  20374040.325    20374048.088
  22153407.269     8596404.28449   6715113.63946  22153406.945    22153416.130
  23542584.383    -8632919.07349  -6705138.94045  23542583.799    23542593.898
  23349669.590     1559992.29849   1241176.37846  23349669.410    23349678.303
  22196758.979   -18221643.60249 -14153723.74947  22196758.464    22196767.527
  20373321.171   -11726803.80749  -9106632.14748  20373320.564    20373326.890
  20510439.934    -4718763.14349  -3653665.02347  20510439.318    20510447.061
  24621256.697    -5314806.17349  -3788301.70245  24621255.610    24621267.662
 02  7 13 16 54  0.0000000  0 11G26G22G23G15G 6G 3G29G21G18G17G 2
  22347900.263    -1833091.66849  -1401815.36546  22347900.270    22347908.753
  23970656.601      449989.48149    387641.87945  23970655.670    23970666.216
  22985222.721    10152850.53849   7925331.42546  22985222.102    22985231.334
  20371812.125    -7977669.64949  -5775605.91447  20371811.339    20371819.142
  22170864.341     8688141.44349   6786597.01746  22170864.040    22170873.309
  23525381.342    -8723320.68649  -6775581.71745  23525380.967    23525391.040
  23361902.501     1624275.95849   1291267.48146  23361902.232    23361911.117
  22186103.728   -18277637.38549 -14197355.23147  22186103.170    22186112.262
  20370830.281   -11739893.61449  -9116832.00048  20370829.708    20370835.998
  20511026.363    -4715681.63249  -3651263.86247  20511025.732    20511033.480
  24622091.720    -5310419.21949  -3784883.36845  24622090.571    24622102.548
 02  7 13 16 54 30.0000000  0 11G26G22G23G15G 6G 3G29G21G18G17G 2
  22358925.719    -1775152.69249  -1356668.15746  22358925.698    22358934.211
  23980861.539      503616.21449    429428.82145  23980860.555    23980871.317
  23000368.638    10232442.14849   7987350.79046  23000367.946    23000377.251
  20369634.319    -7989114.26549  -5784523.78247  20369633.546    20369641.309
  22188381.510     8780195.09149   6858326.99146  22188381.263    22188390.635
  23508228.735    -8813458.10549  -6845818.63545  23508228.353    23508238.391
  23374216.844     1688988.01849   1341692.40646  23374216.567    23374225.442
  22175500.712   -18333356.21449 -14240772.46647  22175500.181    22175509.289
  20368418.803   -11752565.60449  -9126706.27948  20368418.307    20368424.593
  20511659.647    -4712353.68849  -3648670.66247  20511659.044    20511666.772
  24623006.650    -5305609.68449  -3781135.73945  24623005.897    24623017.894
 02  7 13 16 55  0.0000000  0 11G26G22G23G15G 6G 3G29G21G18G17G 2
  22370058.681    -1716648.78849  -1311080.75946  22370058.680    22370067.182
  23991129.687      557575.42249    471474.86045  23991128.727    23991139.491
  23015530.347    10312116.69949   8049434.77946  23015529.560    23015538.916
  20367507.596    -8000290.22149  -5793232.30247  20367506.828    20367514.585
  22205958.629     8872562.72049   6930301.63746  22205958.334    22205967.743
  23491126.729    -8903329.44249  -6915848.20245  23491126.391    23491136.401
  23386612.231     1754126.04649   1392449.24446  23386611.985    23386620.841
  22164949.964   -18388800.57649 -14283975.82947  22164949.445    22164958.536
  20366086.712   -11764820.86649  -9136255.83448  20366086.202    20366092.478
  20512339.889    -4708778.95349  -3645885.15747  20512339.293    20512347.024
  24624002.335    -5300379.12949  -3777060.07345  24624001.548    24624013.416
 02  7 13 16 55 30.0000000  0 11G26G22G23G15G 6G 3G29G21G18G17G 2
  22381298.865    -1657581.47549  -1265054.34046  22381298.879    22381307.369
  24001460.760      611865.14149    513778.44945  24001459.885    24001470.570
  23030707.542    10391873.22549   8111582.65246  23030706.823    23030716.167
  20365432.216    -8011196.33949  -5801730.58147  20365431.455    20365439.210
  22223595.184     8965242.74749   7002519.71746  22223594.895    22223604.281
  23474076.163    -8992931.56249  -6985667.99245  23474075.715    23474085.573
  23399088.402     1819688.33049   1443536.67946  23399088.128    23399096.961
  22154451.577   -18443969.92649 -14326964.90147  22154451.043    22154460.104
  20363833.878   -11776659.81449  -9145480.98448  20363833.361    20363839.625
  20513067.313    -4704956.35049  -3642906.51247  20513066.699    20513074.453
  24625077.952    -5294728.05149  -3772656.72745  24625077.153    24625088.618
 02  7 13 16 56  0.0000000  0 11G26G22G23G15G 6G 3G29G21G18G17G 2
  22392645.704    -1597953.68749  -1218591.19646  22392645.704    22392654.229
  24011854.064      666481.63249    556336.64945  24011853.190    24011863.827
  23045899.977    10471709.30549   8173792.52846  23045899.196    23045908.510
  20363408.175    -8021832.75049  -5810018.70847  20363407.396    20363415.164
  22241290.644     9058232.17049   7074978.87446  22241290.345    22241299.715
  23457077.007    -9082262.76949  -7055276.70045  23457076.554    23457086.365
  23411644.754     1885672.08749   1494952.52146  23411644.485    23411653.340
  22144005.405   -18498865.10449 -14369740.33747  22144004.854    22144013.917
  20361659.978   -11788083.96849  -9154382.92248  20361659.417    20361665.673
  20513841.887    -4700886.08149  -3639734.87947  20513841.263    20513849.017
  24626232.968    -5288658.30449  -3767927.15345  24626232.214    24626243.659
 02  7 13 16 56 30.0000000  0 11G26G22G23G15G 6G 3G29G21G18G17G 2
  22404098.936    -1537766.79149  -1171692.38446  22404098.905    22404107.500
  24022309.286      721423.27149    599148.21345  24022308.302    24022318.938
  23061107.256    10551624.02849   8236063.66646  23061106.538    23061115.861
  20361435.764    -8032197.74349  -5818095.34147  20361435.002    20361442.769
  22259044.682     9151529.71149   7147678.12546  22259044.364    22259053.772
  23440129.978    -9171319.84649  -7124671.78345  23440129.556    23440139.291
  23424281.155     1952076.13849   1546695.87546  23424280.828    23424289.705
  22133611.545   -18553484.90849 -14412301.19247  22133610.990    22133620.078
  20359564.945   -11799093.18249  -9162961.53248  20359564.427    20359570.685
  20514663.891    -4696566.46149  -3636368.94747  20514663.284    20514671.028
  24627467.695    -5282170.01449  -3762871.41545  24627466.850    24627478.400
 02  7 13 16 57  0.0000000  0 11G26G22G23G15G 6G 3G29G21G18G17G 2
  22415658.046    -1477023.40949  -1124359.94746  22415658.033    22415666.670
  24032825.760      776687.04749    642210.79745  24032824.781    24032835.416
  23076329.206    10631615.78649   8298394.84246  23076328.530    23076337.897
  20359515.083    -8042291.14349  -5825960.33547  20359514.321    20359522.105
  22276856.698     9245132.77649   7220615.44446  22276856.453    22276865.983
  23423235.582    -9260100.26149  -7193851.28745  23423235.152    23423244.868
  23436996.921     2018897.96249   1598764.76246  23436996.605    23437005.531
  22123269.948   -18607829.93249 -14454647.92947  22123269.439    22123278.506
  20357548.655   -11809688.58249  -9171217.69148  20357548.193    20357554.423
  20515533.441    -4691997.09549  -3632808.40347  20515532.812    20515540.581
  24628781.675    -5275264.36349  -3757490.46045  24628781.049    24628792.630
 02  7 13 16 57 30.0000000  0 11G26G22G23G15G 6G 3G29G21G18G17G 2
  22427322.687    -1415725.45549  -1076595.37946  22427322.678    22427331.325
  24043402.913      832270.38049    685522.36545  24043402.069    24043412.726
  23091565.524    10711683.14449   8360784.92746  23091564.902    23091574.250
  20357646.211    -8052112.13849  -5833613.06947  20357645.435    20357653.243
  22294726.597     9339039.30349   7293789.23046  22294726.362    22294735.933
  23406394.304    -9348601.43949  -7262813.20245  23406393.871    23406403.620
  23449791.854     2086135.68549   1651157.71346  23449791.567    23449800.513
  22112980.704   -18661900.23049 -14496780.58947  22112980.192    22112989.219
  20355611.057   -11819870.62149  -9179151.74848  20355610.624    20355616.869
  20516450.674    -4687177.05449  -3629052.55147  20516450.047    20516457.786
  24630175.308    -5267942.46349  -3751785.16045  24630174.495    24630186.165
 02  7 13 16 58  0.0000000  0 11G26G22G23G15G 6G 3G29G21G18G17G 2
  22439092.366    -1353875.60749  -1028400.75146  22439092.360    22439100.990
  24054040.365      888170.30449    729080.63645  24054039.495    24054050.203
  23106815.939    10791824.04849   8423232.33246  23106815.294    23106824.587
  20355829.318    -8061660.09749  -5841053.04847  20355828.533    20355836.345
  22312653.758     9433246.93449   7367197.65546  22312653.571    22312663.169
  23389606.470    -9436821.43849  -7331556.01445  23389606.073    23389615.849
  23462665.476     2153786.66349   1703872.69146  23462665.205    23462674.131
  22102743.723   -18715695.76949 -14538699.15447  22102743.189    22102752.215
  20353751.868   -11829640.65049  -9186764.75548  20353751.451    20353757.706
  20517415.624    -4682106.11949  -3625101.19347  20517414.999    20517422.748
  24631647.729    -5260205.61849  -3745756.52145  24631646.905    24631658.493
 02  7 13 16 58 30.0000000  0 11G26G22G23G15G 6G 3G29G21G18G17G 2
  22450966.706    -1291476.03049   -979777.76946  22450966.649    22450975.356
  24064737.502      944383.96049    772883.36945  24064736.669    24064747.489
  23122080.065    10872036.92749   8485735.80646  23122079.327    23122088.610
  20354064.425    -8070934.60749  -5848279.94747  20354063.655    20354071.447
  22330637.849     9527753.41149   7440838.93146  22330637.611    22330647.268
  23372872.537    -9524757.97549  -7400077.92545  23372872.227    23372882.097
  23475617.387     2221848.84649   1756908.08546  23475617.088    23475626.030
  22092558.988   -18769216.84349 -14580403.86247  22092558.440    22092567.478
  20351970.983   -11838999.37549  -9194057.26848  20351970.544    20351976.801
  20518428.470    -4676783.54849  -3620953.74947  20518427.848    20518435.635
  24633198.447    -5252055.05749  -3739405.51645  24633198.062    24633209.473
 02  7 13 16 59  0.0000000  0 11G26G22G23G15G 6G 3G29G21G18G17G 2
  22462945.186    -1228528.96949   -930728.17446  22462945.136    22462953.800
  24075493.840     1000908.73549    816928.52945  24075493.003    24075504.000
  23137357.605    10952320.43049   8548294.32146  23137356.821    23137366.166
  20352351.820    -8079934.54849  -5855292.89047  20352351.040    20352358.852
  22348678.453     9622556.77149   7514711.53246  22348678.222    22348687.927
  23356193.066    -9612408.16349  -7468376.73345  23356192.904    23356202.762
  23488647.049     2290320.16849   1810262.29046  23488646.748    23488655.797
  22082426.524   -18822463.08949 -14621894.40947  22082425.985    22082435.006
  20350268.311   -11847947.28449  -9201029.65748  20350267.803    20350274.067
  20519489.400    -4671208.41649  -3616609.50147  20519488.794    20519496.596
  24634828.446    -5243491.62249  -3732732.77945  24634827.603    24634839.192
 02  7 13 16 59 30.0000000  0 11G26G22G23G15G 6G 3G29G21G18G17G 2
  22475027.552    -1165036.05449   -881253.23746  22475027.532    22475036.161
  24086309.034     1057742.58949    861214.52845  24086308.195    24086319.315
  23152648.372    11032673.45549   8610907.00646  23152647.565    23152656.922
  20350691.642    -8088658.80749  -5862091.01347  20350690.860    20350698.698
  22366775.202     9717655.40049   7588814.22246  22366774.974    22366784.693
  23339568.867    -9699768.98849  -7536450.04745  23339568.623    23339578.582
  23501754.274     2359199.19349   1863934.18546  23501754.034    23501763.069
  22072346.429   -18875434.05349 -14663170.44347  22072345.933    22072354.912
  20348643.669   -11856484.74549  -9207682.22048  20348643.178    20348649.461
  20520598.595    -4665379.49349  -3612067.49647  20520597.986    20520605.801
  24636536.599    -5234516.03249  -3725738.90645  24636535.891    24636547.381
 02  7 13 17  0  0.0000000  0 11G26G22G23G15G 6G 3G29G21G18G17G 2
  22487213.259    -1101000.36349   -831355.36046  22487213.206    22487221.878
  24097182.379     1114882.09849    905738.69945  24097181.578    24097192.709
  23167951.864    11113093.85849   8673572.20546  23167951.131    23167960.485
  20349083.907    -8097107.43149  -5868674.37547  20349083.153    20349090.970
  22384927.653     9813046.42849   7663144.74246  22384927.417    22384937.179
  23323000.137    -9786838.61849  -7604296.47245  23322999.833    23323009.738
  23514938.482     2428482.98049   1917921.47946  23514938.327    23514947.436
  22062318.701   -18928130.54849 -14704232.61147  22062318.135    22062327.076
  20347096.799   -11864613.44849  -9214016.26848  20347096.318    20347102.604
  20521756.125    -4659296.66349  -3607327.63847  20521755.514    20521763.354
  24638322.716    -5225130.14249  -3718425.29945  24638321.846    24638333.661
 02  7 13 17  0 30.0000000  0 11G26G22G23G15G 6G 3G29G21G18G17G 2
  22499501.861    -1036423.43949   -781035.73946  22499501.849    22499510.516
  24108113.700     1172325.17549    950499.42045  24108112.761    24108123.855
  23183268.003    11193580.76649   8736289.21746  23183267.358    23183276.674
  20347528.884    -8105279.10249  -5875041.92247  20347528.109    20347535.981
  22403135.477     9908728.28449   7737701.89146  22403135.202    22403144.935
  23306487.394    -9873613.72649  -7671913.39145  23306487.114    23306496.990
  23528199.525     2498170.05449   1972223.02146  23528199.307    23528208.533
  22052343.169   -18980552.39349 -14745080.77347  22052342.581    22052351.574
  20345627.798   -11872333.18849  -9220031.64748  20345627.325    20345633.600
  20522962.185    -4652958.68749  -3602388.96747  20522961.579    20522969.429
  24640186.371    -5215334.16449  -3710792.16445  24640185.854    24640197.905
 02  7 13 17  1  0.0000000  0 11G26G22G23G15G 6G 3G29G21G18G17G 2
  22511892.905     -971308.55549   -730296.92646  22511892.870    22511901.534
  24119101.836     1230068.37149    995494.00045  24119100.924    24119112.048
  23198596.409    11274131.90349   8799056.28246  23198595.746    23198605.119
  20346026.542    -8113173.87149  -5881193.69147  20346025.770    20346033.656
  22421398.048    10004697.97449   7812483.32746  22421397.769    22421407.466
  23290030.814    -9960092.92849  -7739299.73345  23290030.687    23290040.489
  23541536.668     2568257.33749   2026836.41546  23541536.543    23541545.774
  22042419.740   -19032700.21749 -14785715.41947  22042419.171    22042428.143
  20344236.202   -11879645.92649  -9225729.88748  20344235.729    20344242.026
  20524216.822    -4646365.59949  -3597251.51747  20524216.231    20524224.103
  24642128.470    -5205130.12849  -3702841.04545  24642127.659    24642139.746
 02  7 13 17  1 30.0000000  0 11G26G22G23G15G 6G 3G29G21G18G17G 2
  22524386.006     -905657.25349   -679140.10846  22524385.992    22524394.644
  24130146.809     1288109.48349   1040720.73045  24130145.797    24130157.097
  23213936.795    11354746.47549   8861872.78346  23213936.246    23213945.625
  20344577.137    -8120790.51149  -5887128.72247  20344576.363    20344584.263
  22439715.106    10100953.94949   7887487.84146  22439714.868    22439724.469
  23273631.204   -10046272.93549  -7806452.94245  23273631.150    23273640.869
  23554949.879     2638743.25149   2081760.42546  23554949.648    23554958.882
  22032548.640   -19084573.07449 -14826135.80147  22032548.104    22032557.029
  20342922.021   -11886551.73349  -9231111.03748  20342921.588    20342927.905
  20525520.290    -4639515.92549  -3591914.13347  20525519.678    20525527.547
  24644147.987    -5194518.61849  -3694572.41945  24644147.242    24644159.082
 02  7 13 17  2  0.0000000  0 11G26G22G23G15G 6G 3G29G21G18G17G 2
  22536980.505     -839472.67049   -627567.75446  22536980.493    22536989.184
  24141247.729     1346445.02749   1086176.88045  24141246.753    24141258.057
  23229288.939    11435422.39149   8924737.07246  23229288.378    23229297.827
  20343180.738    -8128128.71049  -5892846.76447  20343179.970    20343187.878
  22458086.075    10197493.25049   7962713.12746  22458085.811    22458095.436
  23257289.013   -10132151.97849  -7873371.63845  23257288.864    23257298.466
  23568438.275     2709625.17549   2136993.02946  23568438.050    23568447.294
  22022729.716   -19136171.88749 -14866342.65047  22022729.172    22022738.092
  20341685.135   -11893051.95149  -9236176.14248  20341684.645    20341690.962
  20526872.581    -4632409.53149  -3586376.71747  20526871.972    20526879.871
  24646244.449    -5183501.40549  -3685987.67245  24646243.531    24646255.763
 02  7 13 17  2 30.0000000  0 11G26G22G23G15G 6G 3G29G21G18G17G 2
  22549676.211     -772756.76149   -575581.38146  22549676.194    22549684.849
  24152404.182     1405072.82949   1131860.75745  24152403.379    24152414.647
  23244652.603    11516158.52849   8987648.29446  23244651.952    23244661.479
  20341837.453    -8135187.72949  -5898347.28447  20341836.680    20341844.564
  22476510.603    10294314.01649   8038157.74146  22476510.336    22476520.000
  23241004.638   -10217727.11249  -7940053.50245  23241004.338    23241013.998
  23582001.683     2780901.18949   2192532.70646  23582001.480    23582010.731
  22012963.035   -19187496.12749 -14906335.53547  22012962.493    22012971.394
  20340525.217   -11899147.28449  -9240925.75348  20340524.738    20340531.041
  20528273.932    -4625045.48149  -3580638.52447  20528273.352    20528281.208
  24648417.910    -5172079.43649  -3677087.52445  24648417.286    24648429.529
 02  7 13 17  3  0.0000000  0 11G26G22G23G15G 6G 3G29G21G18G17G 2
  22562472.575     -705511.64249   -523182.60246  22562472.555    22562481.220
  24163615.814     1463990.25649   1177770.33145  24163614.968    24163626.451
  23260027.470    11596953.58349   9050605.43246  23260026.828    23260036.288
  20340547.509    -8141966.36249  -5903629.33847  20340546.742    20340554.617
  22494988.227    10391414.30449   8113820.14946  22494988.004    22494997.743
  23224778.637   -10302995.40449  -8006496.27945  23224778.300    23224787.952
  23595639.789     2852569.33949   2248377.95545  23595639.518    23595648.838
  22003248.587   -19238545.56949 -14946114.28947  22003248.069    22003257.020
  20339442.330   -11904838.04749  -9245360.11848  20339441.837    20339448.165
  20529724.534    -4617422.72349  -3574698.74347  20529723.938    20529731.801
  24650668.471    -5160253.38749  -3667872.52045  24650667.717    24650679.954
 02  7 13 17  3 30.0000000  0 11G26G22G23G15G 6G 3G29G21G18G17G 2
  22575369.042     -637740.16049   -470373.69246  22575369.077    22575377.748
  24174882.032     1523194.18449   1223903.16245  24174881.178    24174892.682
  23275413.133    11677805.56449   9113606.91846  23275412.497    23275421.952
  20339310.985    -8148464.34749  -5908692.70747  20339310.209    20339318.113
  22513518.598    10488791.50949   8189698.34246  22513518.345    22513528.169
  23208611.314   -10387954.99949  -8072698.51945  23208611.013    23208620.660
  23609351.919     2924626.92249   2304526.64446  23609351.715    23609361.029
  21993586.189   -19289321.45049 -14985679.87647  21993585.697    21993594.645
  20338436.063   -11910125.98449  -9249480.59448  20338435.554    20338441.859
  20531224.431    -4609540.87349  -3568557.05647  20531223.839    20531231.695
  24652995.461    -5148025.14349  -3658344.11845  24652994.826    24653007.030
 02  7 13 17  4  0.0000000  0 11G26G22G23G15G 6G 3G29G21G18G17G 2
  22588365.175     -569445.18949   -417156.84946  22588365.160    22588373.892
  24186202.144     1582681.40849   1270256.70645  24186201.341    24186212.827
  23290809.275    11758712.62149   9176651.32346  23290808.668    23290818.096
  20338127.941    -8154681.33949  -5913537.12547  20338127.177    20338135.043
  22532101.136    10586442.86049   8265790.14646  22532100.871    22532110.791
  23192503.222   -10472603.80749  -8138658.60045  23192502.915    23192512.483
  23623137.758     2997071.33349   2360976.77445  23623137.462    23623146.793
  21983975.966   -19339823.64649 -15025032.21247  21983975.440    21983984.367
  20337506.330   -11915011.95249  -9253287.85348  20337505.817    20337512.094
  20532773.662    -4601399.74049  -3562213.33447  20532773.047    20532780.906
  24655398.873    -5135396.45749  -3648503.66745  24655398.082    24655410.229
 02  7 13 17  4 30.0000000  0 11G26G22G23G15G 6G 3G29G21G18G17G 2
  22601460.474     -500628.61049   -363533.56846  22601460.514    22601469.315
  24197575.855     1642449.67049   1316829.28045  24197574.887    24197586.404
  23306215.873    11839673.98549   9239738.04546  23306215.143    23306224.611
  20336998.653    -8160615.97949  -5918161.52547  20336997.859    20337005.714
  22550735.631    10684366.79049   8342094.36446  22550735.311    22550745.213
  23176454.934   -10556938.63149  -8204374.00646  23176454.494    23176464.101
  23636996.777     3069900.99849   2417727.11045  23636996.518    23637005.854
  21974417.822   -19390051.77849 -15064170.98247  21974417.278    21974426.257
  20336652.961   -11919496.51349  -9256782.33248  20336652.439    20336658.737
  20534372.538    -4592997.74249  -3555666.34247  20534371.950    20534379.824
  24657878.120    -5122367.86849  -3638351.61045  24657877.537    24657889.557
 02  7 13 17  5  0.0000000  0 11G26G22G23G15G 6G 3G29G21G18G17G 2
  22614654.676     -431292.74549   -309505.63146  22614654.670    22614663.552
  24209002.520     1702496.36149   1363618.79845  24209001.616    24209013.055
  23321632.367    11920688.24749   9302865.98646  23321631.680    23321641.160
  20335923.207    -8166267.52649  -5922565.33647  20335922.404    20335930.253
  22569421.505    10782561.07349   8418609.23146  22569421.214    22569431.124
  23160466.736   -10640956.94249  -8269842.77846  23160466.313    23160475.950
  23650928.681     3143113.70249   2474775.91645  23650928.433    23650937.853
  21964911.736   -19440006.10049 -15103096.40147  21964911.268    21964920.242
  20335875.825   -11923580.33749  -9259964.54748  20335875.316    20335881.643
  20536021.200    -4584334.13349  -3548915.48947  20536020.589    20536028.476
  24660433.237    -5108940.77049  -3627889.01445  24660432.688    24660444.409
 02  7 13 17  5 30.0000000  0 11G26G22G23G15G 6G 3G29G21G18G17G 2
  22627947.203     -361440.36049   -255075.21746  22627947.188    22627956.046
  24220481.503     1762818.24749   1410622.75345  24220480.670    24220492.077
  23337058.602    12001753.76949   9366033.85546  23337057.991    23337067.470
  20334901.673    -8171635.59249  -5926748.25947  20334900.891    20334908.737
  22588158.337    10881023.11249   8495332.74746  22588158.024    22588167.912
  23144539.192   -10724656.69749  -8335063.34046  23144538.799    23144548.462
  23664933.087     3216706.72049   2532121.06345  23664932.767    23664942.227
  21955457.805   -19489686.88549 -15141808.66247  21955457.323    21955466.288
  20335174.757   -11927264.63649  -9262835.43948  20335174.222    20335180.523
  20537719.682    -4575408.61249  -3541960.55147  20537719.073    20537726.941
  24663063.813    -5095116.62949  -3617117.05545  24663063.336    24663075.243
 02  7 13 17  6  0.0000000  0 11G26G22G23G15G 6G 3G29G21G18G17G 2
  22641337.560     -291073.67149   -200244.05246  22641337.568    22641346.357
  24232012.355     1823412.98449   1457839.31245  24232011.577    24232023.141
  23352494.515    12082869.46649   9429240.83646  23352493.885    23352503.324
  20333934.329    -8176719.11649  -5930709.45247  20333933.551    20333941.406
  22606945.749    10979751.02349   8572263.44146  22606945.417    22606955.278
  23128672.824   -10808034.90349  -8400033.32946  23128672.393    23128682.037
  23679009.399     3290678.36449   2589761.26845  23679009.133    23679018.645
  21946055.992   -19539093.71949 -15180307.45247  21946055.492    21946064.445
  20334549.689   -11930549.86949  -9265395.37348  20334549.094    20334555.402
  20539468.246    -4566220.01749  -3534800.61847  20539467.642    20539475.495
  24665769.795    -5080896.73349  -3606036.72345  24665769.433    24665781.350
 02  7 13 17  6 30.0000000  0 11G26G22G23G15G 6G 3G29G21G18G17G 2
  22654825.284     -220195.48949   -145014.30846  22654825.241    22654834.052
  24243594.476     1884277.58649   1505266.14745  24243593.719    24243605.321
  23367939.592    12164033.60249   9492485.54946  23367938.952    23367948.450
  20333021.224    -8181517.49349  -5934448.45047  20333020.483    20333028.303
  22625783.229    11078742.32349   8649399.36846  22625782.946    22625792.876
  23112868.101   -10891089.41549  -8464751.08446  23112867.535    23112877.229
  23693157.341     3365026.00849   2647694.44645  23693157.119    23693166.602
  21936706.217   -19588227.21149 -15218593.25247  21936705.685    21936714.575
  20334000.262   -11933437.43649  -9267645.43548  20333999.635    20334005.945
  20541266.975    -4556767.96549  -3527435.39747  20541266.357    20541274.167
  24668551.226    -5066282.54649  -3594649.11745  24668550.339    24668562.350
 02  7 13 17  7  0.0000000  0 11G26G22G23G15G 6G 3G29G21G18G17G 2
  22668409.740     -148808.26149    -89387.90546  22668409.736    22668418.632
  24255227.504     1945409.13149   1552900.99945  24255226.666    24255238.535
  23383393.614    12245244.81849   9555766.95146  23383393.004    23383402.455
  20332162.517    -8186030.19949  -5937964.84347  20332161.757    20332169.555
  22644670.390    11177994.56549   8726738.61446  22644670.100    22644680.113
  23097125.386   -10973817.77749  -8529214.69846  23097124.824    23097134.505
  23707376.263     3439747.30349   2705918.79045  23707376.045    23707385.594
  21927408.365   -19637087.74549 -15256666.37647  21927407.822    21927416.675
  20333526.278   -11935928.28349  -9269586.36048  20333525.673    20333531.963
  20543115.969    -4547051.53149  -3519864.15847  20543115.347    20543123.151
  24671406.776    -5051275.32849  -3582955.27245  24671406.131    24671418.460
 02  7 13 17  7 30.0000000  0 11G26G22G23G15G 6G 3G29G21G18G17G 2
  22682090.753      -76914.36449    -33366.68946  22682090.735    22682099.538
  24266910.713     2006804.97249   1600741.77545  24266910.038    24266921.849
  23398856.321    12326501.89649   9619084.11346  23398855.759    23398865.210
  20331358.280    -8190256.40349  -5941257.97547  20331357.534    20331365.343
  22663606.857    11277505.68249   8804279.59146  22663606.572    22663616.592
  23081445.314   -11056217.14449  -8593421.94346  23081444.698    23081454.334
  23721666.008     3514840.42249   2764432.86645  23721665.843    23721675.330
  21918162.511   -19685674.86449 -15294526.43347  21918161.982    21918170.819
  20333127.624   -11938023.11649  -9271218.70048  20333127.009    20333133.341
  20545015.495    -4537069.77749  -3512086.17347  20545014.842    20545022.635
  24674337.335    -5035876.32149  -3570956.13545  24674336.702    24674348.839
 02  7 13 17  8  0.0000000  0 11G26G22G23G15G 6G 3G29G21G18G17G 2
  22695867.473       -4516.98349     23046.83446  22695867.468    22695876.285
  24278643.730     2068461.62649   1648785.81345  24278642.995    24278654.794
  23414327.523    12407802.74849   9682435.36146  23414326.849    23414336.269
  20330608.601    -8194195.97849  -5944327.75947  20330607.863    20330615.667
  22682592.011    11377272.77649   8882020.02246  22682591.708    22682601.788
  23065828.204   -11138285.76549  -8657371.49246  23065827.600    23065837.095
  23736025.889     3590302.02149   2823234.07445  23736025.751    23736035.183
  21908968.517   -19733989.75349 -15332174.38147  21908967.977    21908976.797
  20332803.997   -11939723.63949  -9272543.78448  20332803.413    20332809.727
  20546965.416    -4526822.77649  -3504101.51047  20546964.782    20546972.583
  24677342.101    -5020087.43049  -3558653.16345  24677341.362    24677353.405
 02  7 13 17  8 30.0000000  0 11G26G22G23G15G 6G 3G29G21G18G17G 2
  22709739.618       68381.51149     79850.85446  22709739.624    22709748.429
  24290426.013     2130376.72849   1697031.23745  24290425.178    24290437.007
  23429806.832    12489146.45749   9745820.00746  23429806.073    23429815.509
  20329913.724    -8197847.55249  -5947173.13747  20329913.004    20329920.792
  22701625.584    11477293.94949   8959958.43946  22701625.251    22701635.414
  23050274.165   -11220021.14349  -8721061.37846  23050273.877    23050283.310
  23750455.668     3666130.47949   2882321.15445  23750455.432    23750464.878
  21899826.484   -19782031.45749 -15369609.46247  21899825.936    21899834.693
  20332555.373   -11941030.41949  -9273562.05448  20332554.755    20332561.074
  20548966.079    -4516309.22749  -3495909.14647  20548965.457    20548973.247
  24680420.404    -5003909.93049  -3546047.40445  24680419.851    24680431.988
 02  7 13 17  9  0.0000000  0 11G26G22G23G15G 6G 3G29G21G18G17G 2
  22723706.623      141778.51549    137043.31746  22723706.635    22723715.473
  24302256.869     2192547.23349   1745475.67345  24302255.878    24302267.673
  23445293.964    12570531.38449   9809236.77946  23445293.171    23445302.561
  20329273.749    -8201210.66249  -5949793.73247  20329273.017    20329280.808
  22720706.835    11577566.57449   9038092.79546  22720706.572    22720716.775
  23034784.368   -11301420.61949  -8784489.49246  23034784.031    23034793.424
  23764954.599     3742322.97049   2941691.91645  23764954.484    23764963.854
  21890736.217   -19829800.76749 -15406832.27447  21890735.689    21890744.448
  20332381.362   -11941944.58549  -9274274.38748  20332380.796    20332387.152
  20551017.532    -4505528.79549  -3487508.81947  20551016.907    20551024.713
  24683572.575    -4987345.43649  -3533140.09845  24683571.919    24683584.161
 02  7 13 17  9 30.0000000  0 11G26G22G23G15G 6G 3G29G21G18G17G 2
  22737768.115      215672.01949    194622.65246  22737768.140    22737776.968
  24314135.611     2254970.84349   1794117.29645  24314134.565    24314146.766
  23460788.822    12651957.01949   9872685.28346  23460788.074    23460797.384
  20328688.875    -8204284.13049  -5952188.64147  20328688.142    20328695.922
  22739835.627    11678089.24349   9116422.00246  22739835.459    22739845.701
  23019359.137   -11382481.10449  -8847653.46146  23019358.700    23019368.132
  23779522.654     3818878.20649   3001345.31845  23779522.529    23779531.931
  21881697.832   -19877297.49349 -15443842.68047  21881697.326    21881706.109
  20332282.032   -11942466.37649  -9274680.97248  20332281.494    20332287.846
  20553120.056    -4494479.91049  -3478899.31347  20553119.431    20553127.269
  24686798.170    -4970394.63749  -3519931.75845  24686797.545    24686809.955
 02  7 13 17 10  0.0000000  0 11G26G22G23G15G 6G 3G29G21G18G17G 2
  22751923.461      290058.88649    252586.43646  22751923.501    22751932.335
  24326062.109     2317644.20449   1842953.56945  24326061.068    24326073.194
  23476290.928    12733421.26549   9936163.84946  23476290.272    23476299.559
  20328159.159    -8207067.84049  -5954357.76247  20328158.399    20328166.202
  22759011.601    11778858.93749   9194943.67946  22759011.384    22759021.661
  23003998.606   -11463200.95449  -8910551.99646  23003998.144    23004007.677
  23794158.971     3895792.86249   3061278.77445  23794158.797    23794168.304
  21872711.263   -19924522.24649 -15480641.16947  21872710.718    21872719.510
  20332257.090   -11942597.48149  -9274783.12748  20332256.552    20332262.895
  20555273.689    -4483162.61949  -3470080.65447  20555273.070    20555280.920
  24690097.085    -4953059.59249  -3506424.01845  24690096.292    24690108.796
 02  7 13 17 10 30.0000000  0 11G26G22G23G15G 6G 3G29G21G18G17G 2
  22766172.284      364936.50449    310932.61346  22766172.267    22766181.085
  24338035.767     2380564.51749   1891982.28645  24338034.619    24338046.714
  23491800.162    12814922.95549   9999671.60446  23491799.566    23491808.847
  20327684.744    -8209560.87249  -5956300.37547  20327683.987    20327691.784
  22778234.168    11879873.40449   9273656.08246  22778233.926    22778244.301
  22988703.373   -11543577.67049  -8973183.15546  22988702.863    22988712.492
  23808863.338     3973064.99449   3121490.80345  23808863.277    23808872.735
  21863776.384   -19971475.04549 -15517227.74047  21863775.853    21863784.682
  20332306.270   -11942338.71449  -9274581.48448  20332305.778    20332312.157
  20557478.565    -4471575.86749  -3461052.02847  20557477.964    20557485.798
  24693468.856    -4935341.70649  -3492617.98245  24693468.017    24693480.484
 02  7 13 17 11  0.0000000  0 11G26G22G23G15G 6G 3G29G21G18G17G 2
  22780513.817      440301.56549    369658.62146  22780513.809    22780522.671
  24350055.533     2443728.40749   1941200.79545  24350054.388    24350066.483
  23507316.172    12896459.84849  10063206.78046  23507315.594    23507324.878
  20327265.686    -8211763.21849  -5958016.47247  20327264.917    20327272.697
  22797502.670    11981129.44949   9352556.72746  22797502.437    22797512.870
  22973473.714   -11623609.46649  -9035545.55546  22973473.256    22973482.938
  23823635.270     4050691.37049   3181978.85345  23823635.140    23823644.633
  21854893.038   -20018157.17249 -15553603.39347  21854892.523    21854901.371
  20332429.388   -11941691.77749  -9274077.37448  20332428.892    20332435.257
  20559734.738    -4459719.74849  -3451813.50547  20559734.122    20559741.963
  24696913.061    -4917243.21649  -3478515.36845  24696912.213    24696924.538
 02  7 13 17 11 30.0000000  0 11G26G22G23G15G 6G 3G29G21G18G17G 2
  22794947.780      516152.44149    428763.17746  22794947.736    22794956.643
  24362121.439     2507133.71849   1990607.41445  24362120.285    24362132.321
  23522838.829    12978031.59649  10126769.12046  23522838.178    23522847.540
  20326902.215    -8213673.27649  -5959504.81547  20326901.449    20326909.211
  22816816.826    12082625.78949   9431644.61546  22816816.646    22816827.091
  22958310.428   -11703292.87049  -9097636.47846  22958309.973    22958319.650
  23838474.249     4128670.76849   3242741.99445  23838474.157    23838483.604
  21846061.361   -20064567.56749 -15589767.30547  21846060.857    21846069.753
  20332626.368   -11940656.90249  -9273270.96648  20332625.816    20332632.189
  20562042.459    -4447592.52749  -3442363.73547  20562041.835    20562049.725
  24700429.382    -4898764.85649  -3464116.73545  24700428.639    24700441.010
 02  7 13 17 12  0.0000000  0 11G26G22G23G15G 6G 3G29G21G18G17G 2
  22809473.697      592486.67449    488244.37346  22809473.660    22809482.585
  24374232.684     2570778.04749   2040200.27345  24374231.540    24374243.632
  23538367.833    13059637.31349  10190357.92646  23538367.237    23538376.644
  20326594.569    -8215289.87849  -5960764.49547  20326593.812    20326601.535
  22836176.437    12184360.34749   9510918.14146  22836176.234    22836186.613
  22943213.724   -11782625.00449  -9159453.68346  22943213.514    22943223.200
  23853379.999     4207000.98749   3303778.51645  23853379.959    23853389.392
  21837281.399   -20110706.31349 -15625719.54047  21837280.875    21837289.813
  20332897.035   -11939234.65049  -9272162.71048  20332896.439    20332902.810
  20564402.022    -4435192.90049  -3432701.70247  20564401.401    20564409.267
  24704017.864    -4879907.39349  -3449422.69245  24704017.215    24704029.679
 02  7 13 17 12 30.0000000  0 11G26G22G23G15G 6G 3G29G21G18G17G 2
  22824091.167      669301.56149    548100.08946  22824091.100    22824099.961
  24386388.664     2634658.44749   2089977.07445  24386387.575    24386399.827
  23553903.193    13141275.66249  10253972.18446  23553902.552    23553911.963
  20326342.898    -8216612.57949  -5961795.17347  20326342.106    20326349.843
  22855580.828    12286330.74149   9590375.43446  22855580.650    22855591.130
  22928184.442   -11861603.47249  -9220995.30646  22928184.438    22928194.058
  23868352.177     4285679.71949   3365086.59445  23868352.104    23868361.533
  21828553.182   -20156573.31349 -15661460.02047  21828552.667    21828561.602
  20333241.171   -11937426.16049  -9270753.48648  20333240.590    20333246.961
  20566813.490    -4422520.63249  -3422827.22547  20566812.862    20566820.741
  24707678.320    -4860672.79749  -3434434.76945  24707677.531    24707689.850
 02  7 13 17 13  0.0000000  0 11G26G22G23G15G 6G 3G29G21G18G17G 2
  22838799.325      746593.38049    608327.45046  22838799.318    22838808.080
  24398588.857     2698771.02149   2139934.80345  24398587.769    24398599.929
  23569444.194    13222944.38149  10317610.08446  23569443.604    23569453.075
  20326147.063    -8217641.64249  -5962597.05247  20326146.262    20326154.027
  22875029.436    12388533.64149   9670013.89846  22875029.307    22875039.832
  22913223.063   -11940226.98249  -9282260.32546  22913222.867    22913232.525
  23883390.139     4364703.52449   3426663.54145  23883389.923    23883399.277
  21819876.393   -20202170.31349 -15696990.11647  21819875.825    21819884.744
  20333658.417   -11935233.25849  -9269044.71948  20333657.891    20333664.242
  20569276.868    -4409575.65249  -3412740.24947  20569276.236    20569284.088
  24711409.625    -4841063.59849  -3419154.93645  24711408.928    24711421.266
 02  7 13 17 13 30.0000000  0 11G26G22G23G15G 6G 3G29G21G18G17G 2
  22853597.974      824360.16549    668924.92546  22853597.854    22853606.606
  24410833.031     2763113.61849   2190071.79045  24410831.902    24410844.009
  23584990.898    13304642.63349  10381270.98846  23584990.281    23584999.836
  20326007.391    -8218375.58149  -5963168.96847  20326006.598    20326014.394
  22894522.157    12490967.14049   9749832.04446  22894521.972    22894532.543
  22898329.665   -12018492.39549  -9343246.32846  22898329.416    22898339.091
  23898493.228     4444070.70349   3488508.06045  23898493.118    23898502.311
  21811251.028   -20247496.75249 -15732309.37547  21811250.486    21811259.405
  20334148.692   -11932656.92849  -9267037.18248  20334148.152    20334154.511
  20571792.337    -4396356.73849  -3402439.81247  20571791.705    20571799.581
  24715212.341    -4821080.74149  -3403583.95445  24715211.505    24715224.050
 02  7 13 17 14  0.0000000  0 11G26G22G23G15G 6G 3G29G21G18G17G 2
  22868486.158      902598.54349    729889.86346  22868486.117    22868494.893
  24423120.223     2827682.69249   2240385.23145  24423119.356    24423131.185
  23600542.742    13386368.52249  10444953.42846  23600542.235    23600551.871
  20325923.906    -8218814.13649  -5963510.71747  20325923.136    20325930.957
  22914058.138    12593628.34849   9829827.62146  22914057.918    22914068.529
  22883504.689   -12096397.91349  -9403951.88846  22883504.420    22883514.139
  23913661.089     4523778.41449   3550617.91645  23913661.027    23913670.226
  21802676.963   -20292553.39149 -15767418.40247  21802676.451    21802685.343
  20334711.602   -11929698.55949  -9264731.95148  20334711.112    20334717.449
  20574359.991    -4382863.64149  -3391925.72147  20574359.377    20574367.279
  24719085.963    -4800726.31449  -3387723.42245  24719085.024    24719097.434
 02  7 13 17 14 30.0000000  0 11G26G22G23G15G 6G 3G29G21G18G17G 2
  22883463.879      981306.75749    791220.90646  22883463.848    22883472.625
  24435449.967     2892476.44449   2290873.75845  24435449.220    24435460.829
  23616099.945    13468121.95149  10508657.33446  23616099.355    23616109.119
  20325896.977    -8218955.68549  -5963621.01847  20325896.205    20325904.013
  22933636.979    12696515.97849   9909999.63346  22933636.833    22933647.482
  22868748.882   -12173940.06749  -9464374.29746  22868748.655    22868758.250
  23928893.529     4603825.16849   3612991.98445  23928893.421    23928902.714
  21794154.478   -20337339.43049 -15802316.58947  21794153.981    21794162.823
  20335347.219   -11926358.13049  -9262129.02048  20335346.762    20335353.088
  20576980.156    -4369094.59849  -3381196.60447  20576979.543    20576987.460
  24723029.708    -4780001.02749  -3371573.95645  24723029.053    24723041.314
 02  7 13 17 15  0.0000000  0 11G26G22G23G15G 6G 3G29G21G18G17G 2
  22898530.403     1060481.99049    852915.84846  22898530.447    22898539.230
  24447822.139     2957491.74849   2341534.92345  24447821.235    24447832.903
  23631662.031    13549901.47749  10572381.59246  23631661.462    23631671.284
  20325926.649    -8218799.74749  -5963499.51648  20325925.894    20325933.677
  22953258.495    12799627.36149   9990346.00646  22953258.330    22953269.044
  22854062.718   -12251116.96049  -9524512.09246  22854062.402    22854071.951
  23944189.927     4684208.28549   3675628.15245  23944189.822    23944199.136
  21785683.399   -20381855.24349 -15837004.19047  21785682.876    21785691.684
  20336055.395   -11922636.82349  -9259229.29648  20336054.902    20336061.212
  20579652.953    -4355049.07249  -3370252.04547  20579652.323    20579660.254
  24727043.756    -4758906.57149  -3355136.79545  24727043.184    24727055.383
 02  7 13 17 15 30.0000000  0 11G26G22G23G15G 6G 3G29G21G18G17G 2
  22913685.252     1140120.95549    914972.14246  22913685.246    22913694.068
  24460235.689     3022725.24849   2392366.12045  24460234.842    24460246.527
  23647228.792    13631705.15149  10636124.64545  23647228.194    23647238.078
  20326013.078    -8218345.85949  -5963145.85048  20326012.285    20326020.080
  22972922.050    12902959.68949  10070864.53246  22972921.817    22972932.659
  22839446.381   -12327926.47049  -9584363.61046  22839445.951    22839455.534
  23959549.985     4764925.00649   3738524.25445  23959549.739    23959559.122
  21777263.628   -20426101.74749 -15871481.92747  21777263.065    21777271.819
  20336835.817   -11918536.10049  -9256033.91948  20336835.262    20336841.577
  20582378.383    -4340726.90349  -3359091.91547  20582377.756    20582385.672
  24731128.022    -4737445.18049  -3338413.71045  24731127.316    24731139.417
 02  7 13 17 16  0.0000000  0 11G26G22G23G15G 6G 3G29G21G18G17G 2
  22928927.704     1220220.91849    977387.65446  22928927.714    22928936.599
  24472690.277     3088174.20549   2443365.17845  24472689.439    24472701.190
  23662799.980    13713531.90749  10699885.68646  23662799.345    23662809.227
  20326156.267    -8217593.35949  -5962559.49848  20326155.485    20326163.280
  22992627.281    13006510.63149  10151553.39546  22992627.055    22992637.977
  22824900.322   -12404366.15249  -9643926.96946  22824899.951    22824909.436
  23974972.749     4845972.90249   3801678.41945  23974972.632    23974982.058
  21768895.005   -20470078.80249 -15905749.72547  21768894.498    21768903.237
  20337688.105   -11914057.14749  -9252543.82948  20337687.572    20337693.891
  20585156.584    -4326127.28849  -3347715.60247  20585155.963    20585163.886
  24735281.808    -4715618.14449  -3321405.72945  24735280.951    24735293.166
 02  7 13 17 16 30.0000000  0 11G26G22G23G15G 6G 3G29G21G18G17G 2
  22944257.427     1300778.97749   1040160.12746  22944257.431    22944266.340
  24485185.263     3153835.36649   2494529.60345  24485184.440    24485195.917
  23678375.234    13795380.37549  10763663.64146  23678374.632    23678384.553
  20326356.405    -8216541.63249  -5961739.97947  20326355.627    20326363.429
  23012373.801    13110277.78449  10232410.74346  23012373.555    23012384.360
  22810425.112   -12480433.82749  -9703200.45146  22810424.732    22810434.144
  23990458.307     4927349.54549   3865088.76345  23990458.111    23990467.537
  21760577.569   -20513787.29149 -15939808.24247  21760577.056    21760585.759
  20338612.177   -11909201.27049  -9248760.02748  20338611.632    20338617.924
  20587987.770    -4311249.30549  -3336122.37247  20587987.153    20587995.099
  24739504.546    -4693427.51449  -3304114.42745  24739503.688    24739516.094
 02  7 13 17 17  0.0000000  0 11G26G22G23G15G 6G 3G29G21G18G17G 2
  22959673.722     1381792.59049   1103287.58346  22959673.819    22959682.785
  24497720.033     3219706.28149   2545857.47345  24497719.322    24497730.856
  23693954.601    13877249.40349  10827457.62846  23693953.867    23693963.730
  20326613.650    -8215189.78649  -5960686.60047  20326612.889    20326620.678
  23032160.922    13214258.90249  10313434.83046  23032160.627    23032171.467
  22796021.297   -12556126.84649  -9762181.98746  22796020.853    22796030.239
  24006006.073     5009052.55949   3928753.41645  24006005.797    24006015.160
  21752311.146   -20557227.33549 -15973657.58247  21752310.649    21752319.352
  20339607.702   -11903969.32749  -9244683.19247  20339607.203    20339613.505
  20590872.060    -4296092.51049  -3324311.89047  20590871.436    20590879.372
  24743796.467    -4670874.76149  -3286540.93645  24743795.387    24743807.730
 02  7 13 17 17 30.0000000  0 11G26G22G23G15G 6G 3G29G21G18G17G 2
  22975176.382     1463259.26149   1166768.04946  22975176.426    22975185.436
  24510294.152     3285784.06949   2597346.55845  24510293.507    24510305.316
  23709537.555    13959138.02549  10891266.86846  23709536.809    23709546.755
  20326928.147    -8213537.07849  -5959398.78047  20326927.381    20326935.157
  23051988.272    13318451.65449  10394623.81346  23051988.001    23051998.884
  22781689.248   -12631442.63949  -9820869.57246  22781688.675    22781698.088
  24021615.399     5091079.92649   3992670.81145  24021615.182    24021624.454
  21744095.828   -20600398.76249 -16007297.61747  21744095.356    21744104.060
  20340674.651   -11898362.42749  -9240314.17948  20340674.174    20340680.469
  20593809.611    -4280655.60349  -3312283.13747  20593808.983    20593816.907
  24748156.751    -4647961.24449  -3268686.32545  24748155.828    24748168.115
 02  7 13 17 18  0.0000000  0 12G26G22G23G15G 6G 3G29G21G18G14G17G 2
  22990764.375     1545174.79449   1230598.28546  22990764.435    22990773.490
  24522907.158     3352064.76449   2648993.75445  24522906.544    24522917.964
  23725123.629    14041043.76549  10955089.43146  23725123.029    23725132.988
  20327299.775    -8211584.14749  -5957877.01547  20327299.024    20327306.821
  23071855.239    13422852.68049  10475975.08546  23071854.966    23071866.017
  22767429.086   -12706379.84249  -9879262.15446  22767428.528    22767437.936
  24037285.813     5173427.84749   4056837.99045  24037285.434    24037294.756
  21735931.339   -20643303.24349 -16040729.63547  21735930.858    21735939.577
  20341812.609   -11892382.35549  -9235654.39148  20341812.127    20341818.454
  24657838.026    -3708390.03349  -2845704.58645  24657837.764    24657850.203
  20596800.375    -4264939.23049  -3300036.62547  20596799.762    20596807.641
  24752584.680    -4624690.09849  -3250553.07645  24752584.212    24752596.551
 02  7 13 17 18 30.0000000  0 12G26G22G23G15G 6G 3G29G21G18G14G17G 2
  23006437.537     1627537.61949   1294777.06546  23006437.575    23006446.651
  24535558.407     3418546.73249   2700797.77645  24535557.747    24535569.388
  23740713.211    14122967.01149  11018925.67046  23740712.577    23740722.553
  20327729.015    -8209328.62049  -5956119.45547  20327728.257    20327736.070
  23091761.654    13527460.78049  10557487.69446  23091761.386    23091772.458
  22753241.523   -12780934.95549  -9937357.00746  22753241.149    22753250.546
  24053016.865     5256095.33249   4121254.17545  24053016.543    24053025.931
  21727817.799   -20685939.98749 -16073953.02447  21727817.335    21727826.017
  20343021.622   -11886029.20049  -9230703.88748  20343021.119    20343027.407
  24635998.633    -3823155.84549  -2935132.47445  24635998.573    24636010.992
  20599844.660    -4248941.32249  -3287570.74047  20599844.055    20599851.960
  24757081.209    -4601061.66549  -3232141.39945  24757080.700    24757093.055
 02  7 13 17 19  0.0000000  0 12G26G22G23G15G 6G 3G29G21G18G14G17G 2
  23022195.364     1710344.91549   1359302.16846  23022195.276    23022204.390
  24548247.308     3485226.77849   2752756.13045  24548246.611    24548258.348
  23756305.698    14204906.10249  11082774.23546  23756305.122    23756315.053
  20328215.850    -8206770.21549  -5954125.88648  20328215.100    20328222.930
  23111707.027    13632273.12549  10639159.47346  23111706.698    23111717.777
  22739127.229   -12855106.05049  -9995152.62646  22739126.880    22739136.200
  24068808.248     5339079.55249   4185917.16145  24068807.931    24068817.326
  21719755.101   -20728309.61949 -16106968.29047  21719754.577    21719763.310
  20344301.291   -11879304.42549  -9225463.81248  20344300.764    20344307.083
  24614161.538    -3937911.10249  -3024552.15545  24614161.231    24614173.687
  20602942.657    -4232661.36249  -3274885.06147  20602942.050    20602949.946
  24761645.633    -4577077.80949  -3213452.78045  24761644.760    24761657.248
 02  7 13 17 19 30.0000000  0 12G26G22G23G15G 6G 3G29G21G18G14G17G 2
  23038036.974     1793593.82549   1424171.39846  23038036.999    23038046.166
  24560973.459     3552102.03649   2804866.59645  24560972.593    24560984.441
  23771900.985    14286859.76949  11146634.15846  23771900.396    23771910.387
  20328760.449    -8203908.14549  -5951895.69048  20328759.702    20328767.551
  23131690.741    13737287.46249  10720988.64946  23131690.393    23131701.455
  22725086.466   -12928890.58249 -10052647.01846  22725086.090    22725095.381
  24084659.504     5422378.19049   4250825.13745  24084659.267    24084668.577
  21711743.190   -20770412.07049 -16139775.34547  21711742.713    21711751.453
  20345651.474   -11872209.11849  -9219935.00648  20345650.989    20345657.283
  24592326.824    -4052653.13249  -3113961.51945  24592326.526    24592338.938
  20606094.453    -4216098.74949  -3261979.13347  20606093.828    20606101.693
  24766277.336    -4552740.39349  -3194488.68645  24766276.163    24766288.588
 02  7 13 17 20  0.0000000  0 12G26G22G23G15G 6G 3G29G21G18G14G17G 2
  23053962.287     1877281.44549   1489382.47746  23053962.234    23053971.494
  24573736.135     3619169.88249   2857127.15445  24573735.197    24573747.293
  23787498.952    14368827.08949  11210504.70846  23787498.367    23787508.360
  20329363.040    -8200741.47549  -5949428.14048  20329362.315    20329370.189
  23151712.411    13842501.51049  10802973.45046  23151712.093    23151723.188
  22711119.567   -13002285.91349 -10109838.14846  22711119.389    22711128.736
  24100570.179     5505988.93449   4315976.31845  24100569.813    24100579.219
  21703782.162   -20812247.54049 -16172374.35047  21703781.645    21703790.377
  20347071.955   -11864744.32649  -9214118.29248  20347071.456    20347077.792
  24570495.137    -4167379.50449  -3203358.70945  24570494.960    24570507.256
  20609300.195    -4199252.35249  -3248852.08647  20609299.599    20609307.476
  24770975.403    -4528051.05549  -3175250.31845  24770974.531    24770986.804
 02  7 13 17 20 30.0000000  0 12G26G22G23G15G 6G 3G29G21G18G14G17G 2
  23069970.479     1961405.41649   1554933.58046  23069970.482    23069979.785
  24586534.859     3686427.58649   2909535.66145  24586533.888    24586546.113
  23803099.399    14450807.22749  11274385.26146  23803098.658    23803108.724
  20330023.780    -8197269.41149  -5946722.62648  20330023.018    20330030.875
  23171771.721    13947913.03549  10885112.14146  23171771.466    23171782.503
  22697227.501   -13075289.47949 -10166723.98546  22697227.237    22697236.637
  24116539.709     5589909.62749   4381369.02245  24116539.387    24116548.925
  21695871.984   -20853815.72749 -16204765.08647  21695871.481    21695880.175
  20348562.639   -11856910.93049  -9208014.34348  20348562.124    20348568.475
  24548667.082    -4282087.18849  -3292741.30945  24548666.762    24548678.954
  20612560.166    -4182121.21049  -3235503.15447  20612559.552    20612567.460
  24775739.289    -4503011.27149  -3155738.87045  24775739.313    24775751.933
 02  7 13 17 21  0.0000000  0 12G26G22G23G15G 6G 3G29G21G18G14G17G 2
  23086061.185     2045962.17449   1620821.90746  23086061.152    23086070.446
  24599369.114     3753871.62349   2962089.33345  24599368.181    24599380.489
  23818701.700    14532798.31549  11338274.33945  23818701.056    23818711.185
  20330742.629    -8193491.82049  -5943779.05748  20330741.870    20330749.722
  23191868.028    14053519.04549  10967402.36246  23191867.794    23191878.738
  22683410.253   -13147899.71549 -10223303.34446  22683409.872    22683419.350
  24132567.703     5674137.10349   4447000.75545  24132567.391    24132576.880
  21688012.337   -20895117.95349 -16236948.59047  21688011.872    21688020.547
  20350123.151   -11848710.45749  -9201624.37648  20350122.603    20350128.954
  24526842.956    -4396774.24349  -3382107.83345  24526842.651    24526854.710
  20615874.279    -4164705.41649  -3221932.43247  20615873.658    20615881.578
  24780570.465    -4477623.47549  -3135956.27445  24780570.348    24780583.263
 02  7 13 17 21 30.0000000  0 12G26G22G23G15G 6G 3G29G21G18G14G17G 2
  23102233.721     2130949.06749   1687045.39646  23102233.686    23102243.015
  24612238.437     3821499.14049   3014785.98045  24612237.382    24612249.413
  23834306.053    14614799.40949  11402171.21745  23834305.444    23834315.492
  20331519.816    -8189407.60449  -5940596.57548  20331519.082    20331526.919
  23212001.030    14159317.31649  11049842.39146  23212000.686    23212011.710
  22669668.181   -13220114.07649 -10279574.24646  22669667.856    22669677.401
  24148653.652     5758669.22449   4512869.90345  24148653.285    24148662.862
  21680203.355   -20936154.40149 -16268924.98347  21680202.858    21680211.532
  20351753.295   -11840143.83449  -9194949.09448  20351752.795    20351759.129
  24505023.294    -4511438.22049  -3471456.36645  24505022.925    24505034.756
  20619242.765    -4147003.85249  -3208139.02747  20619242.156    20619250.060
  24785467.664    -4451889.21749  -3115903.72545  24785467.238    24785480.172
 02  7 13 17 22  0.0000000  0 12G26G22G23G15G 6G 3G29G21G18G14G17G 2
  23118487.447     2216362.94049   1753601.59246  23118487.404    23118496.796
  24625142.080     3889307.14049   3067623.26345  24625140.839    24625153.092
  23849912.086    14696809.05849  11466074.75245  23849911.390    23849921.494
  20332355.464    -8185016.44749  -5937174.91348  20332354.724    20332362.547
  23232169.854    14265305.06449  11132430.05246  23232169.534    23232180.839
  22656002.062   -13291930.61249 -10335535.14846  22656001.666    22656011.124
  24164796.987     5843503.39249   4578974.40345  24164796.719    24164806.296
  21672444.741   -20976926.01949 -16300695.02647  21672444.219    21672452.921
  20353452.810   -11831212.75349  -9187989.81548  20353452.318    20353458.714
  24483208.354    -4626076.52849  -3560784.91045  24483207.777    24483219.838
  20622665.731    -4129016.07249  -3194122.59847  20622665.136    20622673.080
  24790430.632    -4425810.70049  -3095582.89345  24790429.952    24790442.673
 02  7 13 17 22 30.0000000  0 12G26G22G23G15G 6G 3G29G21G18G14G17G 2
  23134821.884     2302200.75449   1820488.13646  23134821.886    23134831.277
  24638079.384     3957292.38649   3120598.68345  24638078.203    24638090.582
  23865519.351    14778825.99049  11529983.98345  23865518.815    23865528.932
  20333249.593    -8180317.69849  -5933513.55048  20333248.835    20333256.676
  23252374.287    14371479.73249  11215163.37945  23252374.056    23252385.408
  22642412.006   -13363347.01649 -10391184.25046  22642411.544    22642421.000
  24180997.395     5928636.81849   4645312.05845  24180997.033    24181006.680
  21664736.518   -21017432.66949 -16332258.59847  21664736.015    21664744.732
  20355221.447   -11821918.37649  -9180747.44548  20355220.944    20355227.372
  24461398.536    -4740686.70249  -3650091.49645  24461398.017    24461410.284
  20626143.246    -4110741.57749  -3179882.74647  20626142.639    20626150.661
  24795458.925    -4399389.81649  -3074995.27945  24795457.822    24795470.599
 02  7 13 17 23  0.0000000  0 12G26G22G23G15G 6G 3G29G21G18G14G17G 2
  23151236.653     2388460.43649   1887703.40646  23151236.642    23151246.023
  24651049.752     4025452.77949   3173710.56945  24651048.684    24651061.413
  23881128.035    14860849.76849  11593898.53445  23881127.469    23881137.631
  20334202.587    -8175309.69749  -5929611.20048  20334201.835    20334209.713
  23272613.986    14477839.69849  11298041.08345  23272613.774    23272625.332
  22628898.617   -13434360.33349 -10446519.27446  22628898.230    22628907.543
  24197254.218     6014067.67049   4711881.50845  24197253.950    24197263.685
  21657078.777   -21057674.16149 -16363615.55747  21657078.247    21657086.974
  20357059.132   -11812261.25249  -9173222.41848  20357058.612    20357065.089
  24439594.920    -4855265.47349  -3739373.61845  24439594.480    24439606.555
  20629675.561    -4092178.99149  -3165418.40447  20629674.963    20629682.969
  24800551.500    -4372627.81849  -3054141.86645  24800550.786    24800563.631
 02  7 13 17 23 30.0000000  0 12G26G22G23G15G 6G 3G29G21G18G14G17G 2
  23167731.177     2475139.02149   1955245.10046  23167731.143    23167740.416
  24664053.109     4093785.49749   3226956.69245  24664051.953    24664064.697
  23896737.821    14942879.38049  11657817.63645  23896737.183    23896747.407
  20335214.492    -8169992.17749  -5925467.67948  20335213.724    20335221.636
  23292888.558    14584382.47649  11381061.23845  23292888.329    23292899.958
  22615462.364   -13504968.30549 -10501538.43546  22615461.992    22615471.290
  24213567.366     6099793.52949   4778680.80445  24213567.036    24213576.777
  21649471.363   -21097651.33949 -16394766.55547  21649470.823    21649479.544
  20358965.573   -11802242.64649  -9165415.72248  20358965.122    20358971.621
  24417797.831    -4969810.29249  -3828629.23445  24417797.381    24417809.338
  20633262.930    -4073327.32349  -3150728.80647  20633262.330    20633270.338
  24805708.545    -4345526.54249  -3033024.09245  24805708.146    24805720.800
 02  7 13 17 24  0.0000000  0 11G26G22G23G15G 6G 3G29G21G18G14G17
  23184304.889     2562234.30849   2023111.49646  23184304.840    23184314.185
  24677088.771     4162288.12949   3280335.28045  24677087.658    24677100.426
  23912348.531    15024914.26049  11721740.84245  23912348.026    23912358.203
  20336285.540    -8164363.68449  -5921081.84847  20336284.763    20336292.703
  23313197.589    14691106.20149  11464222.37945  23313197.259    23313208.973
  22602103.748   -13575168.09249 -10556239.52946  22602103.300    22602112.683
  24229936.420     6185812.78649   4845708.74745  24229936.014    24229945.693
  21641914.294   -21137363.70649 -16425711.19847  21641913.755    21641922.494
  20360940.802   -11791862.98249  -9157327.67148  20360940.274    20360946.805
  24396007.663    -5084318.13749  -3917856.07245  24396007.225    24396019.206
  20636905.480    -4054185.52949  -3135813.13347  20636904.878    20636912.951
 02  7 13 17 24 30.0000000  0 11G26G22G23G15G 6G 3G29G21G18G14G17
  23200957.465     2649744.06149   2091300.85046  23200957.491    23200966.723
  24690156.445     4230958.72449   3333844.71945  24690155.490    24690168.167
  23927960.214    15106954.16249  11785667.95545  23927959.748    23927969.926
  20337416.088    -8158422.59649  -5916452.43247  20337415.330    20337423.265
  23333540.595    14798009.35049  11547523.32645  23333540.366    23333552.179
  22588823.327   -13644956.24249 -10610619.86846  22588823.053    22588832.417
  24246360.980     6272123.73049   4912963.97445  24246360.563    24246370.144
  21634407.722   -21176810.45749 -16456448.86947  21634407.222    21634415.990
  20362984.595   -11781122.70149  -9148958.62248  20362984.119    20362990.639
  24374225.290    -5198785.29049  -4007051.16345  24374224.935    24374236.813
  20640603.602    -4034751.72749  -3120669.92447  20640603.018    20640611.111
 02  7 13 17 25  0.0000000  0 11G26G22G23G15G 6G 3G29G21G18G14G17
  23217687.801     2737661.87949   2159808.17846  23217687.779    23217696.968
  24703254.817     4299790.82649   3387479.99945  24703253.904    24703266.610
  23943571.922    15188994.46749  11849595.36745  23943571.530    23943581.802
  20338605.593    -8152171.65649  -5911581.56648  20338604.837    20338612.799
  23353916.707    14905085.75049  11630959.27445  23353916.440    23353928.319
  22575621.171   -13714334.29549 -10664680.64346  22575620.783    22575630.151
  24262839.784     6358720.22449   4980441.71045  24262839.445    24262848.978
  21626950.978   -21215995.88749 -16486982.92747  21626950.464    21626959.216
  20365096.109   -11770026.48949  -9140312.22447  20365095.638    20365102.164
  24352450.413    -5313212.83949  -4096215.40945  24352450.020    24352461.922
  20644356.715    -4015029.00449  -3105301.58547  20644356.130    20644364.203
 02  7 13 17 25 30.0000000  0 11G26G22G23G15G 6G 3G29G21G18G14G17
  23234495.399     2825986.04349   2228632.13046  23234495.383    23234504.579
  24716383.337     4368782.50949   3441239.61545  24716382.644    24716395.467
  23959183.955    15271035.30949  11913523.20745  23959183.393    23959193.768
  20339854.342    -8145609.29149  -5906468.03347  20339853.602    20339861.565
  23374325.536    15012334.27849  11714529.34945  23374325.261    23374337.143
  22562497.600   -13783298.64749 -10718419.05346  22562497.258    22562506.602
  24279372.530     6445600.85449   5048140.86945  24279372.311    24279381.823
  21619544.054   -21254919.29349 -16517312.82647  21619543.562    21619552.291
  20367275.397   -11758574.18549  -9131388.35347  20367274.949    20367281.513
  24330683.959    -5427597.00949  -4185345.83545  24330683.289    24330695.413
  20648165.160    -3995015.46049  -3089706.62847  20648164.593    20648172.679
 02  7 13 17 26  0.0000000  0 11G26G22G23G15G 6G 3G29G21G18G14G17
  23251379.629     2914713.75549   2297770.54246  23251379.725    23251388.949
  24729542.036     4437931.03849   3495121.47445  24729541.156    24729554.131
  23974795.674    15353075.56249  11977450.59745  23974795.194    23974805.652
  20341162.557    -8138734.46349  -5901111.01747  20341161.827    20341169.811
  23394766.825    15119752.57749  11798231.70545  23394766.580    23394778.403
  22549453.199   -13851847.08749 -10771833.39146  22549452.908    22549462.211
  24295959.057     6532763.52549   5116059.76345  24295958.837    24295968.372
  21612186.983   -21293580.94349 -16547438.75447  21612186.475    21612195.184
  20369522.213   -11746767.09649  -9122188.02347  20369521.763    20369528.308
  24308925.979    -5541935.22149  -4274440.45245  24308925.471    24308937.479
  20652029.105    -3974710.25749  -3073884.40047  20652028.538    20652036.683
 02  7 13 17 26 30.0000000  0 11G26G22G23G15G 6G 3G29G21G18G14G17
  23268340.380     3003842.52449   2367221.46746  23268340.443    23268349.603
  24742729.985     4507233.99949   3549123.67545  24742729.085    24742742.232
  23990407.381    15435114.70849  12041377.11345  23990406.707    23990417.299
  20342530.454    -8131546.13749  -5895509.74047  20342529.720    20342537.716
  23415239.878    15227338.63649  11882064.79445  23415239.646    23415251.509
  22536488.638   -13919977.01949 -10824921.61246  22536488.204    22536497.525
  24312598.846     6620206.04649   5184196.72145  24312598.549    24312608.216
  21604879.751   -21331980.72249 -16577360.62647  21604879.183    21604887.899
  20371836.400   -11734606.02449  -9112711.86347  20371835.931    20371842.481
  24287177.182    -5656224.33949  -4363496.83545  24287176.917    24287188.849
  20655948.815    -3954112.11449  -3057833.91447  20655948.245    20655956.427
 02  7 13 17 27  0.0000000  0 11G26G22G23G15G 6G 3G29G21G18G14G17
  23285376.744     3093368.95049   2436982.23745  23285376.769    23285385.970
  24755946.690     4576688.13649   3603243.65145  24755945.916    24755958.885
  24006018.547    15517151.31249  12105301.67045  24006017.899    24006028.348
  20343958.023    -8124044.09249  -5889664.00948  20343957.301    20343965.331
  23435744.277    15335089.51449  11966026.32345  23435744.072    23435755.948
  22523603.915   -13987686.68949 -10877682.35546  22523603.494    22523612.774
  24329291.315     6707925.61149   5252549.56745  24329290.842    24329300.696
  21597622.131   -21370119.27249 -16607078.95247  21597621.618    21597630.348
  20374217.645   -11722092.47549  -9102961.04547  20374217.193    20374223.753
  24265438.392    -5770462.05249  -4452513.17245  24265438.177    24265450.091
  20659924.255    -3933220.87649  -3041555.04147  20659923.692    20659931.871
 02  7 13 17 27 30.0000000  0 11G26G22G23G15G 6G 3G29G21G18G14G17
  23302488.242     3183290.34149   2507050.78545  23302488.353    23302497.506
  24769191.617     4646290.60549   3657479.24045  24769190.926    24769203.828
  24021629.093    15599184.40849  12169223.47445  24021628.333    24021638.837
  20345445.557    -8116227.18149  -5883572.91848  20345444.832    20345452.847
  23456279.559    15443002.97649  12050114.51545  23456279.296    23456291.458
  22510799.535   -14054973.60149 -10930113.68346  22510799.178    22510808.516
  24346036.139     6795919.99449   5321116.56045  24346035.610    24346045.432
  21590414.200   -21407996.70749 -16636593.80947  21590413.758    21590422.475
  20376665.744   -11709227.50749  -9092936.39847  20376665.298    20376671.854
  24243710.338    -5884645.66549  -4541487.37045  24243709.670    24243721.633
  20663955.687    -3912035.71549  -3025047.13947  20663955.122    20663963.275
 02  7 13 17 28  0.0000000  0 11G26G22G23G15G 6G 3G29G21G18G14G17
  23319674.395     3273603.78349   2577424.83645  23319674.435    23319683.624
  24782464.502     4716038.58649   3711828.17645  24782463.697    24782476.578
  24037238.599    15681213.06849  12233141.84045  24037237.857    24037248.447
  20346993.146    -8108094.68349  -5877235.90548  20346992.400    20347000.438
  23476845.391    15551076.62449  12134327.54045  23476845.178    23476857.445
  22498076.042   -14121835.33749 -10982213.70246  22498075.756    22498085.139
  24362832.783     6884186.74549   5389895.80745  24362832.322    24362842.145
  21583255.978   -21445613.70749 -16665905.73647  21583255.443    21583264.191
  20379180.545   -11696012.26549  -9082638.80847  20379180.097    20379186.634
  24221992.706    -5998772.64549  -4630417.40745  24221991.874    24222003.728
  20668043.266    -3890555.57849  -3008309.39347  20668042.692    20668050.885
 02  7 13 17 28 30.0000000  0 11G26G22G23G15G 6G 3G29G21G18G14G17
  23336934.598     3364306.79849   2648102.43945  23336934.616    23336943.950
  24795764.500     4785929.56549   3766288.56345  24795763.510    24795776.471
  24052847.401    15763236.75749  12297056.33645  24052846.620    24052857.137
  20348600.989    -8099645.41049  -5870652.05047  20348600.247    20348608.292
  23497441.430    15659308.47449  12218663.83845  23497441.160    23497453.658
  22485434.135   -14188269.09949 -11033980.22246  22485433.718    22485443.149
  24379680.786     6972723.71049   5458885.59145  24379680.558    24379690.363
  21576147.162   -21482970.24549 -16695014.69947  21576146.685    21576155.440
  20381761.886   -11682447.48749  -9072068.85647  20381761.410    20381767.963
  24200286.454    -6112839.85249  -4719300.86745  24200285.561    24200297.349
  20672187.115    -3868779.51049  -2991341.05047  20672186.543    20672194.763
 02  7 13 17 29  0.0000000  0 11G26G22G23G15G 6G 3G29G21G18G14G17
  23354268.339     3455395.87149   2719080.88545  23354268.296    23354277.740
  24809090.863     4855960.27449   3820857.83945  24809089.914    24809103.050
  24068454.872    15845254.01449  12360965.82645  24068454.185    24068464.595
  20350269.088    -8090879.40049  -5863821.39247  20350268.352    20350276.419
  23518067.089    15767695.54649  12303121.07045  23518066.830    23518079.170
  22472873.935   -14254273.19049 -11085411.94146  22472873.543    22472882.912
  24396579.592     7061527.93449   5528083.63545  24396579.340    24396589.451
  21569087.826   -21520067.27549 -16723921.45547  21569087.331    21569096.080
  20384409.315   -11668535.12249  -9061228.05647  20384408.857    20384415.393
  24178592.087    -6226845.07949  -4808136.03245  24178591.020    24178602.929
  20676387.347    -3846707.27649  -2974141.92047  20676386.775    20676394.965
 02  7 13 17 29 30.0000000  0 11G26G22G23G15G 6G 3G29G21G18G14G17
  23371674.980     3546867.87949   2790357.70145  23371674.896    23371684.357
  24822443.441     4926127.53549   3875533.51745  24822442.560    24822455.627
  24084060.816    15927263.55249  12424869.26845  24084060.142    24084070.661
  20351997.570    -8081796.13949  -5856743.53147  20351996.846    20352004.908
  23538721.661    15876235.06849  12387697.09145  23538721.342    23538733.762
  22460395.781   -14319845.96249 -11136507.56246  22460395.452    22460404.782
  24413528.938     7150596.80449   5597487.90545  24413528.586    24413538.853
  21562077.728   -21556905.18449 -16752626.29147  21562077.275    21562086.018
  20387122.704   -11654276.33549  -9050117.31247  20387122.219    20387128.743
  24156909.606    -6340786.12749  -4896921.16845  24156908.610    24156920.550
  20680644.014    -3824338.41749  -2956711.65547  20680643.438    20680651.611
 02  7 13 17 30  0.0000000  0 11G26G22G23G15G 6G 3G29G21G18G14G17
  23389154.033     3638720.58549   2861931.19245  23389153.966    23389163.401
  24835821.519     4996429.09449   3930313.80244  24835820.579    24835833.711
  24099665.297    16009265.13849  12488766.54145  24099664.589    24099675.124
  20353786.754    -8072393.99949  -5849417.20547  20353786.017    20353794.090
  23559404.761    15984925.35949  12472390.59945  23559404.563    23559416.979
  22448000.239   -14384984.51649 -11187264.83646  22448000.023    22448009.246
  24430528.217     7239928.46949   5667096.95745  24430527.887    24430538.316
  21555117.048   -21593483.90449 -16781129.16647  21555116.563    21555125.294
  20389901.898   -11639671.68449  -9038737.06947  20389901.395    20389907.916
  24135240.091    -6454659.51549  -4985653.60145  24135239.112    24135251.220
  20684957.381    -3801671.40249  -2939049.06247  20684956.802    20684965.053
 02  7 13 17 30 30.0000000  0 10G26G23G15G 6G 3G29G21G18G14G17
  23406704.742     3730950.83749   2933798.86045  23406704.765    23406714.288
  24115268.033    16091257.64949  12552656.71845  24115267.418    24115277.882
  20355636.666    -8062672.47849  -5841842.00547  20355635.946    20355644.045
  23580116.324    16093763.98149  12557199.71445  23580116.145    23580128.436
  22435687.877   -14449686.52849 -11237681.93846  22435687.567    22435696.783
  24447576.958     7329520.51049   5736908.89145  24447576.674    24447587.085
  21548205.607   -21629803.92249 -16809430.44947  21548205.088    21548213.812
  20392746.573   -11624722.63049  -9027088.45347  20392746.116    20392752.636
  24113583.725    -6568462.64449  -5074331.29345  24113583.044    24113595.062
  20689327.642    -3778705.73949  -2921153.75447  20689327.077    20689335.335
 02  7 13 17 31  0.0000000  0 10G26G23G15G 6G 3G29G21G18G14G17
  23424327.694     3823559.40649   3005961.33645  23424327.665    23424337.261
  24130869.580    16173243.76649  12616541.91745  24130868.937    24130879.494
  20357548.162    -8052627.48649  -5834014.74747  20357547.443    20357555.533
  23600856.314    16202751.98249  12642125.20245  23600856.076    23600868.395
  22423459.579   -14513946.50149 -11287754.59746  22423459.232    22423468.500
  24464675.655     7419373.99049   5806924.53745  24464675.358    24464685.663
  21541343.961   -21665861.88649 -16837527.53647  21541343.488    21541352.184
  20395657.339   -11609426.73649  -9015169.57247  20395656.841    20395663.353
  24091942.147    -6682189.35149  -5162949.44045  24091941.486    24091953.480
  20693755.552    -3755437.05949  -2903022.32247  20693754.962    20693763.199
 02  7 13 17 31 30.0000000  0 10G26G23G15G 6G 3G29G21G18G14G17
  23442020.926     3916537.77149   3078411.96245  23442020.886    23442030.525
  24146468.587    16255216.99349  12680417.06645  24146467.878    24146478.465
  20359520.319    -8042263.70849  -5825939.08147  20359519.588    20359527.714
  23621623.244    16311881.38949  12727160.90445  23621622.900    23621635.227
  22411314.747   -14577767.51149 -11337485.21346  22411314.450    22411323.709
  24481822.248     7509480.96749   5877137.73345  24481822.197    24481832.596
  21534531.086   -21701663.73949 -16865425.05147  21534530.604    21534539.298
  20398632.767   -11593790.63249  -9002985.59147  20398632.271    20398638.816
  24070314.476    -6795842.51149  -5251510.28145  24070313.969    24070325.915
  20698240.195    -3731870.11949  -2884658.48047  20698239.597    20698247.850
 02  7 13 17 32  0.0000000  0 10G26G23G15G 6G 3G29G21G18G14G17
  23459783.935     4009882.93649   3151148.40145  23459783.859    23459793.496
  24162064.964    16337176.48949  12744281.52845  24162064.351    24162074.918
  20361553.292    -8031580.35549  -5817614.39647  20361552.570    20361560.693
  23642416.398    16421149.77449  12812304.87045  23642416.166    23642428.570
  22399253.851   -14641147.66849 -11386872.29546  22399253.499    22399262.836
  24499016.884     7599838.85549   5947546.42945  24499016.763    24499027.110
  21527766.901   -21737209.99249 -16893123.39847  21527766.377    21527775.051
  20401672.700   -11577815.63249  -8990537.53547  20401672.226    20401678.770
  24048701.504    -6909419.54849  -5340011.76645  24048700.921    24048713.013
  20702781.709    -3708004.27649  -2866061.72547  20702781.143    20702789.410
 02  7 13 17 32 30.0000000  0 10G26G23G15G 6G 3G29G21G18G14G17
  23477616.527     4103593.14349   3224169.28145  23477616.405    23477626.084
  24177658.882    16419122.37449  12808135.37745  24177658.255    24177668.745
  20363647.433    -8020575.52049  -5809039.20147  20363646.711    20363654.856
  23663235.849    16530555.83449  12897556.13945  23663235.662    23663248.136
  22387277.513   -14704083.50149 -11435913.15146  22387277.150    22387286.520
  24516258.893     7690446.40149   6018149.67145  24516258.857    24516269.327
  21521051.299   -21772500.28549 -16920622.29247  21521050.837    21521059.504
  20404777.075   -11561501.61949  -8977825.31447  20404776.657    20404783.228
  24027103.702    -7022916.72349  -5428451.02045  24027103.093    24027115.263
  20707380.519    -3683837.70749  -2847230.64747  20707379.929    20707388.202
 02  7 13 17 33  0.0000000  0 10G26G23G15G 6G 3G29G21G18G14G17
  23495517.912     4197664.85549   3297471.86845  23495517.681    23495527.362
  24193249.968    16501053.29049  12871977.59445  24193249.242    24193259.796
  20365802.821    -8009248.88249  -5800213.24947  20365802.099    20365810.250
  23684081.007    16640096.62549  12982912.38245  23684080.732    23684093.254
  22375385.901   -14766573.51149 -11484606.60446  22375385.653    22375395.058
  24533547.976     7781300.63149   6088945.12145  24533547.938    24533558.309
  21514384.387   -21807535.23949 -16947922.22247  21514383.902    21514392.542
  20407945.716   -11544850.59549  -8964850.49247  20407945.254    20407951.839
  24005521.630    -7136331.70449  -5516826.20645  24005520.914    24005533.062
  20712036.491    -3659370.22449  -2828165.09347  20712035.906    20712044.206
 02  7 13 17 33 30.0000000  0 10G26G23G15G 6G 3G29G21G18G14G17
  23513487.484     4292096.44849   3371054.89145  23513487.501    23513497.148
  24208838.104    16582969.47349  12935808.28345  24208837.430    24208848.037
  20368019.770    -7997598.65449  -5791135.15447  20368019.044    20368027.201
  23704951.370    16749771.02049  13068372.73345  23704951.094    23704963.731
  22363579.991   -14828614.14249 -11532949.89446  22363579.666    22363589.061
  24550883.850     7872400.48149   6159931.97145  24550883.647    24550894.152
  21507766.232   -21842314.26049 -16975022.72347  21507765.654    21507774.279
  20411178.484   -11527862.47149  -8951612.99347  20411177.965    20411184.545
  23983955.820    -7249660.45749  -5605134.21845  23983955.074    23983967.310
  20716750.186    -3634599.60949  -2808863.32147  20716749.603    20716757.933
 02  7 13 17 34  0.0000000  0 10G26G23G15G 6G 3G29G21G18G14G17
  23531525.078     4386883.83749   3444915.13545  23531525.034    23531534.653
  24224423.252    16664869.01749  12999626.03245  24224422.491    24224433.050
  20370298.212    -7985625.41549  -5781805.35847  20370297.487    20370305.657
  23725846.514    16859575.40749  13153934.36845  23725846.308    23725859.007
  22351859.710   -14890204.38149 -11580942.23546  22351859.370    22351868.737
  24568265.833     7963742.31149   6231107.37345  24568265.613    24568275.983
  21501196.327   -21876838.76749 -17001924.90247  21501195.822    21501204.450
  20414474.895   -11510539.51149  -8938114.59047  20414474.423    20414481.022
  23962406.764    -7362901.60449  -5693373.97445  23962405.991    23962418.094
  20721521.436    -3609526.43749  -2789325.80147  20721520.880    20721529.242
 02  7 13 17 34 30.0000000  0 10G26G23G15G 6G 3G29G21G18G14G17
  23549629.903     4482024.81749   3519050.90445  23549629.760    23549639.476
  24240004.891    16746751.64749  13063430.60745  24240004.334    24240014.900
  20372638.425    -7973327.64649  -5772222.68847  20372637.707    20372645.847
  23746766.013    16969507.99449  13239595.88245  23746765.836    23746778.762
  22340225.704   -14951341.57249 -11628581.54446  22340225.324    22340234.702
  24585693.398     8055324.30849   6302469.91945  24585693.179    24585703.421
  21494675.121   -21911108.09949 -17028628.24847  21494674.576    21494683.186
  20417835.004   -11492882.06249  -8924355.54747  20417834.507    20417841.127
  23940875.030    -7476051.96749  -5781543.01545  23940874.217    23940886.222
  20726350.553    -3584149.38949  -2769551.49647  20726349.957    20726358.361
 02  7 13 17 35  0.0000000  0 10G26G23G15G 6G 3G29G21G18G14G17
  23567801.307     4577515.98949   3593459.56545  23567801.211    23567810.957
  24255583.262    16828616.21249  13127221.09145  24255582.659    24255593.290
  20375040.496    -7960704.80149  -5762386.70147  20375039.783    20375047.904
  23767709.455    17079566.17349  13325355.27545  23767709.397    23767722.468
  22328678.328   -15012023.67149 -11675866.24246  22328677.918    22328687.243
  24603166.176     8147143.80849   6374017.54745  24603165.813    24603176.122
  21488202.151   -21945123.33849 -17055133.58947  21488201.638    21488210.256
  20421258.406   -11474891.80849  -8910337.17547  20421257.927    20421264.549
  23919361.035    -7589108.93449  -5869639.26745  23919360.122    23919372.007
  20731237.558    -3558467.96149  -2749540.00747  20731236.993    20731245.359
 02  7 13 17 35 30.0000000  0 10G26G23G15G 6G 3G29G21G18G14G17
  23586038.740     4673354.43949   3668138.83245  23586038.675    23586048.493
  24271157.953    16910461.62449  13190996.64845  24271157.347    24271168.061
  20377504.501    -7947756.42749  -5752297.06347  20377503.768    20377511.905
  23788676.576    17189747.48149  13411210.62545  23788676.402    23788689.559
  22317217.775   -15072248.75549 -11722794.83046  22317217.452    22317226.770
  24620683.575     8239198.35749   6445748.32345  24620683.166    24620693.653
  21481777.484   -21978884.96449 -17081441.31747  21481776.985    21481785.620
  20424744.917   -11456570.12149  -8896060.54547  20424744.444    20424751.057
  23897865.123    -7702069.84549  -5957660.66445  23897864.343    23897876.145
  20736182.626    -3532481.47349  -2729290.81347  20736182.060    20736190.401
 02  7 13 17 36  0.0000000  0 10G26G23G15G 6G 3G29G21G18G14G17
  23604341.919     4769537.81849   3743086.85845  23604341.844    23604351.604
  24286728.942    16992287.81549  13254757.19945  24286728.348    24286739.163
  20380030.707    -7934481.15249  -5741952.69947  20380029.979    20380038.109
  23809666.845    17300049.91949  13497160.34345  23809666.511    23809679.732
  22305844.706   -15132014.26649 -11769365.30746  22305844.405    22305853.741
  24638245.235     8331486.02549   6517660.75745  24638244.898    24638255.368
  21475401.035   -22012392.94249 -17107551.39847  21475400.580    21475409.251
  20428294.348   -11437917.58649  -8881526.10847  20428293.896    20428300.495
  23876388.024    -7814931.58249  -6045604.77545  23876387.342    23876399.256
  20741185.984    -3506188.72049  -2708802.97847  20741185.406    20741193.751
 02  7 13 17 36 30.0000000  0 10G26G23G15G 6G 3G29G21G18G14G17
  23622709.870     4866062.39749   3818300.77645  23622709.888    23622719.697
  24302296.024    17074093.26549  13318501.64745  24302295.451    24302306.223
  20382619.146    -7920878.90849  -5731353.54947  20382618.417    20382626.529
  23830679.369    17410470.29749  13583201.96945  23830679.044    23830692.329
  22294559.376   -15191318.77749 -11815576.56246  22294559.118    22294568.434
  24655850.758     8424003.66749   6589752.38945  24655850.370    24655860.896
  21469072.741   -22045648.17649 -17133464.53847  21469072.291    21469080.939
  20431906.407   -11418936.24749  -8866735.46447  20431905.946    20431912.565
  23854930.223    -7927692.05649  -6133469.97645  23854929.576    23854941.582
  20746247.633    -3479589.54349  -2688076.37247  20746247.062    20746255.410
 02  7 13 17 37  0.0000000  0 10G26G23G15G 6G 3G29G21G18G14G17
  23641142.300     4962925.06049   3893778.13745  23641142.268    23641152.090
  24317858.845    17155877.02149  13382229.16345  24317858.387    24317869.246
  20385269.888    -7906949.08949  -5720499.14447  20385269.152    20385277.287
  23851713.855    17521006.24749  13669333.65745  23851713.542    23851726.762
  22283362.276   -15250160.21949 -11861426.98246  22283361.950    22283371.170
  24673499.456     8516748.67249   6662021.16145  24673498.993    24673509.851
  21462792.494   -22078651.28849 -17159181.21947  21462791.988    21462800.620
  20435580.807   -11399627.17049  -8851689.44147  20435580.332    20435586.949
  23833492.261    -8040348.73149  -6221254.28945  23833491.717    23833503.699
  20751367.683    -3452683.65249  -2667110.76547  20751367.137    20751375.448
 02  7 13 17 37 30.0000000  0 10G26G23G15G 6G 3G29G21G18G14G17
  23659638.577     5060122.91149   3969516.68445  23659638.483    23659648.223
  24333417.547    17237638.04149  13445938.96545  24333416.986    24333428.008
  20387983.080    -7892691.12349  -5709389.04047  20387982.334    20387990.500
  23872770.039    17631655.43349  13755553.55945  23872769.575    23872782.715
  22272253.616   -15308536.57249 -11906914.99446  22272253.240    22272262.456
  24691190.941     8609718.79948   6734465.37545  24691190.705    24691201.485
  21456560.138   -22111402.65149 -17184701.73247  21456559.583    21456568.220
  20439317.324   -11379991.69349  -8836389.07847  20439316.855    20439323.469
  23812074.557    -8152898.90049  -6308955.60945  23812074.034    23812086.063
  20756546.286    -3425470.11749  -2645905.42747  20756545.722    20756554.037
 02  7 13 17 38  0.0000000  0 10G26G23G15G 6G 3G29G21G18G14G17
  23678197.848     5157652.36449   4045513.63945  23678197.785    23678207.512
  24348971.539    17319375.24649  13509630.18245  24348971.058    24348982.107
  20390758.801    -7878104.65349  -5698022.96047  20390758.052    20390766.213
  23893847.173    17742414.72749  13841859.25645  23893846.653    23893859.870
  22261233.695   -15366446.35549 -11952039.45246  22261233.339    22261242.558
  24708924.831     8702910.82749   6807082.46945  24708924.577    24708935.417
  21450375.380   -22143903.58849 -17210027.11847  21450374.845    21450383.477
  20443115.610   -11360031.78349  -8820835.91447  20443115.126    20443121.742
  23790677.536    -8265340.39149  -6396572.24345  23790677.186    23790689.112
  20761783.404    -3397948.88849  -2624460.33147  20761782.867    20761791.185
 02  7 13 17 38 30.0000000  0 10G26G23G15G 6G 3G29G21G18G14G17
  23696819.680     5255510.61749   4121766.78745  23696819.603    23696829.275
  24364521.044    17401087.99149  13573302.38245  24364520.543    24364531.738
  20393597.107    -7863189.07649  -5686400.42547  20393596.387    20393604.505
  23914944.710    17853281.99849  13928249.11245  23914944.118    23914957.321
  22250303.043   -15423887.41549 -11996798.66746  22250302.646    22250311.847
  24726700.558     8796322.57848   6879870.81245  24726700.141    24726710.912
  21444238.388   -22176153.88249 -17235157.19947  21444237.813    21444246.446
  20446975.353   -11339748.67349  -8805030.89647  20446974.874    20446981.496
  23769301.703    -8377670.61349  -6484102.18145  23769301.444    23769313.172
  20767079.226    -3370119.12149  -2602774.81747  20767078.690    20767087.007
 02  7 13 17 39  0.0000000  0 10G26G23G15G 6G 3G29G21G18G14G17
  23715503.683     5353695.68249   4198274.57445  23715503.569    23715513.362
  24380065.889    17482776.38649  13636955.56645  24380065.392    24380076.492
  20396498.394    -7847942.79849  -5674520.21447  20396497.659    20396505.794
  23936062.496    17964255.78849  14014721.95045  23936062.038    23936075.178
  22239462.122   -15480856.75649 -12041190.30846  22239461.702    22239470.928
  24744517.667     8889952.77748   6952829.37044  24744517.618    24744528.226
  21438148.947   -22208153.53149 -17260091.97347  21438148.449    21438157.091
  20450896.632   -11319142.04149  -8788973.78747  20450896.179    20450902.817
  23747947.600    -8489885.75049  -6571542.40745  23747947.389    23747959.299
  20772434.189    -3341978.96249  -2580847.44147  20772433.633    20772441.958
 02  7 13 17 39 30.0000000  0 10G26G23G15G 6G 3G29G21G18G14G17
  23734249.345     5452204.48649   4275034.62345  23734249.241    23734259.009
  24395605.892    17564439.43849  13700589.00445  24395605.314    24395616.600
  20399462.690    -7832365.20849  -5662381.84247  20399461.976    20399470.128
  23957199.995    18075333.24449  14101275.56245  23957199.466    23957212.688
  22228711.202   -15537352.78549 -12085213.14646  22228710.844    22228720.022
  24762376.300     8983798.45558   7025955.84844  24762375.625
  21432107.194   -22239903.31449 -17284832.05247  21432106.651    21432115.273
  20454879.159   -11298213.75449  -8772666.03347  20454878.702    20454885.334
  23726615.790    -8601983.39749  -6658891.09545  23726615.746    23726627.644
  20777848.205    -3313528.13449  -2558677.98747  20777847.645    20777855.985
 02  7 13 17 40  0.0000000  0 10G26G23G15G 6G 3G29G21G18G14G17
  23753055.709     5551033.31849   4352044.06245  23753055.792    23753065.645
  24411140.941    17646075.93449  13764201.75445  24411140.299    24411151.530
  20402490.148    -7816456.04449  -5649985.09647  20402489.421    20402497.544
  23978356.655    18186511.45549  14187907.68245  23978356.159    23978369.316
  22218050.739   -15593373.73549 -12128865.79746  22218050.424    22218059.543
                   9077856.32158   7099247.69843
  21426112.817   -22271404.07549 -17309378.08547  21426112.281    21426120.881
  20458922.611   -11276965.43549  -8756108.90047  20458922.123    20458928.778
  23705306.827    -8713961.26149  -6746146.41145  23705306.947    23705318.802
  20783321.363    -3284766.44949  -2536266.31247  20783320.796    20783329.164
 02  7 13 17 40 30.0000000  0 10G26G23G15G 6G 3G21G18G14G17G 9
  23771922.808     5650180.19049   4429301.30445  23771922.850    23771932.641
  24426670.882    17727685.90849  13827793.87045  24426670.338    24426681.434
  20405580.977    -7800213.74749  -5637328.77147  20405580.241    20405588.356
  23999532.216    18297789.22349  14274617.36345  23999531.689    23999545.007
  22207481.183   -15648917.02049 -12172146.24046  22207480.851    22207489.951
  21420165.945   -22302655.23349 -17333729.63347  21420165.368    21420173.929
  20463026.859   -11255397.34049  -8739302.59947  20463026.412    20463033.062
  23684021.491    -8825815.65349  -6833305.52145  23684021.613    23684033.543
  20788854.013    -3255692.35849  -2513611.19647  20788853.456    20788861.819
  24444135.611    -2961085.98849  -1982137.77845  24444135.208    24444149.110
 02  7 13 17 41  0.0000000  0 10G26G23G15G 6G 3G21G18G14G17G 9
  23790849.747     5749641.82949   4506803.83545  23790849.777    23790859.535
  24442195.597    17809268.29049  13891364.47845  24442195.000    24442206.072
  20408735.231    -7783638.05449  -5624412.65047  20408734.497    20408742.617
  24020726.101    18409163.40549  14361402.18845  24020725.697    24020738.923
  22197002.823   -15703981.08049 -12215053.25146  22197002.475    22197011.561
  21414266.364   -22333657.83749 -17357887.49347  21414265.772    21414274.347
  20467191.656   -11233511.27349  -8722248.53447  20467191.178    20467197.844
  23662760.073    -8937544.53149  -6920366.83245  23662760.172    23662772.186
  20794446.131    -3226305.49749  -2490712.37047  20794445.565    20794453.956
  24430710.272    -3031635.69049  -2037111.53145  24430710.161    24430724.118
 02  7 13 17 41 30.0000000  0 10G26G23G15G 6G 3G21G18G14G17G 9
  23809835.732     5849413.96149   4584548.29645  23809835.784    23809845.545
  24457714.779    17890821.04149  13954912.00645  24457714.207    24457725.089
  20411952.818    -7766729.76149  -5611237.36147  20411952.080    20411960.205
  24041937.566    18520630.29149  14448259.23845  24041937.293    24041950.601
  22186615.883   -15758565.12049 -12257586.23746  22186615.486    22186624.592
  21408413.653   -22364413.34549 -17381852.81047  21408413.174    21408421.733
  20471416.478   -11211309.68049  -8704948.60947  20471416.004    20471422.689
  23641522.943    -9049146.29549  -7007329.09045  23641523.004    23641534.880
  20800097.586    -3196606.72649  -2467570.48547  20800097.032    20800105.474
  24417326.316    -3101969.71449  -2091917.21445  24417326.186    24417339.766
 02  7 13 17 42  0.0000000  0 10G26G23G15G 6G 3G21G18G14G17G 9
  23828880.209     5949493.46049   4662532.26145  23828880.329    23828890.084
  24473228.011    17972343.36049  14018435.81945  24473227.487    24473238.351
  20415233.796    -7749488.00249  -5597802.22947  20415233.058    20415241.180
  24063166.309    18632187.33649  14535186.55845  24063166.107    24063179.308
  22176320.514   -15812667.26249 -12299743.71846  22176320.163    22176329.243
  21402607.950   -22394922.21649 -17405625.94447  21402607.513    21402616.071
  20475701.070   -11188793.92249  -8687403.87647  20475700.608    20475707.287
  23620310.392    -9160618.45549  -7094190.33945  23620310.490    23620322.292
  20805808.597    -3166595.22849  -2444184.92747  20805808.039    20805816.497
  24403983.517    -3172084.83449  -2146552.22345  24403983.494    24403997.283
 02  7 13 17 42 30.0000000  0 10G26G23G15G 6G 3G21G18G14G17G 9
  23847982.760     6049877.89749   4740753.84645  23847982.835    23847992.679
  24488735.473    18053835.04649  14081935.75445  24488734.831    24488745.781
  20418578.460    -7731911.68149  -5584106.40447  20418577.743    20418585.851
  24084411.861    18743832.64449  14622182.66545  24084411.599    24084425.029
  22166117.303   -15866285.02849 -12341523.76046  22166116.966    22166126.059
  21396849.144   -22425184.76949 -17429207.14047  21396848.710    21396857.300
  20480045.339   -11165964.67549  -8669614.86947  20480044.900    20480051.595
  23599123.241    -9271957.76249  -7180948.04445  23599123.307    23599135.080
  20811579.373    -3136269.73149  -2420554.69847  20811578.824    20811587.230
  24390683.368    -3241977.20449  -2201013.72545  24390683.321    24390697.044
 02  7 13 17 43  0.0000000  0 10G26G23G15G 6G 3G21G18G14G17G 9
  23867142.728     6150563.76049   4819210.29745  23867142.811    23867152.622
  24504236.782    18135294.61849  14145410.64145  24504236.210    24504247.110
  20421986.762    -7714000.85449  -5570149.92047  20421986.033    20421994.178
  24105673.726    18855563.29349  14709245.28145  24105673.409    24105687.031
  22156006.594   -15919417.17149 -12382925.39246  22156006.216    22156015.281
  21391137.195   -22455201.63449 -17452596.88947  21391136.714    21391145.296
  20484448.986   -11142823.57449  -8651582.84847  20484448.501    20484455.222
  23577961.809    -9383162.06049  -7267600.55745  23577961.797    23577973.378
  20817409.911    -3105630.35849  -2396679.89347  20817409.357    20817417.755
  24377426.243    -3311644.25649  -2255299.66545  24377426.189    24377439.580
 02  7 13 17 43 30.0000000  0 10G26G23G15G 6G 3G21G18G14G17G 9
  23886359.624     6251548.37849   4897899.55945  23886359.647    23886369.379
  24519731.964    18216721.66449  14208860.18945  24519731.343    24519742.271
  20425458.978    -7695754.22949  -5555931.77947  20425458.279    20425466.438
  24126951.396    18967377.14649  14796372.70045  24126951.278    24126964.571
  22145988.587   -15972061.62849 -12423947.01446  22145988.261    22145997.335
  21385471.732   -22484973.54549 -17475795.76047  21385471.256    21385479.862
  20488911.679   -11119371.89249  -8633308.81647  20488911.212    20488917.945
  23556826.709    -9494228.37349  -7354145.54045  23556826.449    23556837.954
  20823300.303    -3074676.14849  -2372559.75147  20823299.769    20823308.197
  24364212.544    -3381082.46749  -2309407.25245  24364212.556    24364225.879
 02  7 13 17 44  0.0000000  0 10G26G23G15G 6G 3G21G18G14G17G 9
  23905632.674     6352828.97349   4976819.47445  23905632.844    23905642.492
  24535220.683    18298115.68549  14272284.02345  24535220.090    24535231.163
  20428995.216    -7677171.06249  -5541451.39747  20428994.521    20429002.658
  24148244.499    19079272.12449  14883563.33045  24148244.407    24148257.886
  22136063.906   -16024216.25849 -12464586.96046  22136063.552    22136072.635
  21379852.765   -22514500.75549 -17498803.95047  21379852.386    21379860.980
  20493433.290   -11095610.61049  -8614793.53747  20493432.812    20493439.577
  23535718.347    -9605153.82449  -7440580.75345  23535718.002    23535729.308
  20829250.835    -3043406.15549  -2348193.55447  20829250.270    20829258.689
  24351043.092    -3450288.35849  -2363333.79345  24351043.044    24351056.160
 02  7 13 17 44 30.0000000  0 10G26G23G15G 6G 3G21G18G14G17G 9
  23924961.535     6454402.69049   5055967.76145  23924961.653    23924971.322
  24550703.306    18379476.07049  14335681.62545  24550702.662    24550713.636
  20432595.595    -7658251.07449  -5526708.56047  20432594.899    20432603.019
  24169552.767    19191245.75449  14970815.26745  24169552.636    24169566.207
  22126232.768   -16075878.85649 -12504843.49946  22126232.408    22126241.558
  21374280.445   -22543783.41649 -17521621.58447  21374280.044    21374288.667
  20498013.654   -11071540.69649  -8596037.76947  20498013.201    20498019.946
  23514637.237    -9715935.67849  -7526904.05345  23514636.716    23514648.133
  20835261.563    -3011819.68449  -2323580.75547  20835261.009    20835269.409
  24337918.497    -3519258.41749  -2417076.56145  24337918.222    24337931.775
 02  7 13 17 45  0.0000000  0 10G26G23G15G 6G 3G21G18G14G17G 9
  23944345.642     6556265.77949   5135341.56445  23944345.535    23944355.216
  24566179.192    18460801.68149  14399052.13945  24566178.558    24566189.669
  20436260.124    -7638993.89649  -5511702.98647  20436259.412    20436267.601
  24190875.244    19303294.94249  15058126.08045  24190875.175    24190888.714
  22116495.498   -16127048.34849 -12544715.79946  22116495.149    22116504.318
  21368754.474   -22572822.70349 -17544249.57747  21368754.040    21368762.665
  20502652.391   -11047164.19549  -8577043.10247  20502651.899    20502658.650
  23493583.703    -9826571.86149  -7613113.83845  23493583.201    23493594.609
  20841332.514    -2979916.74149  -2298721.34747  20841331.966    20841340.396
  24324839.223    -3587989.87849  -2470633.40045  24324838.984    24324852.539
 02  7 13 17 45 30.0000000  0 10G26G23G15G 6G 3G21G18G14G17G 9
  23963784.105     6658416.06949   5214939.14745  23963784.057    23963793.763
  24581648.324    18542092.16949  14462395.30245  24581647.779    24581658.845
  20439989.052    -7619398.32849  -5496433.72347  20439988.350    20439996.518
  24212211.791    19415417.64349  15145494.16645  24212211.654    24212225.271
  22106852.433   -16177722.59149 -12584202.18746  22106852.095    22106861.267
  21363274.740   -22601618.68049 -17566687.97447  21363274.323    21363282.949
  20507349.304   -11022481.83849  -8557810.09547  20507348.828    20507355.566
  23472558.497    -9937059.14249  -7699207.59345  23472558.047    23472569.403
  20847463.854    -2947696.34749  -2273614.59047  20847463.302    20847471.786
  24311805.867    -3656479.30049  -2524001.60445  24311805.738    24311819.194
 02  7 13 17 46  0.0000000  0 10G26G23G15G 6G 3G21G18G14G17G 9
  23983276.625     6760850.57649   5294758.17145  23983276.753    23983286.634
  24597110.726    18623347.17649  14525710.81745  24597110.195    24597121.228
  20443782.485    -7599463.61349  -5480900.19047  20443781.774    20443789.900
  24233561.808    19527611.87649  15232918.00045  24233561.644    24233575.285
  22097304.045   -16227899.47649 -12623301.03046  22097303.735    22097312.863
  21357841.272   -22630171.68649 -17588937.04147  21357840.845    21357849.488
  20512104.226   -10997494.56549  -8538339.48447  20512103.766    20512110.470
  23451562.213   -10047394.53849  -7785183.00045  23451561.622    23451573.031
  20853655.778    -2915157.46949  -2248259.64847  20853655.255    20853663.750
  24298819.395    -3724722.80349  -2577178.18645  24298819.308    24298832.823
 02  7 13 17 46 30.0000000  0 10G26G23G15G 6G 3G21G18G14G17G 9
  24002822.855     6863565.93649   5374796.06245  24002822.982    24002832.834
  24612566.179    18704565.69849  14588997.92045  24612565.615    24612576.740
  20447640.539    -7579189.44049  -5465102.14347  20447639.834    20447647.992
  24254924.821    19639874.84249  15320395.37245  24254924.715    24254938.525
  22087850.636   -16277577.56949 -12662011.19246  22087850.310    22087859.399
  21352453.828   -22658482.56949 -17610997.44547  21352453.434    21352462.081
  20516916.861   -10972203.88449  -8518632.43947  20516916.404    20516923.130
  23430595.367   -10157576.08349  -7871038.51645  23430594.647    23430605.946
  20859908.419    -2882299.95549  -2222656.42147  20859907.906    20859916.351
  24285880.419    -3792717.50549  -2630160.92445  24285880.315    24285893.835
 02  7 13 17 47  0.0000000  0 10G26G23G15G 6G 3G21G18G14G17G 9
  24022421.805     6966558.35649   5455049.85545  24022421.744    24022431.809
  24628014.308    18785746.08149  14652255.23745  24628013.751    24628024.920
  20451563.067    -7558576.40649  -5449040.05547  20451562.358    20451570.554
  24276300.092    19752203.17149  15407923.68145  24276300.166    24276314.371
  22078492.269   -16326756.02549 -12700332.02746  22078491.918    22078501.040
  21347112.286   -22686552.65949 -17632870.21047  21347111.852    21347120.491
  20521786.722   -10946612.48349  -8498691.07747  20521786.283    20521793.024
  23409658.204   -10267601.78449  -7956772.59045  23409657.422    23409668.531
  20866221.645    -2849124.02149  -2196805.07647  20866221.115    20866229.563
  24272988.991    -3860461.16349  -2682948.02445  24272988.909    24273002.397
 02  7 13 17 47 30.0000000  0 10G26G23G15G 6G 3G21G18G14G17G 9
  24042072.848     7069825.78349   5535517.94045  24042073.009    24042083.004
  24643455.352    18866888.72049  14715483.17745  24643454.661    24643465.996
  20455550.516    -7537622.33149  -5432712.22847  20455549.827    20455557.994
  24297687.622    19864595.35649  15495501.73445  24297687.781    24297702.254
  22069229.439   -16375432.27849 -12738261.53846  22069229.081    22069238.251
  21341816.677   -22714381.53649 -17654555.01847  21341816.168    21341824.815
  20526713.794   -10920720.42449  -8478515.44847  20526713.342    20526720.108
  23388751.350   -10377467.94949  -8042382.36045  23388750.466    23388761.429
  20872595.677    -2815628.27849  -2170704.53447  20872595.143    20872603.640
  24260146.196    -3927949.52849  -2735536.19145  24260146.131    24260159.767
 02  7 13 17 48  0.0000000  0 10G26G23G15G 6G 3G21G18G14G17G 9
  24061775.849     7173365.10749   5616197.88445  24061775.909    24061786.022
  24658888.971    18947992.71349  14778680.98845  24658888.257    24658899.611
  20459602.873    -7516327.04049  -5416118.50747  20459602.172    20459610.309
  24319086.853    19977048.77949  15583127.53145  24319086.926    24319101.787
  22060062.464   -16423604.46149 -12775798.26946  22060062.167    22060071.340
  21336566.714   -22741970.20749 -17676052.65747  21336566.213    21336574.829
  20531697.866   -10894529.01349  -8458106.55047  20531697.412    20531704.171
  23367875.103   -10487172.14249  -8127865.92345  23367874.318    23367885.193
  20879030.722    -2781812.26049  -2144354.43047  20879030.168    20879038.687
  24247352.603    -3995179.78349  -2787923.22845  24247352.456    24247366.171
 02  7 13 17 48 30.0000000  0 10G26G23G15G 6G 3G21G18G14G17G 9
  24081529.998     7277173.10149   5697087.16845  24081529.944    24081540.064
  24674315.101    19029057.24449  14841848.04545  24674314.396    24674325.658
  20463720.225    -7494690.36449  -5399258.77247  20463719.532    20463727.660
  24340497.383    20089560.78049  15670798.94845  24340497.424    24340512.220
  22050991.823   -16471271.09349 -12812941.06046  22050991.466    22051000.656
  21331362.361   -22769319.41649 -17697363.69447  21331361.836    21331370.445
  20536738.592   -10868039.88449  -8437465.66347  20536738.132    20536744.861
  23347030.136   -10596712.00649  -8213221.43245  23347029.399    23347040.213
  20885526.763    -2747675.49449  -2117754.37747  20885526.201    20885534.698
  24234608.878    -4062148.86849  -2840106.76445  24234608.710    24234622.229
 02  7 13 17 49  0.0000000  0 10G26G23G15G 6G 3G21G18G14G17G 9
  24101334.484     7381246.41849   5778183.18245  24101334.343    24101344.641
  24689733.551    19110081.38848  14904983.64844                  24689733.121
  20467902.547    -7472712.18549  -5382132.92647  20467901.846    20467910.011
  24361918.557    20202128.65349  15758513.90145  24361918.555    24361933.589
  22042017.500   -16518431.04749 -12849689.03946  22042017.199    22042026.377
  21326203.509   -22796429.55049 -17718488.45047  21326202.917    21326211.524
  20541835.668   -10841254.48749  -8416593.92047  20541835.213    20541841.952
  23326216.872   -10706085.06149  -8298446.96245  23326216.117    23326226.996
  20892083.830    -2713217.77449  -2090904.23047  20892083.272    20892091.748
  24221915.127    -4128853.78949  -2892084.48445  24221915.008    24221928.517
 02  7 13 17 49 30.0000000  0  9G26G15G 6G 3G21G18G14G17G 9
  24121189.060     7485582.86849   5859484.26245  24121188.818    24121199.267
  20472150.137    -7450391.13749  -5364739.91847  20472149.426    20472157.577
  24383349.781    20314750.67149  15846270.99045  24383349.898    24383365.047
  22033140.121   -16565082.01849 -12886040.40646  22033139.815    22033148.967
  21321090.016   -22823300.78749 -17739427.05747  21321089.517    21321098.098
  20546989.032   -10814173.61649  -8395491.94347  20546988.586    20546995.283
  23305435.968   -10815288.03649  -8383540.01345  23305435.313    23305446.156
  20898702.217    -2678437.93549  -2063803.09547  20898701.690    20898710.141
  24209272.517    -4195290.59249  -2943853.27345  24209272.400    24209285.807
 02  7 13 17 50  0.0000000  0  9G26G15G 6G 3G21G18G14G17G 9
  24141092.847     7590177.81049   5940986.76545  24141092.749    24141103.038
  20476462.771    -7427728.15249  -5347080.46247  20476462.070    20476470.208
  24404790.716    20427422.59748  15934067.00645  24404790.815    24404805.963
  22024359.631   -16611223.76249 -12921994.97146  22024359.294    22024368.442
  21316021.682   -22849935.30949 -17760181.21047  21316021.156    21316029.683
  20552198.052   -10786800.01249  -8374161.86047  20552197.600    20552204.257
  23284687.772   -10924319.90049  -8468499.72245  23284687.127    23284697.950
  20905381.698    -2643337.17249  -2036451.88347  20905381.165    20905389.620
  24196681.369    -4261457.67849  -2995411.85445  24196681.116    24196694.503
 02  7 13 17 50 30.0000000  0  9G26G15G 6G 3G21G18G14G17G 9
  24161045.473     7695030.20849   6022689.87245  24161045.466    24161055.873
  20480840.975    -7404720.54749  -5329152.46547  20480840.279    20480848.409
  24426241.111    20540144.08749  16021901.64045  24426240.964    24426256.647
  22015676.654   -16656852.89449 -12957550.10046  22015676.314    22015685.411
  21310998.597   -22876331.67549 -17780749.77847  21310998.073    21311006.569
  20557462.935   -10759133.17449  -8352603.28547  20557462.455    20557469.086
  23263972.876   -11033176.30349  -8553322.71745  23263972.267    23263983.042
  20912122.748    -2607912.84349  -2008848.54247  20912122.199    20912130.706
  24184142.357    -4327349.78549  -3046756.22145  24184142.156    24184155.646
 02  7 13 17 51  0.0000000  0  9G26G15G 6G 3G21G18G14G17G 9
  24181046.409     7800136.25849   6104590.63645  24181046.459    24181056.979
  20485284.772    -7381368.51549  -5310956.08547  20485284.073    20485292.194
  24447700.426    20652912.12349  16109772.51045  24447700.528    24447715.973
  22007091.447   -16701968.30549 -12992704.92446  22007091.128    22007100.227
  21306020.575   -22902491.02949 -17801133.66747  21306020.099    21306028.613
  20562783.213   -10731174.80649  -8330817.55747  20562782.742    20562789.386
  23243291.871   -11141854.96149  -8638007.20746  23243291.275    23243301.975
  20918925.364    -2572164.95149  -1980993.07547  20918924.820    20918933.341
  24171656.131    -4392964.71449  -3097884.60845  24171656.031    24171669.442
 02  7 13 17 51 30.0000000  0  9G26G15G 6G 3G21G18G14G17G 9
  24201095.154     7905492.42249   6186686.29145  24201095.160    24201105.727
  20489794.015    -7357672.31649  -5292491.51547  20489793.331    20489801.437
  24469168.321    20765723.46049  16197677.16745  24469168.196    24469183.765
  21998604.205   -16746569.18549 -13027458.80346  21998603.883    21998612.955
  21301087.467   -22928414.89949 -17821334.06447  21301086.944    21301095.455
  20568158.554   -10702927.05949  -8308806.34447  20568158.100    20568164.735
  23222645.011   -11250354.06449  -8722551.80346  23222644.438    23222655.181
  20925789.483    -2536093.97149  -1952885.84747  20925788.938    20925797.424
  24159223.419    -4458299.88549  -3148795.01445  24159222.949    24159236.425
 02  7 13 17 52  0.0000000  0  9G26G15G 6G 3G21G18G14G17G 9
  24221190.678     8011095.77049   6268974.56545  24221190.908    24221201.459
  20494368.876    -7333631.30849  -5273758.26047  20494368.174    20494376.297
  24490643.805    20878575.72349  16285613.69545  24490643.640    24490659.287
  21990215.206   -16790653.79549 -13061810.40146  21990214.881    21990223.900
  21296198.978   -22954103.76549 -17841351.34247  21296198.459    21296206.985
  20573588.722   -10674391.36449  -8286570.75347  20573588.271    20573594.908
  23202032.829   -11358670.91949  -8806954.38646  23202032.308    23202042.955
  20932715.233    -2499699.07149  -1924526.22147  20932714.693    20932723.186
  24146844.465    -4523351.87849  -3199484.72145  24146843.818    24146857.211
 02  7 13 17 52 30.0000000  0  9G26G15G 6G 3G21G18G14G17G 9
  24241333.004     8116944.11649   6351453.73545  24241333.264    24241343.780
  20499009.620    -7309244.15549  -5254755.28747  20499008.901    20499017.023
  24512126.828    20991467.21649  16373580.77145  24512126.537    24512141.856
  21981924.900   -16834219.76349 -13095757.86146  21981924.500    21981933.516
  21291355.359   -22979557.43749 -17861185.35947  21291354.802    21291363.300
  20579073.641   -10645567.95649  -8264110.96547  20579073.204    20579079.798
  23181455.990   -11466802.04049  -8891212.24246  23181455.452    23181466.137
  20939702.801    -2462979.15649  -1895913.33847  20939702.266    20939710.849
  24134520.094    -4588116.87349  -3249950.85845  24134519.400    24134532.574
 02  7 13 17 53  0.0000000  0  8G26G15G 3G21G18G14G17G 9
  24261521.474     8223034.30049   6434121.34545  24261521.698    24261532.082
  20503716.277    -7284510.48449  -5235482.30247  20503715.563    20503723.717
  21973733.360   -16877265.87349 -13129300.23946  21973733.051    21973742.022
  21286556.350   -23004776.36949 -17880836.45947  21286555.774    21286564.247
  20584613.072   -10616458.26749  -8241428.10447  20584612.619    20584619.209
  23160915.181   -11574744.97749  -8975323.46346  23160914.493    23160925.102
  20946752.310    -2425933.87449  -1867046.92547  20946751.795    20946760.420
  24122250.966    -4652591.60449  -3300190.77645  24122250.294    24122263.394
 02  7 13 17 53 30.0000000  0  8G26G15G 3G21G18G14G17G 9
  24281756.031     8329366.39349   6516977.45445  24281756.020    24281766.358
  20508489.506    -7259426.80249  -5215936.58247  20508488.829    20508496.995
  21965641.749   -16919787.62649 -13162434.03146  21965641.423    21965650.360
  21281802.437   -23029757.93249 -17900302.59847  21281801.915    21281810.405
  20590207.258   -10587060.63249  -8218520.86847  20590206.796    20590213.401
  23140411.188   -11682494.11949  -9059283.71246  23140410.438    23140420.934
  20953864.417    -2388559.59549  -1837924.14447  20953863.922    20953872.510
  24110037.654    -4716770.07249  -3350199.82045  24110037.309    24110050.334
 02  7 13 17 54  0.0000000  0  8G26G15G 3G21G18G14G17G 9
  24302034.977     8435932.90649   6600016.23245  24302035.081    24302045.378
  20513328.607    -7233997.11449  -5196121.25147  20513327.928    20513336.104
  21957649.375   -16961787.96349 -13195161.53046  21957649.006    21957657.909
  21277092.673   -23054507.71249 -17919588.13047  21277092.166    21277100.683
  20595855.114   -10557380.81249  -8195393.74347  20595854.686    20595861.292
  23119943.441   -11790051.32249  -9143094.37345  23119942.797    23119953.273
  20961038.419    -2350860.32549  -1808548.12747  20961037.915    20961046.458
  24097881.032    -4780653.37549  -3399978.89645  24097880.645    24097893.713
 02  7 13 17 54 30.0000000  0  8G26G15G 3G21G18G14G17G 9
  24322358.111     8542731.70749   6683236.03345  24322358.352    24322368.366
  20518233.855    -7208219.90549  -5176035.12047  20518233.163    20518241.334
  21949756.584   -17003264.69949 -13227481.02246  21949756.250    21949765.137
  21272427.075   -23079025.23849 -17938692.68247  21272426.616    21272435.165
  20601556.665   -10527419.13449  -8172046.98747  20601556.229    20601562.831
  23099512.954   -11897413.21249  -9226752.85145  23099512.350    23099522.786
  20968274.460    -2312834.80849  -1778917.88347  20968273.946    20968282.467
  24085781.179    -4844237.51149  -3449524.85045  24085780.831    24085793.944
 02  7 13 17 55  0.0000000  0  8G26G15G 3G21G18G14G17G 9
  24342724.850     8649760.22249   6766634.82845  24342725.162    24342735.196
  20523205.306    -7182094.57149  -5155677.72447  20523204.621    20523212.845
  21941963.789   -17044215.76949 -13259390.90646  21941963.445    21941972.348
  21267805.640   -23103310.79849 -17957616.48247  21267805.225    21267813.719
  20607311.623   -10497176.60149  -8148481.38147  20607311.195    20607317.786
  23079120.274   -12004576.63449  -9310256.67546  23079119.708    23079130.067
  20975572.746    -2274482.04749  -1749032.64247  20975572.233    20975580.770
  24073738.945    -4907519.10449  -3498835.05245  24073738.748    24073751.613
 02  7 13 17 55 30.0000000  0  8G26G15G 3G21G18G14G17G 9
  24363134.875     8757015.12249   6850210.02945  24363135.013    24363145.305
  20528243.092    -7155620.94549  -5135048.93647  20528242.404    20528250.633
  21934271.194   -17084640.55349 -13290890.70546  21934270.821    21934279.697
  21263228.157   -23127365.47649 -17976360.36647  21263227.724    21263236.209
  20613119.714   -10466655.13649  -8124698.42447  20613119.255    20613125.859
  23058765.880   -12111539.48749  -9393604.20746  23058765.230    23058775.618
  20982933.309    -2235802.22549  -1718892.55247  20982932.788    20982941.327
  24061754.810    -4970495.57549  -3547907.51345  24061754.494    24061767.505
 02  7 13 17 56  0.0000000  0  8G26G15G 3G21G18G14G17G 9
  24383587.456     8864493.25249   6933959.15045  24383587.384    24383597.869
  20533347.217    -7128798.65449  -5114148.45347  20533346.530    20533354.726
  21926679.039   -17124537.21549 -13321978.97446  21926678.687    21926687.559
  21258694.557   -23151189.53149 -17994924.54147  21258694.152    21258702.654
  20618980.575   -10435855.96449  -8100699.07547  20618980.117    20618986.771
  23038449.992   -12218299.19849  -9476793.44345  23038449.344    23038459.730
  20990356.245    -2196794.76449  -1688497.15447  20990355.709    20990364.212
  24049829.362    -5033163.65349  -3596739.62945  24049829.079    24049842.080
 02  7 13 17 56 30.0000000  0  8G26G15G 3G21G18G14G17G 9
  24404081.795     8972192.28949   7017880.39945  24404081.956    24404092.437
  20538517.849    -7101626.71749  -5092975.51347  20538517.161    20538525.360
  21919187.728   -17163903.89649 -13352654.28046  21919187.422    21919196.312
  21254204.830   -23174783.36049 -18013309.32147  21254204.370    21254212.906
  20624894.122   -10404779.98149  -8076484.02647  20624893.683    20624900.349
  23018173.363   -12324852.69149  -9559821.98645  23018172.731    23018183.034
  20997841.634    -2157458.93749  -1657845.89347  20997841.117    20997849.575
  24037963.454    -5095519.86749  -3645328.73545  24037963.125    24037976.213
 02  7 13 17 57  0.0000000  0  8G26G15G 3G21G18G14G17G 9
  24424617.661     9080109.43349   7101971.59645  24424617.819    24424628.282
  20543755.210    -7074104.50949  -5071529.63947  20543754.525    20543762.691
  21911797.563   -17202739.35349 -13382915.64346  21911797.268    21911806.127
  21249758.822   -23198147.39449 -18031515.04047  21249758.338    21249766.864
  20630860.111   -10373428.11549  -8052054.00647  20630859.713    20630866.407
  22997936.616   -12431197.27649  -9642687.76845  22997935.960    22997946.191
  21005389.655    -2117793.94949  -1626938.14647  21005389.142    21005397.611
  24026157.368    -5157560.67749  -3693672.11445  24026157.058    24026170.137
 02  7 13 17 57 30.0000000  0  8G26G15G 3G21G18G14G17G 9
  24445194.445     9188241.29548   7186230.13744  24445194.325    24445205.440
  20549059.199    -7046231.82849  -5049810.67647  20549058.503    20549066.705
  21904508.652   -17241042.60049 -13412762.29646  21904508.354    21904517.225
  21245356.413   -23221282.44349 -18049542.32347  21245355.866    21245364.376
  20636878.406   -10341801.98149  -8027410.27647  20636877.967    20636884.648
  22977739.960   -12537330.47749  -9725388.82646  22977739.432    22977749.606
  21013000.333    -2077799.81249  -1595773.91147  21012999.813    21013008.323
  24014411.700    -5219283.38349  -3741767.55645  24014411.419    24014424.534
 02  7 13 17 58  0.0000000  0  8G26G15G 3G21G18G14G17G 9
  24465811.400     9296584.36248   7270653.28744                  24465814.769
  20554429.877    -7018008.84449  -5027818.74847  20554429.195    20554437.360
  21897321.165   -17278812.86749 -13442193.64646  21897320.890    21897329.770
  21240997.214   -23244190.09149 -18067392.41047  21240996.674    21241005.183
  20642948.432   -10309903.65649  -8002554.45147  20642948.034    20642954.708
  22957583.901   -12643250.64549  -9807923.88446  22957583.406    22957593.572
  21020673.573    -2037476.66549  -1564353.30447  21020673.061    21020681.610
  24002727.104    -5280685.83049  -3789613.46045  24002726.719    24002739.759
 02  7 13 17 58 30.0000000  0  8G26G15G 3G21G18G14G17G 9
  24486468.828     9405136.59857   7355239.39144                  24486467.305
  20559867.432    -6989434.38549  -5005552.93847  20559866.740    20559874.903
  21890235.562   -17316047.95549 -13471207.97346  21890235.276    21890244.154
  21236681.363   -23266870.04249 -18085065.06847  21236680.822    21236689.291
  20649070.169   -10277733.56249  -7977486.86247  20649069.757    20649076.493
  22937469.096   -12748954.19049  -9890290.14246  22937468.621    22937478.713
  21028409.626    -1996823.47449  -1532675.52147  21028409.105    21028417.728
  23991104.161    -5341763.93549  -3837206.62145  23991103.695    23991116.894
 02  7 13 17 59  0.0000000  0  7G15G 3G21G18G14G17G 9
  20565372.387    -6960505.69249  -4983011.11547  20565371.699    20565379.847
  21883252.501   -17352744.06549 -13499802.32146  21883252.210    21883261.088
  21232409.177   -23289320.69349 -18102559.04847  21232408.639    21232417.093
  20655243.863   -10245290.65649  -7952206.68747  20655243.462    20655250.193
  22917396.368   -12854436.43949  -9972483.97146  22917395.917    22917405.939
  21036209.020    -1955837.37749  -1500738.33347  21036208.496    21036217.156
  23979544.099    -5402512.25849  -3884542.85145  23979543.667    23979556.828
 02  7 13 17 59 30.0000000  0  7G15G 3G21G18G14G17G 9
  20570944.938    -6931221.74149  -4960192.46647  20570944.232    20570952.424
  21876372.361   -17388899.45149 -13527975.33346  21876372.043    21876380.963
  21228180.626   -23311541.91949 -18119874.26147  21228180.027    21228188.500
  20661469.350   -10212575.64049  -7926714.47647  20661468.943    20661475.664
  22897366.279   -12959693.96349 -10054502.69746  22897365.924    22897375.982
  21044072.015    -1914517.29549  -1468540.90347  21044071.493    21044080.124
  23968047.502    -5462927.07749  -3931619.18845  23968047.017    23968060.059
 02  7 13 18  0  0.0000000  0  7G15G 3G21G18G14G17G 9
  20576584.163    -6901587.52449  -4937100.88047  20576583.448    20576591.662
  21869594.226   -17424518.43049 -13555730.35246  21869593.965    21869602.849
  21223994.552   -23333539.45449 -18137015.16547  21223994.025    21224002.490
  20667745.341   -10179595.26549  -7901015.48047  20667744.928    20667751.624
  22877378.457   -13064729.78749 -10136348.64946  22877378.091    22877388.282
  21051997.536    -1872868.40449  -1436087.25247  21051997.016    21052005.656
  23956613.855    -5523010.74749  -3978437.47245  23956613.371    23956626.362
 02  7 13 18  0 30.0000000  0  7G15G 3G21G18G14G17G 9
  20582290.475    -6871600.75649  -4913734.58247  20582289.777    20582297.971
  21862918.834   -17459598.12549 -13583065.15646  21862918.497    21862927.393
  21219851.272   -23355312.32449 -18153981.00747  21219850.773    21219859.231
  20674071.913   -10146349.00449  -7875109.30547  20674071.518    20674078.209
  22857433.798   -13169539.39249 -10218018.33946  22857433.419    22857443.559
  21059986.064    -1830888.46849  -1403375.65347  21059985.546    21059994.200
  23945243.632    -5582758.52849  -4024994.04445  23945243.653    23945256.579
 02  7 13 18  1  0.0000000  0  7G15G 3G21G18G14G17G 9
  20588063.889    -6841261.20949  -4890093.38247  20588063.191    20588071.380
  21856346.322   -17494137.19649 -13609978.69247  21856345.967    21856354.810
  21215750.643   -23376861.29549 -18170772.38147  21215750.132    21215758.596
  20680448.782   -10112838.32749  -7848997.09647  20680448.373    20680455.117
  22837532.832   -13274120.40949 -10299509.90746  22837532.255    22837542.370
  21068037.679    -1788577.22349  -1370405.89447  21068037.131    21068045.776
  23933938.535    -5642167.39749  -4071286.52745  23933938.470    23933951.322
 02  7 13 18  1 30.0000000  0  8G31G15G 3G21G18G14G17G 9
  24344479.243    -2503274.32049  -1893527.91545  24344478.757    24344490.457
  20593901.828    -6810582.70649  -4866188.06547  20593901.139    20593909.341
  21849874.078   -17528148.81049 -13636481.22047  21849873.807    21849882.603
  21211689.782   -23398201.50449 -18187401.09447  21211689.233    21211697.654
  20686873.036   -10079078.73949  -7822690.93047  20686872.636    20686879.338
  22817672.990   -13378484.70649 -10380832.61146  22817672.374    22817682.315
  21076149.667    -1745948.61649  -1337188.83347  21076149.126    21076157.759
  23922695.794    -5701248.66249  -4117323.77245  23922695.672    23922708.359
 02  7 13 18  2  0.0000000  0  8G31G15G 3G21G18G14G17G 9
  24327410.723    -2592971.63749  -1963421.87945  24327409.995    24327421.589
  20599808.179    -6779544.70649  -4842002.62347  20599807.490    20599815.693
  21843506.331   -17561611.44349 -13662555.97947  21843506.056    21843514.840
  21207672.443   -23419312.92449 -18203851.53047  21207671.844    21207680.222
  20693348.254   -10045051.45549  -7796176.16847  20693347.813    20693354.554
  22797858.602   -13482609.40149 -10461968.60346  22797858.012    22797867.843
  21084325.930    -1702982.13949  -1303708.50647  21084325.415    21084334.021
  23911519.734    -5759979.10749  -4163087.62345  23911519.490    23911532.215
 02  7 13 18  2 30.0000000  0  8G31G15G 3G21G18G14G17G 9
  24310402.042    -2682352.73549  -2033069.44745  24310401.429    24310412.932
  20605782.652    -6748148.70949  -4817538.21947  20605781.964    20605790.148
  21837242.889   -17594525.85049 -13688203.54447  21837242.612    21837251.460
  21203698.098   -23440198.20849 -18220125.75747  21203697.516    21203705.883
  20699873.797   -10010759.49649  -7769455.16847  20699873.376    20699880.124
  22778090.005   -13586493.77849 -10542917.34846  22778089.407    22778099.188
  21092566.217    -1659679.19349  -1269965.98147  21092565.711    21092574.354
  23900410.534    -5818357.46749  -4208577.16245  23900410.261    23900423.120
 02  7 13 18  3  0.0000000  0  8G31G15G 3G21G18G14G17G 9
  24293453.708    -2771415.84349  -2102469.23145  24293453.213    24293464.728
  20611825.132    -6716395.19449  -4792795.23847  20611824.431    20611832.623
  21831083.831   -17626891.88149 -13713423.80547  21831083.555    21831092.379
  21199766.526   -23460858.49849 -18236224.66547  21199765.968    21199774.335
  20706449.304    -9976204.99849  -7742529.59547  20706448.884    20706455.627
  22758367.271   -13690136.08449 -10623677.45446  22758366.820    22758376.571
  21100870.480    -1616040.31649  -1235961.69947  21100869.972    21100878.650
  23889369.027    -5876381.60049  -4253790.70545  23889368.704    23889381.495
 02  7 13 18  3 30.0000000  0  8G31G15G 3G21G18G14G17G 9
  24276566.222    -2860159.25549  -2171619.90545  24276565.943    24276577.225
  20617935.531    -6684284.81749  -4767774.17847  20617934.841    20617943.038
  21825029.179   -17658709.46549 -13738216.70247  21825028.857    21825037.681
  21195877.428   -23481295.67349 -18252149.71347  21195876.890    21195885.284
  20713074.337    -9941390.22749  -7715401.21447  20713073.927    20713080.685
  22738691.124   -13793534.90349 -10704247.83446  22738690.592    22738700.353
  21109238.454    -1572066.27549  -1201696.24047  21109237.959    21109246.690
  23878394.994    -5934049.72049  -4298726.83345  23878394.831    23878407.472
 02  7 13 18  4  0.0000000  0  8G31G15G 3G21G18G14G17G 9
  24259740.058    -2948581.11349  -2240519.99845  24259739.612    24259751.068
  20624113.784    -6651818.05249  -4742475.41847  20624113.094    20624121.283
  21819078.945   -17689978.11849 -13762581.86547  21819078.626    21819087.429
  21192030.504   -23501511.32649 -18267902.15347  21192029.983    21192038.347
  20719748.541    -9906317.00549  -7688071.44847  20719748.147    20719754.878
  22719061.618   -13896688.21549 -10784626.91546  22719061.122    22719070.929
  21117670.202    -1527757.28549  -1167169.78847  21117669.701    21117678.474
  23867489.428    -5991359.31649  -4343383.60245  23867489.141    23867501.784
 02  7 13 18  4 30.0000000  0  8G31G15G 3G21G18G14G17G 9
  24242975.771    -3036679.85949  -2309168.31845  24242974.978    24242986.422
  20630359.724    -6618995.49849  -4716899.41947  20630359.030    20630367.251
  21813233.085   -17720698.19249 -13786519.56247  21813232.783    21813241.557
  21188225.284   -23521507.21349 -18283483.34147  21188224.847    21188233.230
  20726471.452    -9870987.85949  -7660542.25747  20726471.063    20726477.773
  22699478.927   -13999594.86349 -10864813.76846  22699478.468    22699488.293
  21126165.521    -1483114.36149  -1132383.11647  21126165.040    21126173.750
  23856652.205    -6048308.61649  -4387759.61045  23856651.974    23856664.536
 02  7 13 18  5  0.0000000  0  8G31G15G 3G21G18G14G17G 9
  24226272.772    -3124451.98249  -2377562.15445  24226272.441    24226283.956
  20636673.678    -6585815.49149  -4691044.88347  20636673.018    20636681.219
  21807492.181   -17750866.99449 -13810027.69447  21807491.857    21807500.575
  21184462.087   -23541282.53149 -18298892.66347  21184461.712    21184470.086
  20733243.076    -9835402.86949  -7632813.70947  20733242.675    20733249.420
  22679943.936   -14102251.12449 -10944805.52646  22679943.512    22679953.319
  21134724.742    -1438135.83849  -1097334.94547  21134724.235    21134732.891
  23845884.303    -6104893.09449  -4431851.36145  23845884.149    23845896.667
